<?xml version="1.0" encoding="UTF-8" standalone="no" ?>
<gpx xmlns="http://www.topografix.com/GPX/1/1" xmlns:xsi="http://www.w3.org/2001/XMLSchema-instance" xsi:schemaLocation="http://www.topografix.com/GPX/1/1 http://www.topografix.com/GPX/1/1/gpx.xsd" version="1.1" creator="VisuGPX - https://www.visugpx.com">
  <metadata>
    <name>L'oustalet - tufarel</name>
  </metadata>
  <trk>
    <name><![CDATA[SityTrail - l'oustalet - tufarel]]></name>
    <extensions>
      <line xmlns="http://www.topografix.com/GPX/gpx_style/0/2">
        <color>0000FF</color>
        <width>4</width>
      </line>
    </extensions>
    <trkseg>
      <trkpt lat="43.19731" lon="3.189">
        <ele>15</ele>
        <time>2024-09-20T14:33:32.844Z</time>
      </trkpt>
      <trkpt lat="43.19731" lon="3.189">
        <ele>15</ele>
        <time>2024-09-20T14:33:32.844Z</time>
      </trkpt>
      <trkpt lat="43.19727" lon="3.18897">
        <ele>15</ele>
        <time>2024-09-20T14:33:34.079Z</time>
      </trkpt>
      <trkpt lat="43.19733" lon="3.189">
        <ele>15</ele>
        <time>2024-09-20T14:33:38.832Z</time>
      </trkpt>
      <trkpt lat="43.19738" lon="3.18899">
        <ele>13</ele>
        <time>2024-09-20T14:33:42.832Z</time>
      </trkpt>
      <trkpt lat="43.19742" lon="3.18896">
        <ele>13</ele>
        <time>2024-09-20T14:33:46.832Z</time>
      </trkpt>
      <trkpt lat="43.19746" lon="3.18892">
        <ele>13</ele>
        <time>2024-09-20T14:33:51.832Z</time>
      </trkpt>
      <trkpt lat="43.19752" lon="3.1889">
        <ele>13</ele>
        <time>2024-09-20T14:33:55.832Z</time>
      </trkpt>
      <trkpt lat="43.19757" lon="3.18887">
        <ele>13</ele>
        <time>2024-09-20T14:34:00.832Z</time>
      </trkpt>
      <trkpt lat="43.19764" lon="3.18883">
        <ele>13</ele>
        <time>2024-09-20T14:34:05.832Z</time>
      </trkpt>
      <trkpt lat="43.19769" lon="3.18879">
        <ele>9</ele>
        <time>2024-09-20T14:34:10.832Z</time>
      </trkpt>
      <trkpt lat="43.19773" lon="3.18875">
        <ele>10</ele>
        <time>2024-09-20T14:34:15.832Z</time>
      </trkpt>
      <trkpt lat="43.19779" lon="3.1887">
        <ele>10</ele>
        <time>2024-09-20T14:34:20.832Z</time>
      </trkpt>
      <trkpt lat="43.19779" lon="3.18865">
        <ele>10</ele>
        <time>2024-09-20T14:34:25.832Z</time>
      </trkpt>
      <trkpt lat="43.19781" lon="3.1886">
        <ele>10</ele>
        <time>2024-09-20T14:34:30.832Z</time>
      </trkpt>
      <trkpt lat="43.19783" lon="3.18855">
        <ele>10</ele>
        <time>2024-09-20T14:34:35.832Z</time>
      </trkpt>
      <trkpt lat="43.19784" lon="3.18847">
        <ele>14</ele>
        <time>2024-09-20T14:34:40.832Z</time>
      </trkpt>
      <trkpt lat="43.19784" lon="3.18839">
        <ele>14</ele>
        <time>2024-09-20T14:34:45.832Z</time>
      </trkpt>
      <trkpt lat="43.19783" lon="3.18835">
        <ele>14</ele>
        <time>2024-09-20T14:34:50.832Z</time>
      </trkpt>
      <trkpt lat="43.19782" lon="3.18833">
        <ele>14</ele>
        <time>2024-09-20T14:34:54.832Z</time>
      </trkpt>
      <trkpt lat="43.19781" lon="3.18837">
        <ele>14</ele>
        <time>2024-09-20T14:34:59.832Z</time>
      </trkpt>
      <trkpt lat="43.19781" lon="3.18844">
        <ele>14</ele>
        <time>2024-09-20T14:35:03.832Z</time>
      </trkpt>
      <trkpt lat="43.19776" lon="3.18855">
        <ele>10</ele>
        <time>2024-09-20T14:35:08.832Z</time>
      </trkpt>
      <trkpt lat="43.19768" lon="3.18871">
        <ele>10</ele>
        <time>2024-09-20T14:35:13.832Z</time>
      </trkpt>
      <trkpt lat="43.19758" lon="3.18881">
        <ele>13</ele>
        <time>2024-09-20T14:35:18.832Z</time>
      </trkpt>
      <trkpt lat="43.19753" lon="3.18884">
        <ele>13</ele>
        <time>2024-09-20T14:35:22.832Z</time>
      </trkpt>
      <trkpt lat="43.19749" lon="3.18887">
        <ele>13</ele>
        <time>2024-09-20T14:35:27.832Z</time>
      </trkpt>
      <trkpt lat="43.19742" lon="3.18893">
        <ele>13</ele>
        <time>2024-09-20T14:35:31.832Z</time>
      </trkpt>
      <trkpt lat="43.1973" lon="3.189">
        <ele>15</ele>
        <time>2024-09-20T14:35:36.832Z</time>
      </trkpt>
      <trkpt lat="43.19723" lon="3.18908">
        <ele>11</ele>
        <time>2024-09-20T14:35:40.832Z</time>
      </trkpt>
      <trkpt lat="43.19717" lon="3.18914">
        <ele>11</ele>
        <time>2024-09-20T14:35:44.832Z</time>
      </trkpt>
      <trkpt lat="43.19713" lon="3.18922">
        <ele>11</ele>
        <time>2024-09-20T14:35:49.832Z</time>
      </trkpt>
      <trkpt lat="43.19711" lon="3.18928">
        <ele>11</ele>
        <time>2024-09-20T14:35:54.832Z</time>
      </trkpt>
      <trkpt lat="43.19713" lon="3.18934">
        <ele>8</ele>
        <time>2024-09-20T14:35:59.832Z</time>
      </trkpt>
      <trkpt lat="43.19714" lon="3.18939">
        <ele>8</ele>
        <time>2024-09-20T14:36:03.832Z</time>
      </trkpt>
      <trkpt lat="43.19713" lon="3.18948">
        <ele>8</ele>
        <time>2024-09-20T14:36:08.832Z</time>
      </trkpt>
      <trkpt lat="43.19711" lon="3.18958">
        <ele>8</ele>
        <time>2024-09-20T14:36:12.832Z</time>
      </trkpt>
      <trkpt lat="43.1971" lon="3.18967">
        <ele>6</ele>
        <time>2024-09-20T14:36:17.832Z</time>
      </trkpt>
      <trkpt lat="43.19709" lon="3.18976">
        <ele>6</ele>
        <time>2024-09-20T14:36:22.832Z</time>
      </trkpt>
      <trkpt lat="43.19708" lon="3.18985">
        <ele>10</ele>
        <time>2024-09-20T14:36:26.832Z</time>
      </trkpt>
      <trkpt lat="43.19708" lon="3.18996">
        <ele>10</ele>
        <time>2024-09-20T14:36:31.832Z</time>
      </trkpt>
      <trkpt lat="43.19709" lon="3.19001">
        <ele>6</ele>
        <time>2024-09-20T14:36:35.832Z</time>
      </trkpt>
      <trkpt lat="43.19711" lon="3.19008">
        <ele>6</ele>
        <time>2024-09-20T14:36:40.832Z</time>
      </trkpt>
      <trkpt lat="43.19713" lon="3.19017">
        <ele>6</ele>
        <time>2024-09-20T14:36:45.832Z</time>
      </trkpt>
      <trkpt lat="43.19717" lon="3.19023">
        <ele>6</ele>
        <time>2024-09-20T14:36:49.832Z</time>
      </trkpt>
      <trkpt lat="43.1972" lon="3.1903">
        <ele>6</ele>
        <time>2024-09-20T14:36:53.832Z</time>
      </trkpt>
      <trkpt lat="43.19725" lon="3.19033">
        <ele>6</ele>
        <time>2024-09-20T14:36:58.832Z</time>
      </trkpt>
      <trkpt lat="43.19729" lon="3.19036">
        <ele>6</ele>
        <time>2024-09-20T14:37:02.832Z</time>
      </trkpt>
      <trkpt lat="43.19735" lon="3.19041">
        <ele>6</ele>
        <time>2024-09-20T14:37:07.832Z</time>
      </trkpt>
      <trkpt lat="43.1974" lon="3.19043">
        <ele>2</ele>
        <time>2024-09-20T14:37:12.832Z</time>
      </trkpt>
      <trkpt lat="43.19744" lon="3.19046">
        <ele>2</ele>
        <time>2024-09-20T14:37:16.832Z</time>
      </trkpt>
      <trkpt lat="43.19749" lon="3.19049">
        <ele>2</ele>
        <time>2024-09-20T14:37:43.832Z</time>
      </trkpt>
      <trkpt lat="43.19745" lon="3.19049">
        <ele>2</ele>
        <time>2024-09-20T14:37:47.832Z</time>
      </trkpt>
      <trkpt lat="43.19741" lon="3.1905">
        <ele>2</ele>
        <time>2024-09-20T14:37:52.832Z</time>
      </trkpt>
      <trkpt lat="43.19737" lon="3.19051">
        <ele>2</ele>
        <time>2024-09-20T14:37:57.832Z</time>
      </trkpt>
      <trkpt lat="43.19733" lon="3.19051">
        <ele>5</ele>
        <time>2024-09-20T14:38:02.832Z</time>
      </trkpt>
      <trkpt lat="43.19728" lon="3.19048">
        <ele>5</ele>
        <time>2024-09-20T14:38:07.832Z</time>
      </trkpt>
      <trkpt lat="43.19725" lon="3.19044">
        <ele>5</ele>
        <time>2024-09-20T14:38:11.832Z</time>
      </trkpt>
      <trkpt lat="43.19717" lon="3.19031">
        <ele>6</ele>
        <time>2024-09-20T14:38:16.832Z</time>
      </trkpt>
      <trkpt lat="43.19712" lon="3.19021">
        <ele>6</ele>
        <time>2024-09-20T14:38:21.832Z</time>
      </trkpt>
      <trkpt lat="43.19707" lon="3.19017">
        <ele>11</ele>
        <time>2024-09-20T14:38:26.832Z</time>
      </trkpt>
      <trkpt lat="43.19703" lon="3.19013">
        <ele>10</ele>
        <time>2024-09-20T14:38:31.832Z</time>
      </trkpt>
      <trkpt lat="43.197" lon="3.19006">
        <ele>10</ele>
        <time>2024-09-20T14:38:36.832Z</time>
      </trkpt>
      <trkpt lat="43.19698" lon="3.18999">
        <ele>10</ele>
        <time>2024-09-20T14:38:41.832Z</time>
      </trkpt>
      <trkpt lat="43.197" lon="3.1899">
        <ele>10</ele>
        <time>2024-09-20T14:38:46.832Z</time>
      </trkpt>
      <trkpt lat="43.19702" lon="3.18982">
        <ele>10</ele>
        <time>2024-09-20T14:38:51.832Z</time>
      </trkpt>
      <trkpt lat="43.19702" lon="3.18973">
        <ele>10</ele>
        <time>2024-09-20T14:38:56.832Z</time>
      </trkpt>
      <trkpt lat="43.19702" lon="3.18965">
        <ele>10</ele>
        <time>2024-09-20T14:39:01.832Z</time>
      </trkpt>
      <trkpt lat="43.19701" lon="3.18956">
        <ele>11</ele>
        <time>2024-09-20T14:39:06.832Z</time>
      </trkpt>
      <trkpt lat="43.19705" lon="3.18947">
        <ele>11</ele>
        <time>2024-09-20T14:39:11.832Z</time>
      </trkpt>
      <trkpt lat="43.19704" lon="3.18943">
        <ele>11</ele>
        <time>2024-09-20T14:39:16.832Z</time>
      </trkpt>
      <trkpt lat="43.19701" lon="3.18941">
        <ele>11</ele>
        <time>2024-09-20T14:39:20.832Z</time>
      </trkpt>
      <trkpt lat="43.19702" lon="3.18935">
        <ele>11</ele>
        <time>2024-09-20T14:39:25.832Z</time>
      </trkpt>
      <trkpt lat="43.19703" lon="3.18929">
        <ele>13</ele>
        <time>2024-09-20T14:39:29.832Z</time>
      </trkpt>
      <trkpt lat="43.19706" lon="3.18924">
        <ele>13</ele>
        <time>2024-09-20T14:39:34.832Z</time>
      </trkpt>
      <trkpt lat="43.19711" lon="3.1892">
        <ele>11</ele>
        <time>2024-09-20T14:39:39.832Z</time>
      </trkpt>
      <trkpt lat="43.19715" lon="3.18917">
        <ele>11</ele>
        <time>2024-09-20T14:39:44.832Z</time>
      </trkpt>
      <trkpt lat="43.1972" lon="3.18913">
        <ele>11</ele>
        <time>2024-09-20T14:39:49.832Z</time>
      </trkpt>
      <trkpt lat="43.19724" lon="3.18909">
        <ele>11</ele>
        <time>2024-09-20T14:39:53.832Z</time>
      </trkpt>
      <trkpt lat="43.19729" lon="3.18905">
        <ele>11</ele>
        <time>2024-09-20T14:39:58.832Z</time>
      </trkpt>
      <trkpt lat="43.19731" lon="3.18903">
        <ele>11</ele>
        <time>2024-09-20T14:40:02.832Z</time>
      </trkpt>
      <trkpt lat="43.19733" lon="3.18898">
        <ele>15</ele>
        <time>2024-09-20T14:40:07.832Z</time>
      </trkpt>
      <trkpt lat="43.19732" lon="3.18894">
        <ele>15</ele>
        <time>2024-09-20T14:40:11.832Z</time>
      </trkpt>
      <trkpt lat="43.19734" lon="3.18893">
        <ele>15</ele>
        <time>2024-09-20T14:40:15.832Z</time>
      </trkpt>
      <trkpt lat="43.1974" lon="3.18893">
        <ele>13</ele>
        <time>2024-09-20T14:40:19.832Z</time>
      </trkpt>
      <trkpt lat="43.19752" lon="3.18889">
        <ele>13</ele>
        <time>2024-09-20T14:40:24.832Z</time>
      </trkpt>
      <trkpt lat="43.19762" lon="3.18884">
        <ele>13</ele>
        <time>2024-09-20T14:40:29.832Z</time>
      </trkpt>
      <trkpt lat="43.19767" lon="3.18877">
        <ele>9</ele>
        <time>2024-09-20T14:40:34.832Z</time>
      </trkpt>
      <trkpt lat="43.19769" lon="3.18874">
        <ele>10</ele>
        <time>2024-09-20T14:40:38.832Z</time>
      </trkpt>
      <trkpt lat="43.19771" lon="3.18868">
        <ele>10</ele>
        <time>2024-09-20T14:40:43.832Z</time>
      </trkpt>
      <trkpt lat="43.19775" lon="3.18868">
        <ele>10</ele>
        <time>2024-09-20T14:40:48.832Z</time>
      </trkpt>
      <trkpt lat="43.19778" lon="3.18861">
        <ele>10</ele>
        <time>2024-09-20T14:40:53.832Z</time>
      </trkpt>
      <trkpt lat="43.19779" lon="3.18857">
        <ele>10</ele>
        <time>2024-09-20T14:40:57.832Z</time>
      </trkpt>
      <trkpt lat="43.19776" lon="3.18859">
        <ele>10</ele>
        <time>2024-09-20T14:41:02.832Z</time>
      </trkpt>
      <trkpt lat="43.19777" lon="3.18853">
        <ele>10</ele>
        <time>2024-09-20T14:41:06.832Z</time>
      </trkpt>
      <trkpt lat="43.19773" lon="3.18845">
        <ele>14</ele>
        <time>2024-09-20T14:41:11.832Z</time>
      </trkpt>
      <trkpt lat="43.19774" lon="3.18837">
        <ele>14</ele>
        <time>2024-09-20T14:41:16.832Z</time>
      </trkpt>
      <trkpt lat="43.19767" lon="3.1883">
        <ele>14</ele>
        <time>2024-09-20T14:41:20.832Z</time>
      </trkpt>
      <trkpt lat="43.19764" lon="3.18824">
        <ele>14</ele>
        <time>2024-09-20T14:41:24.832Z</time>
      </trkpt>
      <trkpt lat="43.19766" lon="3.18817">
        <ele>15</ele>
        <time>2024-09-20T14:41:29.832Z</time>
      </trkpt>
      <trkpt lat="43.19773" lon="3.1881">
        <ele>15</ele>
        <time>2024-09-20T14:41:34.832Z</time>
      </trkpt>
      <trkpt lat="43.1978" lon="3.18804">
        <ele>15</ele>
        <time>2024-09-20T14:41:38.832Z</time>
      </trkpt>
      <trkpt lat="43.19784" lon="3.18798">
        <ele>15</ele>
        <time>2024-09-20T14:41:42.832Z</time>
      </trkpt>
      <trkpt lat="43.19787" lon="3.1879">
        <ele>15</ele>
        <time>2024-09-20T14:41:47.832Z</time>
      </trkpt>
      <trkpt lat="43.1979" lon="3.18782">
        <ele>15</ele>
        <time>2024-09-20T14:41:52.832Z</time>
      </trkpt>
      <trkpt lat="43.19795" lon="3.18774">
        <ele>9</ele>
        <time>2024-09-20T14:41:57.832Z</time>
      </trkpt>
      <trkpt lat="43.198" lon="3.18766">
        <ele>9</ele>
        <time>2024-09-20T14:42:01.832Z</time>
      </trkpt>
      <trkpt lat="43.19799" lon="3.18759">
        <ele>8</ele>
        <time>2024-09-20T14:42:06.832Z</time>
      </trkpt>
      <trkpt lat="43.19797" lon="3.18755">
        <ele>8</ele>
        <time>2024-09-20T14:42:10.832Z</time>
      </trkpt>
      <trkpt lat="43.19794" lon="3.18752">
        <ele>8</ele>
        <time>2024-09-20T14:42:15.832Z</time>
      </trkpt>
      <trkpt lat="43.19792" lon="3.18748">
        <ele>8</ele>
        <time>2024-09-20T14:42:19.832Z</time>
      </trkpt>
      <trkpt lat="43.19793" lon="3.18738">
        <ele>8</ele>
        <time>2024-09-20T14:42:24.832Z</time>
      </trkpt>
      <trkpt lat="43.19793" lon="3.18731">
        <ele>6</ele>
        <time>2024-09-20T14:42:29.832Z</time>
      </trkpt>
      <trkpt lat="43.19794" lon="3.18732">
        <ele>6</ele>
        <time>2024-09-20T14:42:34.832Z</time>
      </trkpt>
      <trkpt lat="43.19791" lon="3.18727">
        <ele>10</ele>
        <time>2024-09-20T14:42:39.832Z</time>
      </trkpt>
      <trkpt lat="43.19788" lon="3.18719">
        <ele>10</ele>
        <time>2024-09-20T14:42:44.832Z</time>
      </trkpt>
      <trkpt lat="43.19787" lon="3.18715">
        <ele>10</ele>
        <time>2024-09-20T14:42:48.832Z</time>
      </trkpt>
      <trkpt lat="43.19784" lon="3.18711">
        <ele>10</ele>
        <time>2024-09-20T14:42:52.832Z</time>
      </trkpt>
      <trkpt lat="43.19781" lon="3.18706">
        <ele>9</ele>
        <time>2024-09-20T14:42:57.832Z</time>
      </trkpt>
      <trkpt lat="43.19777" lon="3.187">
        <ele>9</ele>
        <time>2024-09-20T14:43:02.832Z</time>
      </trkpt>
      <trkpt lat="43.19777" lon="3.18696">
        <ele>9</ele>
        <time>2024-09-20T14:43:07.832Z</time>
      </trkpt>
      <trkpt lat="43.19775" lon="3.18694">
        <ele>9</ele>
        <time>2024-09-20T14:43:11.832Z</time>
      </trkpt>
      <trkpt lat="43.19774" lon="3.18689">
        <ele>9</ele>
        <time>2024-09-20T14:43:16.832Z</time>
      </trkpt>
      <trkpt lat="43.19772" lon="3.18683">
        <ele>9</ele>
        <time>2024-09-20T14:43:21.832Z</time>
      </trkpt>
      <trkpt lat="43.19771" lon="3.18677">
        <ele>6</ele>
        <time>2024-09-20T14:43:25.832Z</time>
      </trkpt>
      <trkpt lat="43.1977" lon="3.18672">
        <ele>6</ele>
        <time>2024-09-20T14:43:30.832Z</time>
      </trkpt>
      <trkpt lat="43.19768" lon="3.18666">
        <ele>6</ele>
        <time>2024-09-20T14:43:35.832Z</time>
      </trkpt>
      <trkpt lat="43.19767" lon="3.18657">
        <ele>6</ele>
        <time>2024-09-20T14:43:40.832Z</time>
      </trkpt>
      <trkpt lat="43.19767" lon="3.18651">
        <ele>4</ele>
        <time>2024-09-20T14:43:44.832Z</time>
      </trkpt>
      <trkpt lat="43.19768" lon="3.18645">
        <ele>4</ele>
        <time>2024-09-20T14:43:48.832Z</time>
      </trkpt>
      <trkpt lat="43.19767" lon="3.18642">
        <ele>4</ele>
        <time>2024-09-20T14:43:52.832Z</time>
      </trkpt>
      <trkpt lat="43.19767" lon="3.18635">
        <ele>4</ele>
        <time>2024-09-20T14:43:57.832Z</time>
      </trkpt>
      <trkpt lat="43.19765" lon="3.1863">
        <ele>4</ele>
        <time>2024-09-20T14:44:01.832Z</time>
      </trkpt>
      <trkpt lat="43.19766" lon="3.18621">
        <ele>6</ele>
        <time>2024-09-20T14:44:06.832Z</time>
      </trkpt>
      <trkpt lat="43.19767" lon="3.18614">
        <ele>6</ele>
        <time>2024-09-20T14:44:11.832Z</time>
      </trkpt>
      <trkpt lat="43.19768" lon="3.18607">
        <ele>6</ele>
        <time>2024-09-20T14:44:16.832Z</time>
      </trkpt>
      <trkpt lat="43.19768" lon="3.186">
        <ele>6</ele>
        <time>2024-09-20T14:44:21.832Z</time>
      </trkpt>
      <trkpt lat="43.19769" lon="3.18595">
        <ele>8</ele>
        <time>2024-09-20T14:44:25.832Z</time>
      </trkpt>
      <trkpt lat="43.19771" lon="3.18587">
        <ele>8</ele>
        <time>2024-09-20T14:44:30.832Z</time>
      </trkpt>
      <trkpt lat="43.19772" lon="3.1858">
        <ele>8</ele>
        <time>2024-09-20T14:44:35.832Z</time>
      </trkpt>
      <trkpt lat="43.19774" lon="3.18573">
        <ele>8</ele>
        <time>2024-09-20T14:44:40.832Z</time>
      </trkpt>
      <trkpt lat="43.19777" lon="3.18567">
        <ele>11</ele>
        <time>2024-09-20T14:44:45.832Z</time>
      </trkpt>
      <trkpt lat="43.1978" lon="3.1856">
        <ele>11</ele>
        <time>2024-09-20T14:44:50.832Z</time>
      </trkpt>
      <trkpt lat="43.19782" lon="3.18554">
        <ele>11</ele>
        <time>2024-09-20T14:44:55.832Z</time>
      </trkpt>
      <trkpt lat="43.19784" lon="3.18547">
        <ele>11</ele>
        <time>2024-09-20T14:45:00.832Z</time>
      </trkpt>
      <trkpt lat="43.19787" lon="3.18542">
        <ele>13</ele>
        <time>2024-09-20T14:45:04.832Z</time>
      </trkpt>
      <trkpt lat="43.1979" lon="3.18534">
        <ele>13</ele>
        <time>2024-09-20T14:45:09.832Z</time>
      </trkpt>
      <trkpt lat="43.19793" lon="3.18529">
        <ele>8</ele>
        <time>2024-09-20T14:45:14.832Z</time>
      </trkpt>
      <trkpt lat="43.19794" lon="3.18522">
        <ele>8</ele>
        <time>2024-09-20T14:45:18.832Z</time>
      </trkpt>
      <trkpt lat="43.19795" lon="3.18517">
        <ele>8</ele>
        <time>2024-09-20T14:45:23.832Z</time>
      </trkpt>
      <trkpt lat="43.19798" lon="3.18508">
        <ele>10</ele>
        <time>2024-09-20T14:45:28.832Z</time>
      </trkpt>
      <trkpt lat="43.19801" lon="3.18501">
        <ele>10</ele>
        <time>2024-09-20T14:45:33.832Z</time>
      </trkpt>
      <trkpt lat="43.19803" lon="3.18495">
        <ele>10</ele>
        <time>2024-09-20T14:45:38.832Z</time>
      </trkpt>
      <trkpt lat="43.19804" lon="3.18489">
        <ele>10</ele>
        <time>2024-09-20T14:45:43.832Z</time>
      </trkpt>
      <trkpt lat="43.19804" lon="3.1848">
        <ele>11</ele>
        <time>2024-09-20T14:45:48.832Z</time>
      </trkpt>
      <trkpt lat="43.19803" lon="3.18473">
        <ele>11</ele>
        <time>2024-09-20T14:45:53.832Z</time>
      </trkpt>
      <trkpt lat="43.19803" lon="3.18464">
        <ele>11</ele>
        <time>2024-09-20T14:45:58.832Z</time>
      </trkpt>
      <trkpt lat="43.19804" lon="3.18457">
        <ele>14</ele>
        <time>2024-09-20T14:46:03.832Z</time>
      </trkpt>
      <trkpt lat="43.19801" lon="3.1845">
        <ele>14</ele>
        <time>2024-09-20T14:46:08.832Z</time>
      </trkpt>
      <trkpt lat="43.19802" lon="3.18442">
        <ele>14</ele>
        <time>2024-09-20T14:46:13.832Z</time>
      </trkpt>
      <trkpt lat="43.19804" lon="3.18436">
        <ele>14</ele>
        <time>2024-09-20T14:46:18.832Z</time>
      </trkpt>
      <trkpt lat="43.19804" lon="3.18428">
        <ele>14</ele>
        <time>2024-09-20T14:46:23.832Z</time>
      </trkpt>
      <trkpt lat="43.19803" lon="3.18423">
        <ele>14</ele>
        <time>2024-09-20T14:46:27.832Z</time>
      </trkpt>
      <trkpt lat="43.19801" lon="3.18415">
        <ele>14</ele>
        <time>2024-09-20T14:46:32.832Z</time>
      </trkpt>
      <trkpt lat="43.19798" lon="3.18408">
        <ele>14</ele>
        <time>2024-09-20T14:46:37.832Z</time>
      </trkpt>
      <trkpt lat="43.19793" lon="3.18396">
        <ele>13</ele>
        <time>2024-09-20T14:47:01.832Z</time>
      </trkpt>
      <trkpt lat="43.19794" lon="3.18394">
        <ele>13</ele>
        <time>2024-09-20T14:47:09.832Z</time>
      </trkpt>
      <trkpt lat="43.19796" lon="3.18386">
        <ele>13</ele>
        <time>2024-09-20T14:47:14.832Z</time>
      </trkpt>
      <trkpt lat="43.19799" lon="3.18382">
        <ele>13</ele>
        <time>2024-09-20T14:47:19.832Z</time>
      </trkpt>
      <trkpt lat="43.19804" lon="3.18377">
        <ele>13</ele>
        <time>2024-09-20T14:47:24.832Z</time>
      </trkpt>
      <trkpt lat="43.19807" lon="3.1837">
        <ele>12</ele>
        <time>2024-09-20T14:47:28.832Z</time>
      </trkpt>
      <trkpt lat="43.19809" lon="3.18367">
        <ele>12</ele>
        <time>2024-09-20T14:47:33.832Z</time>
      </trkpt>
      <trkpt lat="43.19812" lon="3.1836">
        <ele>12</ele>
        <time>2024-09-20T14:47:38.832Z</time>
      </trkpt>
      <trkpt lat="43.19813" lon="3.18357">
        <ele>12</ele>
        <time>2024-09-20T14:47:43.832Z</time>
      </trkpt>
      <trkpt lat="43.19814" lon="3.18353">
        <ele>12</ele>
        <time>2024-09-20T14:47:47.832Z</time>
      </trkpt>
      <trkpt lat="43.19817" lon="3.18349">
        <ele>12</ele>
        <time>2024-09-20T14:47:52.832Z</time>
      </trkpt>
      <trkpt lat="43.19821" lon="3.18345">
        <ele>9</ele>
        <time>2024-09-20T14:47:56.832Z</time>
      </trkpt>
      <trkpt lat="43.19824" lon="3.1834">
        <ele>9</ele>
        <time>2024-09-20T14:48:01.832Z</time>
      </trkpt>
      <trkpt lat="43.19826" lon="3.18336">
        <ele>9</ele>
        <time>2024-09-20T14:48:05.832Z</time>
      </trkpt>
      <trkpt lat="43.19828" lon="3.18333">
        <ele>9</ele>
        <time>2024-09-20T14:48:09.832Z</time>
      </trkpt>
      <trkpt lat="43.1983" lon="3.18327">
        <ele>9</ele>
        <time>2024-09-20T14:48:13.832Z</time>
      </trkpt>
      <trkpt lat="43.19835" lon="3.18321">
        <ele>9</ele>
        <time>2024-09-20T14:48:18.832Z</time>
      </trkpt>
      <trkpt lat="43.19838" lon="3.18317">
        <ele>10</ele>
        <time>2024-09-20T14:48:23.832Z</time>
      </trkpt>
      <trkpt lat="43.19841" lon="3.18313">
        <ele>10</ele>
        <time>2024-09-20T14:48:28.832Z</time>
      </trkpt>
      <trkpt lat="43.19846" lon="3.18307">
        <ele>10</ele>
        <time>2024-09-20T14:48:33.832Z</time>
      </trkpt>
      <trkpt lat="43.19849" lon="3.18301">
        <ele>10</ele>
        <time>2024-09-20T14:48:38.832Z</time>
      </trkpt>
      <trkpt lat="43.19852" lon="3.18298">
        <ele>10</ele>
        <time>2024-09-20T14:48:42.832Z</time>
      </trkpt>
      <trkpt lat="43.19855" lon="3.18293">
        <ele>10</ele>
        <time>2024-09-20T14:48:46.832Z</time>
      </trkpt>
      <trkpt lat="43.19858" lon="3.18287">
        <ele>11</ele>
        <time>2024-09-20T14:48:51.832Z</time>
      </trkpt>
      <trkpt lat="43.1986" lon="3.18282">
        <ele>11</ele>
        <time>2024-09-20T14:48:56.832Z</time>
      </trkpt>
      <trkpt lat="43.19864" lon="3.18277">
        <ele>11</ele>
        <time>2024-09-20T14:49:01.832Z</time>
      </trkpt>
      <trkpt lat="43.19867" lon="3.18271">
        <ele>11</ele>
        <time>2024-09-20T14:49:05.832Z</time>
      </trkpt>
      <trkpt lat="43.1987" lon="3.18268">
        <ele>11</ele>
        <time>2024-09-20T14:49:09.832Z</time>
      </trkpt>
      <trkpt lat="43.19874" lon="3.18263">
        <ele>10</ele>
        <time>2024-09-20T14:49:14.832Z</time>
      </trkpt>
      <trkpt lat="43.19877" lon="3.18257">
        <ele>14</ele>
        <time>2024-09-20T14:49:18.832Z</time>
      </trkpt>
      <trkpt lat="43.1988" lon="3.18252">
        <ele>14</ele>
        <time>2024-09-20T14:49:23.832Z</time>
      </trkpt>
      <trkpt lat="43.19883" lon="3.18249">
        <ele>14</ele>
        <time>2024-09-20T14:49:27.832Z</time>
      </trkpt>
      <trkpt lat="43.19887" lon="3.18243">
        <ele>14</ele>
        <time>2024-09-20T14:49:32.832Z</time>
      </trkpt>
      <trkpt lat="43.1989" lon="3.18239">
        <ele>14</ele>
        <time>2024-09-20T14:49:36.832Z</time>
      </trkpt>
      <trkpt lat="43.19894" lon="3.18234">
        <ele>12</ele>
        <time>2024-09-20T14:49:41.832Z</time>
      </trkpt>
      <trkpt lat="43.19896" lon="3.18229">
        <ele>12</ele>
        <time>2024-09-20T14:49:45.832Z</time>
      </trkpt>
      <trkpt lat="43.19899" lon="3.18224">
        <ele>12</ele>
        <time>2024-09-20T14:49:50.832Z</time>
      </trkpt>
      <trkpt lat="43.19902" lon="3.18219">
        <ele>12</ele>
        <time>2024-09-20T14:49:54.832Z</time>
      </trkpt>
      <trkpt lat="43.19906" lon="3.18214">
        <ele>16</ele>
        <time>2024-09-20T14:49:58.832Z</time>
      </trkpt>
      <trkpt lat="43.19911" lon="3.1821">
        <ele>16</ele>
        <time>2024-09-20T14:50:03.832Z</time>
      </trkpt>
      <trkpt lat="43.19915" lon="3.18206">
        <ele>15</ele>
        <time>2024-09-20T14:50:08.832Z</time>
      </trkpt>
      <trkpt lat="43.19917" lon="3.18202">
        <ele>15</ele>
        <time>2024-09-20T14:50:12.832Z</time>
      </trkpt>
      <trkpt lat="43.1992" lon="3.18196">
        <ele>15</ele>
        <time>2024-09-20T14:50:17.832Z</time>
      </trkpt>
      <trkpt lat="43.19924" lon="3.1819">
        <ele>15</ele>
        <time>2024-09-20T14:50:22.832Z</time>
      </trkpt>
      <trkpt lat="43.19928" lon="3.18184">
        <ele>15</ele>
        <time>2024-09-20T14:50:27.832Z</time>
      </trkpt>
      <trkpt lat="43.19931" lon="3.18179">
        <ele>16</ele>
        <time>2024-09-20T14:50:31.832Z</time>
      </trkpt>
      <trkpt lat="43.19936" lon="3.18174">
        <ele>16</ele>
        <time>2024-09-20T14:50:36.832Z</time>
      </trkpt>
      <trkpt lat="43.19939" lon="3.18172">
        <ele>16</ele>
        <time>2024-09-20T14:50:41.832Z</time>
      </trkpt>
      <trkpt lat="43.19944" lon="3.18166">
        <ele>16</ele>
        <time>2024-09-20T14:50:46.832Z</time>
      </trkpt>
      <trkpt lat="43.19948" lon="3.1816">
        <ele>16</ele>
        <time>2024-09-20T14:50:50.832Z</time>
      </trkpt>
      <trkpt lat="43.19951" lon="3.18155">
        <ele>16</ele>
        <time>2024-09-20T14:50:55.832Z</time>
      </trkpt>
      <trkpt lat="43.19955" lon="3.18148">
        <ele>15</ele>
        <time>2024-09-20T14:51:00.832Z</time>
      </trkpt>
      <trkpt lat="43.19956" lon="3.18143">
        <ele>15</ele>
        <time>2024-09-20T14:51:04.832Z</time>
      </trkpt>
      <trkpt lat="43.19957" lon="3.18136">
        <ele>15</ele>
        <time>2024-09-20T14:51:08.832Z</time>
      </trkpt>
      <trkpt lat="43.19956" lon="3.18127">
        <ele>15</ele>
        <time>2024-09-20T14:51:13.832Z</time>
      </trkpt>
      <trkpt lat="43.19955" lon="3.18122">
        <ele>15</ele>
        <time>2024-09-20T14:51:17.832Z</time>
      </trkpt>
      <trkpt lat="43.19953" lon="3.18118">
        <ele>15</ele>
        <time>2024-09-20T14:51:21.832Z</time>
      </trkpt>
      <trkpt lat="43.19951" lon="3.18111">
        <ele>15</ele>
        <time>2024-09-20T14:51:26.832Z</time>
      </trkpt>
      <trkpt lat="43.1995" lon="3.18106">
        <ele>15</ele>
        <time>2024-09-20T14:51:30.832Z</time>
      </trkpt>
      <trkpt lat="43.1995" lon="3.18102">
        <ele>15</ele>
        <time>2024-09-20T14:51:34.832Z</time>
      </trkpt>
      <trkpt lat="43.19952" lon="3.18097">
        <ele>16</ele>
        <time>2024-09-20T14:51:38.832Z</time>
      </trkpt>
      <trkpt lat="43.19953" lon="3.1809">
        <ele>16</ele>
        <time>2024-09-20T14:51:47.832Z</time>
      </trkpt>
      <trkpt lat="43.19953" lon="3.1809">
        <ele>16</ele>
        <time>2024-09-20T14:51:52.832Z</time>
      </trkpt>
      <trkpt lat="43.19955" lon="3.18089">
        <ele>16</ele>
        <time>2024-09-20T14:52:06.832Z</time>
      </trkpt>
      <trkpt lat="43.19959" lon="3.18087">
        <ele>17</ele>
        <time>2024-09-20T14:52:11.832Z</time>
      </trkpt>
      <trkpt lat="43.19961" lon="3.18085">
        <ele>17</ele>
        <time>2024-09-20T14:52:15.832Z</time>
      </trkpt>
      <trkpt lat="43.19967" lon="3.18081">
        <ele>17</ele>
        <time>2024-09-20T14:52:20.832Z</time>
      </trkpt>
      <trkpt lat="43.19971" lon="3.18078">
        <ele>17</ele>
        <time>2024-09-20T14:52:25.832Z</time>
      </trkpt>
      <trkpt lat="43.19975" lon="3.18072">
        <ele>17</ele>
        <time>2024-09-20T14:52:30.832Z</time>
      </trkpt>
      <trkpt lat="43.19978" lon="3.18066">
        <ele>18</ele>
        <time>2024-09-20T14:52:34.832Z</time>
      </trkpt>
      <trkpt lat="43.19981" lon="3.18061">
        <ele>18</ele>
        <time>2024-09-20T14:52:39.832Z</time>
      </trkpt>
      <trkpt lat="43.19984" lon="3.18055">
        <ele>18</ele>
        <time>2024-09-20T14:52:44.832Z</time>
      </trkpt>
      <trkpt lat="43.19986" lon="3.1805">
        <ele>17</ele>
        <time>2024-09-20T14:52:48.832Z</time>
      </trkpt>
      <trkpt lat="43.19989" lon="3.18044">
        <ele>17</ele>
        <time>2024-09-20T14:52:53.832Z</time>
      </trkpt>
      <trkpt lat="43.19992" lon="3.18038">
        <ele>20</ele>
        <time>2024-09-20T14:52:58.832Z</time>
      </trkpt>
      <trkpt lat="43.19994" lon="3.18032">
        <ele>20</ele>
        <time>2024-09-20T14:53:03.832Z</time>
      </trkpt>
      <trkpt lat="43.19996" lon="3.18025">
        <ele>20</ele>
        <time>2024-09-20T14:53:08.832Z</time>
      </trkpt>
      <trkpt lat="43.19997" lon="3.18019">
        <ele>20</ele>
        <time>2024-09-20T14:53:13.832Z</time>
      </trkpt>
      <trkpt lat="43.19999" lon="3.18015">
        <ele>20</ele>
        <time>2024-09-20T14:53:17.832Z</time>
      </trkpt>
      <trkpt lat="43.20002" lon="3.18009">
        <ele>23</ele>
        <time>2024-09-20T14:53:22.832Z</time>
      </trkpt>
      <trkpt lat="43.20004" lon="3.18004">
        <ele>23</ele>
        <time>2024-09-20T14:53:26.832Z</time>
      </trkpt>
      <trkpt lat="43.20007" lon="3.18">
        <ele>23</ele>
        <time>2024-09-20T14:53:31.832Z</time>
      </trkpt>
      <trkpt lat="43.20013" lon="3.17993">
        <ele>23</ele>
        <time>2024-09-20T14:53:36.832Z</time>
      </trkpt>
      <trkpt lat="43.20016" lon="3.1799">
        <ele>24</ele>
        <time>2024-09-20T14:53:41.832Z</time>
      </trkpt>
      <trkpt lat="43.2002" lon="3.17987">
        <ele>24</ele>
        <time>2024-09-20T14:53:46.832Z</time>
      </trkpt>
      <trkpt lat="43.20023" lon="3.17986">
        <ele>26</ele>
        <time>2024-09-20T14:53:50.832Z</time>
      </trkpt>
      <trkpt lat="43.20027" lon="3.17984">
        <ele>26</ele>
        <time>2024-09-20T14:53:55.832Z</time>
      </trkpt>
      <trkpt lat="43.20032" lon="3.17986">
        <ele>26</ele>
        <time>2024-09-20T14:54:00.832Z</time>
      </trkpt>
      <trkpt lat="43.20036" lon="3.17984">
        <ele>26</ele>
        <time>2024-09-20T14:54:04.832Z</time>
      </trkpt>
      <trkpt lat="43.20041" lon="3.17981">
        <ele>26</ele>
        <time>2024-09-20T14:54:08.832Z</time>
      </trkpt>
      <trkpt lat="43.20045" lon="3.17978">
        <ele>25</ele>
        <time>2024-09-20T14:54:13.832Z</time>
      </trkpt>
      <trkpt lat="43.20049" lon="3.17972">
        <ele>25</ele>
        <time>2024-09-20T14:54:18.832Z</time>
      </trkpt>
      <trkpt lat="43.20053" lon="3.17968">
        <ele>25</ele>
        <time>2024-09-20T14:54:22.832Z</time>
      </trkpt>
      <trkpt lat="43.20056" lon="3.17964">
        <ele>25</ele>
        <time>2024-09-20T14:54:27.832Z</time>
      </trkpt>
      <trkpt lat="43.2006" lon="3.1796">
        <ele>25</ele>
        <time>2024-09-20T14:54:31.832Z</time>
      </trkpt>
      <trkpt lat="43.20064" lon="3.17958">
        <ele>29</ele>
        <time>2024-09-20T14:54:36.832Z</time>
      </trkpt>
      <trkpt lat="43.20068" lon="3.17954">
        <ele>29</ele>
        <time>2024-09-20T14:54:41.832Z</time>
      </trkpt>
      <trkpt lat="43.20072" lon="3.1795">
        <ele>30</ele>
        <time>2024-09-20T14:54:46.832Z</time>
      </trkpt>
      <trkpt lat="43.20077" lon="3.17944">
        <ele>30</ele>
        <time>2024-09-20T14:54:51.832Z</time>
      </trkpt>
      <trkpt lat="43.2008" lon="3.17942">
        <ele>30</ele>
        <time>2024-09-20T14:54:55.832Z</time>
      </trkpt>
      <trkpt lat="43.20083" lon="3.1794">
        <ele>30</ele>
        <time>2024-09-20T14:55:00.832Z</time>
      </trkpt>
      <trkpt lat="43.20087" lon="3.17939">
        <ele>30</ele>
        <time>2024-09-20T14:55:05.832Z</time>
      </trkpt>
      <trkpt lat="43.2009" lon="3.1794">
        <ele>30</ele>
        <time>2024-09-20T14:55:09.832Z</time>
      </trkpt>
      <trkpt lat="43.20094" lon="3.1794">
        <ele>30</ele>
        <time>2024-09-20T14:55:13.832Z</time>
      </trkpt>
      <trkpt lat="43.20101" lon="3.17945">
        <ele>33</ele>
        <time>2024-09-20T14:55:18.832Z</time>
      </trkpt>
      <trkpt lat="43.20106" lon="3.17948">
        <ele>33</ele>
        <time>2024-09-20T14:55:23.832Z</time>
      </trkpt>
      <trkpt lat="43.2011" lon="3.1795">
        <ele>33</ele>
        <time>2024-09-20T14:55:27.832Z</time>
      </trkpt>
      <trkpt lat="43.20114" lon="3.17952">
        <ele>33</ele>
        <time>2024-09-20T14:55:32.832Z</time>
      </trkpt>
      <trkpt lat="43.20118" lon="3.17953">
        <ele>33</ele>
        <time>2024-09-20T14:55:36.832Z</time>
      </trkpt>
      <trkpt lat="43.20123" lon="3.17952">
        <ele>33</ele>
        <time>2024-09-20T14:55:41.832Z</time>
      </trkpt>
      <trkpt lat="43.20127" lon="3.17953">
        <ele>34</ele>
        <time>2024-09-20T14:55:45.832Z</time>
      </trkpt>
      <trkpt lat="43.20132" lon="3.1795">
        <ele>34</ele>
        <time>2024-09-20T14:55:50.832Z</time>
      </trkpt>
      <trkpt lat="43.20135" lon="3.17947">
        <ele>34</ele>
        <time>2024-09-20T14:55:54.832Z</time>
      </trkpt>
      <trkpt lat="43.20138" lon="3.17942">
        <ele>34</ele>
        <time>2024-09-20T14:55:59.832Z</time>
      </trkpt>
      <trkpt lat="43.20138" lon="3.17935">
        <ele>34</ele>
        <time>2024-09-20T14:56:04.832Z</time>
      </trkpt>
      <trkpt lat="43.20138" lon="3.17929">
        <ele>35</ele>
        <time>2024-09-20T14:56:09.832Z</time>
      </trkpt>
      <trkpt lat="43.20139" lon="3.17922">
        <ele>35</ele>
        <time>2024-09-20T14:56:14.832Z</time>
      </trkpt>
      <trkpt lat="43.20138" lon="3.17918">
        <ele>35</ele>
        <time>2024-09-20T14:56:18.832Z</time>
      </trkpt>
      <trkpt lat="43.20137" lon="3.17911">
        <ele>35</ele>
        <time>2024-09-20T14:56:23.832Z</time>
      </trkpt>
      <trkpt lat="43.20135" lon="3.17907">
        <ele>35</ele>
        <time>2024-09-20T14:56:27.832Z</time>
      </trkpt>
      <trkpt lat="43.20132" lon="3.17902">
        <ele>36</ele>
        <time>2024-09-20T14:56:32.832Z</time>
      </trkpt>
      <trkpt lat="43.20129" lon="3.17897">
        <ele>36</ele>
        <time>2024-09-20T14:56:36.832Z</time>
      </trkpt>
      <trkpt lat="43.20126" lon="3.17891">
        <ele>36</ele>
        <time>2024-09-20T14:56:41.832Z</time>
      </trkpt>
      <trkpt lat="43.20124" lon="3.17885">
        <ele>40</ele>
        <time>2024-09-20T14:56:46.832Z</time>
      </trkpt>
      <trkpt lat="43.20123" lon="3.17879">
        <ele>40</ele>
        <time>2024-09-20T14:56:51.832Z</time>
      </trkpt>
      <trkpt lat="43.20122" lon="3.17874">
        <ele>42</ele>
        <time>2024-09-20T14:56:55.832Z</time>
      </trkpt>
      <trkpt lat="43.2012" lon="3.17868">
        <ele>42</ele>
        <time>2024-09-20T14:57:00.832Z</time>
      </trkpt>
      <trkpt lat="43.20119" lon="3.17862">
        <ele>42</ele>
        <time>2024-09-20T14:57:05.832Z</time>
      </trkpt>
      <trkpt lat="43.20118" lon="3.17856">
        <ele>42</ele>
        <time>2024-09-20T14:57:09.832Z</time>
      </trkpt>
      <trkpt lat="43.20116" lon="3.17849">
        <ele>42</ele>
        <time>2024-09-20T14:57:14.832Z</time>
      </trkpt>
      <trkpt lat="43.20115" lon="3.17842">
        <ele>42</ele>
        <time>2024-09-20T14:57:19.832Z</time>
      </trkpt>
      <trkpt lat="43.20113" lon="3.17836">
        <ele>42</ele>
        <time>2024-09-20T14:57:24.832Z</time>
      </trkpt>
      <trkpt lat="43.20113" lon="3.1783">
        <ele>42</ele>
        <time>2024-09-20T14:57:29.832Z</time>
      </trkpt>
      <trkpt lat="43.20113" lon="3.17824">
        <ele>42</ele>
        <time>2024-09-20T14:57:33.832Z</time>
      </trkpt>
      <trkpt lat="43.20112" lon="3.17816">
        <ele>43</ele>
        <time>2024-09-20T14:57:38.832Z</time>
      </trkpt>
      <trkpt lat="43.20112" lon="3.17812">
        <ele>43</ele>
        <time>2024-09-20T14:57:42.832Z</time>
      </trkpt>
      <trkpt lat="43.20113" lon="3.17804">
        <ele>43</ele>
        <time>2024-09-20T14:57:47.832Z</time>
      </trkpt>
      <trkpt lat="43.20112" lon="3.17797">
        <ele>43</ele>
        <time>2024-09-20T14:57:52.832Z</time>
      </trkpt>
      <trkpt lat="43.20112" lon="3.17793">
        <ele>43</ele>
        <time>2024-09-20T14:57:56.832Z</time>
      </trkpt>
      <trkpt lat="43.20113" lon="3.17786">
        <ele>45</ele>
        <time>2024-09-20T14:58:01.832Z</time>
      </trkpt>
      <trkpt lat="43.20114" lon="3.1778">
        <ele>45</ele>
        <time>2024-09-20T14:58:05.832Z</time>
      </trkpt>
      <trkpt lat="43.20113" lon="3.17775">
        <ele>45</ele>
        <time>2024-09-20T14:58:09.832Z</time>
      </trkpt>
      <trkpt lat="43.20112" lon="3.17768">
        <ele>45</ele>
        <time>2024-09-20T14:58:14.832Z</time>
      </trkpt>
      <trkpt lat="43.20112" lon="3.17762">
        <ele>47</ele>
        <time>2024-09-20T14:58:19.832Z</time>
      </trkpt>
      <trkpt lat="43.20112" lon="3.17757">
        <ele>47</ele>
        <time>2024-09-20T14:58:23.832Z</time>
      </trkpt>
      <trkpt lat="43.20111" lon="3.17749">
        <ele>47</ele>
        <time>2024-09-20T14:58:28.832Z</time>
      </trkpt>
      <trkpt lat="43.2011" lon="3.17743">
        <ele>47</ele>
        <time>2024-09-20T14:58:33.832Z</time>
      </trkpt>
      <trkpt lat="43.2011" lon="3.17739">
        <ele>47</ele>
        <time>2024-09-20T14:58:37.832Z</time>
      </trkpt>
      <trkpt lat="43.2011" lon="3.17733">
        <ele>48</ele>
        <time>2024-09-20T14:58:42.832Z</time>
      </trkpt>
      <trkpt lat="43.2011" lon="3.17726">
        <ele>48</ele>
        <time>2024-09-20T14:58:47.832Z</time>
      </trkpt>
      <trkpt lat="43.20108" lon="3.17721">
        <ele>48</ele>
        <time>2024-09-20T14:58:51.832Z</time>
      </trkpt>
      <trkpt lat="43.20106" lon="3.17715">
        <ele>48</ele>
        <time>2024-09-20T14:58:56.832Z</time>
      </trkpt>
      <trkpt lat="43.20105" lon="3.17707">
        <ele>48</ele>
        <time>2024-09-20T14:59:01.832Z</time>
      </trkpt>
      <trkpt lat="43.20105" lon="3.17701">
        <ele>48</ele>
        <time>2024-09-20T14:59:06.832Z</time>
      </trkpt>
      <trkpt lat="43.20104" lon="3.17694">
        <ele>48</ele>
        <time>2024-09-20T14:59:11.832Z</time>
      </trkpt>
      <trkpt lat="43.20102" lon="3.17688">
        <ele>48</ele>
        <time>2024-09-20T14:59:15.832Z</time>
      </trkpt>
      <trkpt lat="43.20098" lon="3.17681">
        <ele>48</ele>
        <time>2024-09-20T14:59:20.832Z</time>
      </trkpt>
      <trkpt lat="43.20095" lon="3.17675">
        <ele>49</ele>
        <time>2024-09-20T14:59:25.832Z</time>
      </trkpt>
      <trkpt lat="43.20093" lon="3.17671">
        <ele>49</ele>
        <time>2024-09-20T14:59:30.832Z</time>
      </trkpt>
      <trkpt lat="43.2009" lon="3.17664">
        <ele>49</ele>
        <time>2024-09-20T14:59:35.832Z</time>
      </trkpt>
      <trkpt lat="43.20088" lon="3.17658">
        <ele>49</ele>
        <time>2024-09-20T14:59:39.832Z</time>
      </trkpt>
      <trkpt lat="43.20085" lon="3.17653">
        <ele>49</ele>
        <time>2024-09-20T14:59:44.832Z</time>
      </trkpt>
      <trkpt lat="43.20083" lon="3.17647">
        <ele>49</ele>
        <time>2024-09-20T14:59:48.832Z</time>
      </trkpt>
      <trkpt lat="43.20081" lon="3.1764">
        <ele>49</ele>
        <time>2024-09-20T14:59:53.832Z</time>
      </trkpt>
      <trkpt lat="43.2008" lon="3.17636">
        <ele>49</ele>
        <time>2024-09-20T14:59:57.832Z</time>
      </trkpt>
      <trkpt lat="43.20079" lon="3.17627">
        <ele>49</ele>
        <time>2024-09-20T15:00:02.832Z</time>
      </trkpt>
      <trkpt lat="43.20078" lon="3.17623">
        <ele>49</ele>
        <time>2024-09-20T15:00:06.832Z</time>
      </trkpt>
      <trkpt lat="43.20077" lon="3.17615">
        <ele>49</ele>
        <time>2024-09-20T15:00:11.832Z</time>
      </trkpt>
      <trkpt lat="43.20077" lon="3.17606">
        <ele>49</ele>
        <time>2024-09-20T15:00:16.832Z</time>
      </trkpt>
      <trkpt lat="43.20076" lon="3.176">
        <ele>49</ele>
        <time>2024-09-20T15:00:21.832Z</time>
      </trkpt>
      <trkpt lat="43.20076" lon="3.17593">
        <ele>51</ele>
        <time>2024-09-20T15:00:25.832Z</time>
      </trkpt>
      <trkpt lat="43.20075" lon="3.17589">
        <ele>51</ele>
        <time>2024-09-20T15:00:29.832Z</time>
      </trkpt>
      <trkpt lat="43.20076" lon="3.17582">
        <ele>51</ele>
        <time>2024-09-20T15:00:33.832Z</time>
      </trkpt>
      <trkpt lat="43.20076" lon="3.17574">
        <ele>51</ele>
        <time>2024-09-20T15:00:38.832Z</time>
      </trkpt>
      <trkpt lat="43.20077" lon="3.17568">
        <ele>49</ele>
        <time>2024-09-20T15:00:43.832Z</time>
      </trkpt>
      <trkpt lat="43.20077" lon="3.17558">
        <ele>49</ele>
        <time>2024-09-20T15:00:48.832Z</time>
      </trkpt>
      <trkpt lat="43.20076" lon="3.17553">
        <ele>49</ele>
        <time>2024-09-20T15:00:52.832Z</time>
      </trkpt>
      <trkpt lat="43.20076" lon="3.17545">
        <ele>49</ele>
        <time>2024-09-20T15:00:57.832Z</time>
      </trkpt>
      <trkpt lat="43.20076" lon="3.17537">
        <ele>48</ele>
        <time>2024-09-20T15:01:02.832Z</time>
      </trkpt>
      <trkpt lat="43.20076" lon="3.17531">
        <ele>48</ele>
        <time>2024-09-20T15:01:07.832Z</time>
      </trkpt>
      <trkpt lat="43.20076" lon="3.17524">
        <ele>48</ele>
        <time>2024-09-20T15:01:11.832Z</time>
      </trkpt>
      <trkpt lat="43.20076" lon="3.17517">
        <ele>48</ele>
        <time>2024-09-20T15:01:16.832Z</time>
      </trkpt>
      <trkpt lat="43.20076" lon="3.17509">
        <ele>47</ele>
        <time>2024-09-20T15:01:21.832Z</time>
      </trkpt>
      <trkpt lat="43.20076" lon="3.175">
        <ele>47</ele>
        <time>2024-09-20T15:01:26.832Z</time>
      </trkpt>
      <trkpt lat="43.20076" lon="3.17494">
        <ele>47</ele>
        <time>2024-09-20T15:01:31.832Z</time>
      </trkpt>
      <trkpt lat="43.20075" lon="3.17485">
        <ele>47</ele>
        <time>2024-09-20T15:01:36.832Z</time>
      </trkpt>
      <trkpt lat="43.20074" lon="3.1748">
        <ele>47</ele>
        <time>2024-09-20T15:01:40.832Z</time>
      </trkpt>
      <trkpt lat="43.20074" lon="3.17471">
        <ele>47</ele>
        <time>2024-09-20T15:01:45.832Z</time>
      </trkpt>
      <trkpt lat="43.20074" lon="3.17464">
        <ele>47</ele>
        <time>2024-09-20T15:01:50.832Z</time>
      </trkpt>
      <trkpt lat="43.20074" lon="3.17457">
        <ele>47</ele>
        <time>2024-09-20T15:01:55.832Z</time>
      </trkpt>
      <trkpt lat="43.20075" lon="3.17448">
        <ele>47</ele>
        <time>2024-09-20T15:02:00.832Z</time>
      </trkpt>
      <trkpt lat="43.20075" lon="3.17444">
        <ele>47</ele>
        <time>2024-09-20T15:02:04.832Z</time>
      </trkpt>
      <trkpt lat="43.20076" lon="3.17435">
        <ele>47</ele>
        <time>2024-09-20T15:02:09.832Z</time>
      </trkpt>
      <trkpt lat="43.20077" lon="3.17429">
        <ele>47</ele>
        <time>2024-09-20T15:02:14.832Z</time>
      </trkpt>
      <trkpt lat="43.20078" lon="3.17423">
        <ele>47</ele>
        <time>2024-09-20T15:02:19.832Z</time>
      </trkpt>
      <trkpt lat="43.20081" lon="3.17414">
        <ele>47</ele>
        <time>2024-09-20T15:02:24.832Z</time>
      </trkpt>
      <trkpt lat="43.20082" lon="3.17406">
        <ele>47</ele>
        <time>2024-09-20T15:02:29.832Z</time>
      </trkpt>
      <trkpt lat="43.20084" lon="3.17402">
        <ele>47</ele>
        <time>2024-09-20T15:02:33.832Z</time>
      </trkpt>
      <trkpt lat="43.20085" lon="3.17393">
        <ele>47</ele>
        <time>2024-09-20T15:02:38.832Z</time>
      </trkpt>
      <trkpt lat="43.20084" lon="3.1739">
        <ele>47</ele>
        <time>2024-09-20T15:02:42.832Z</time>
      </trkpt>
      <trkpt lat="43.20086" lon="3.17379">
        <ele>47</ele>
        <time>2024-09-20T15:02:47.832Z</time>
      </trkpt>
      <trkpt lat="43.20086" lon="3.17375">
        <ele>48</ele>
        <time>2024-09-20T15:02:51.832Z</time>
      </trkpt>
      <trkpt lat="43.20086" lon="3.17368">
        <ele>48</ele>
        <time>2024-09-20T15:02:55.832Z</time>
      </trkpt>
      <trkpt lat="43.20085" lon="3.17362">
        <ele>48</ele>
        <time>2024-09-20T15:02:59.832Z</time>
      </trkpt>
      <trkpt lat="43.20087" lon="3.17357">
        <ele>48</ele>
        <time>2024-09-20T15:03:03.832Z</time>
      </trkpt>
      <trkpt lat="43.2009" lon="3.17352">
        <ele>48</ele>
        <time>2024-09-20T15:03:07.832Z</time>
      </trkpt>
      <trkpt lat="43.20093" lon="3.17347">
        <ele>49</ele>
        <time>2024-09-20T15:03:12.832Z</time>
      </trkpt>
      <trkpt lat="43.20095" lon="3.17339">
        <ele>49</ele>
        <time>2024-09-20T15:03:16.832Z</time>
      </trkpt>
      <trkpt lat="43.20095" lon="3.17334">
        <ele>49</ele>
        <time>2024-09-20T15:03:21.832Z</time>
      </trkpt>
      <trkpt lat="43.20096" lon="3.17326">
        <ele>49</ele>
        <time>2024-09-20T15:03:25.832Z</time>
      </trkpt>
      <trkpt lat="43.20097" lon="3.17321">
        <ele>49</ele>
        <time>2024-09-20T15:03:30.832Z</time>
      </trkpt>
      <trkpt lat="43.20099" lon="3.17314">
        <ele>44</ele>
        <time>2024-09-20T15:03:34.832Z</time>
      </trkpt>
      <trkpt lat="43.20098" lon="3.17307">
        <ele>44</ele>
        <time>2024-09-20T15:03:39.832Z</time>
      </trkpt>
      <trkpt lat="43.20098" lon="3.17299">
        <ele>44</ele>
        <time>2024-09-20T15:03:44.832Z</time>
      </trkpt>
      <trkpt lat="43.20097" lon="3.1729">
        <ele>47</ele>
        <time>2024-09-20T15:03:49.832Z</time>
      </trkpt>
      <trkpt lat="43.20096" lon="3.17286">
        <ele>47</ele>
        <time>2024-09-20T15:03:53.832Z</time>
      </trkpt>
      <trkpt lat="43.20094" lon="3.17277">
        <ele>47</ele>
        <time>2024-09-20T15:03:58.832Z</time>
      </trkpt>
      <trkpt lat="43.20093" lon="3.1727">
        <ele>47</ele>
        <time>2024-09-20T15:04:03.832Z</time>
      </trkpt>
      <trkpt lat="43.20089" lon="3.17264">
        <ele>47</ele>
        <time>2024-09-20T15:04:08.832Z</time>
      </trkpt>
      <trkpt lat="43.20088" lon="3.17257">
        <ele>47</ele>
        <time>2024-09-20T15:04:12.832Z</time>
      </trkpt>
      <trkpt lat="43.20087" lon="3.17253">
        <ele>47</ele>
        <time>2024-09-20T15:04:17.832Z</time>
      </trkpt>
      <trkpt lat="43.20084" lon="3.17244">
        <ele>47</ele>
        <time>2024-09-20T15:04:22.832Z</time>
      </trkpt>
      <trkpt lat="43.20083" lon="3.17237">
        <ele>47</ele>
        <time>2024-09-20T15:04:27.832Z</time>
      </trkpt>
      <trkpt lat="43.20083" lon="3.1723">
        <ele>47</ele>
        <time>2024-09-20T15:04:32.832Z</time>
      </trkpt>
      <trkpt lat="43.20081" lon="3.17221">
        <ele>47</ele>
        <time>2024-09-20T15:04:37.832Z</time>
      </trkpt>
      <trkpt lat="43.2008" lon="3.17217">
        <ele>47</ele>
        <time>2024-09-20T15:04:41.832Z</time>
      </trkpt>
      <trkpt lat="43.20079" lon="3.17208">
        <ele>47</ele>
        <time>2024-09-20T15:04:46.832Z</time>
      </trkpt>
      <trkpt lat="43.20078" lon="3.17203">
        <ele>47</ele>
        <time>2024-09-20T15:04:51.832Z</time>
      </trkpt>
      <trkpt lat="43.20079" lon="3.17195">
        <ele>47</ele>
        <time>2024-09-20T15:04:56.832Z</time>
      </trkpt>
      <trkpt lat="43.20077" lon="3.17186">
        <ele>47</ele>
        <time>2024-09-20T15:05:01.832Z</time>
      </trkpt>
      <trkpt lat="43.20077" lon="3.17181">
        <ele>47</ele>
        <time>2024-09-20T15:05:06.832Z</time>
      </trkpt>
      <trkpt lat="43.20078" lon="3.17171">
        <ele>46</ele>
        <time>2024-09-20T15:05:11.832Z</time>
      </trkpt>
      <trkpt lat="43.20079" lon="3.17164">
        <ele>46</ele>
        <time>2024-09-20T15:05:16.832Z</time>
      </trkpt>
      <trkpt lat="43.20081" lon="3.17157">
        <ele>46</ele>
        <time>2024-09-20T15:05:21.832Z</time>
      </trkpt>
      <trkpt lat="43.20082" lon="3.1715">
        <ele>44</ele>
        <time>2024-09-20T15:05:26.832Z</time>
      </trkpt>
      <trkpt lat="43.20084" lon="3.17143">
        <ele>44</ele>
        <time>2024-09-20T15:05:31.832Z</time>
      </trkpt>
      <trkpt lat="43.20085" lon="3.17134">
        <ele>44</ele>
        <time>2024-09-20T15:05:36.832Z</time>
      </trkpt>
      <trkpt lat="43.20086" lon="3.17129">
        <ele>44</ele>
        <time>2024-09-20T15:05:40.832Z</time>
      </trkpt>
      <trkpt lat="43.20086" lon="3.1712">
        <ele>44</ele>
        <time>2024-09-20T15:05:45.832Z</time>
      </trkpt>
      <trkpt lat="43.20088" lon="3.17114">
        <ele>44</ele>
        <time>2024-09-20T15:05:50.832Z</time>
      </trkpt>
      <trkpt lat="43.20089" lon="3.17104">
        <ele>44</ele>
        <time>2024-09-20T15:05:55.832Z</time>
      </trkpt>
      <trkpt lat="43.20089" lon="3.17099">
        <ele>44</ele>
        <time>2024-09-20T15:06:00.832Z</time>
      </trkpt>
      <trkpt lat="43.20091" lon="3.1709">
        <ele>45</ele>
        <time>2024-09-20T15:06:04.832Z</time>
      </trkpt>
      <trkpt lat="43.20092" lon="3.17085">
        <ele>45</ele>
        <time>2024-09-20T15:06:09.832Z</time>
      </trkpt>
      <trkpt lat="43.20094" lon="3.17079">
        <ele>45</ele>
        <time>2024-09-20T15:06:13.832Z</time>
      </trkpt>
      <trkpt lat="43.20094" lon="3.17071">
        <ele>45</ele>
        <time>2024-09-20T15:06:18.832Z</time>
      </trkpt>
      <trkpt lat="43.20095" lon="3.17066">
        <ele>45</ele>
        <time>2024-09-20T15:06:22.832Z</time>
      </trkpt>
      <trkpt lat="43.20097" lon="3.17058">
        <ele>45</ele>
        <time>2024-09-20T15:06:27.832Z</time>
      </trkpt>
      <trkpt lat="43.20097" lon="3.17052">
        <ele>45</ele>
        <time>2024-09-20T15:06:32.832Z</time>
      </trkpt>
      <trkpt lat="43.20098" lon="3.17045">
        <ele>43</ele>
        <time>2024-09-20T15:06:37.832Z</time>
      </trkpt>
      <trkpt lat="43.20101" lon="3.17038">
        <ele>43</ele>
        <time>2024-09-20T15:06:42.832Z</time>
      </trkpt>
      <trkpt lat="43.20104" lon="3.17032">
        <ele>43</ele>
        <time>2024-09-20T15:06:47.832Z</time>
      </trkpt>
      <trkpt lat="43.20105" lon="3.17027">
        <ele>43</ele>
        <time>2024-09-20T15:06:51.832Z</time>
      </trkpt>
      <trkpt lat="43.20109" lon="3.17021">
        <ele>43</ele>
        <time>2024-09-20T15:06:56.832Z</time>
      </trkpt>
      <trkpt lat="43.20111" lon="3.17015">
        <ele>43</ele>
        <time>2024-09-20T15:07:01.832Z</time>
      </trkpt>
      <trkpt lat="43.20115" lon="3.17008">
        <ele>44</ele>
        <time>2024-09-20T15:07:06.832Z</time>
      </trkpt>
      <trkpt lat="43.20117" lon="3.17">
        <ele>44</ele>
        <time>2024-09-20T15:07:11.832Z</time>
      </trkpt>
      <trkpt lat="43.20119" lon="3.16996">
        <ele>44</ele>
        <time>2024-09-20T15:07:15.832Z</time>
      </trkpt>
      <trkpt lat="43.20122" lon="3.16988">
        <ele>44</ele>
        <time>2024-09-20T15:07:20.832Z</time>
      </trkpt>
      <trkpt lat="43.20124" lon="3.16981">
        <ele>46</ele>
        <time>2024-09-20T15:07:25.832Z</time>
      </trkpt>
      <trkpt lat="43.20126" lon="3.16976">
        <ele>42</ele>
        <time>2024-09-20T15:07:30.832Z</time>
      </trkpt>
      <trkpt lat="43.20128" lon="3.16971">
        <ele>42</ele>
        <time>2024-09-20T15:07:35.832Z</time>
      </trkpt>
      <trkpt lat="43.20126" lon="3.16971">
        <ele>42</ele>
        <time>2024-09-20T15:07:44.832Z</time>
      </trkpt>
      <trkpt lat="43.20126" lon="3.16972">
        <ele>42</ele>
        <time>2024-09-20T15:07:49.832Z</time>
      </trkpt>
      <trkpt lat="43.20128" lon="3.1697">
        <ele>42</ele>
        <time>2024-09-20T15:08:18.832Z</time>
      </trkpt>
      <trkpt lat="43.20129" lon="3.16962">
        <ele>42</ele>
        <time>2024-09-20T15:08:23.832Z</time>
      </trkpt>
      <trkpt lat="43.2013" lon="3.16957">
        <ele>43</ele>
        <time>2024-09-20T15:08:27.832Z</time>
      </trkpt>
      <trkpt lat="43.20132" lon="3.1695">
        <ele>43</ele>
        <time>2024-09-20T15:08:32.832Z</time>
      </trkpt>
      <trkpt lat="43.20133" lon="3.16947">
        <ele>43</ele>
        <time>2024-09-20T15:08:36.832Z</time>
      </trkpt>
      <trkpt lat="43.20135" lon="3.1694">
        <ele>43</ele>
        <time>2024-09-20T15:08:41.832Z</time>
      </trkpt>
      <trkpt lat="43.20136" lon="3.16938">
        <ele>43</ele>
        <time>2024-09-20T15:08:46.832Z</time>
      </trkpt>
      <trkpt lat="43.20136" lon="3.1693">
        <ele>44</ele>
        <time>2024-09-20T15:09:00.832Z</time>
      </trkpt>
      <trkpt lat="43.20136" lon="3.16929">
        <ele>44</ele>
        <time>2024-09-20T15:09:05.832Z</time>
      </trkpt>
      <trkpt lat="43.20138" lon="3.16923">
        <ele>44</ele>
        <time>2024-09-20T15:09:09.832Z</time>
      </trkpt>
      <trkpt lat="43.20141" lon="3.16918">
        <ele>44</ele>
        <time>2024-09-20T15:09:14.832Z</time>
      </trkpt>
      <trkpt lat="43.20143" lon="3.16914">
        <ele>44</ele>
        <time>2024-09-20T15:09:19.832Z</time>
      </trkpt>
      <trkpt lat="43.20148" lon="3.16906">
        <ele>44</ele>
        <time>2024-09-20T15:09:24.832Z</time>
      </trkpt>
      <trkpt lat="43.20149" lon="3.16902">
        <ele>43</ele>
        <time>2024-09-20T15:09:28.832Z</time>
      </trkpt>
      <trkpt lat="43.20152" lon="3.16897">
        <ele>43</ele>
        <time>2024-09-20T15:09:33.832Z</time>
      </trkpt>
      <trkpt lat="43.20154" lon="3.16893">
        <ele>41</ele>
        <time>2024-09-20T15:09:37.832Z</time>
      </trkpt>
      <trkpt lat="43.2016" lon="3.16882">
        <ele>41</ele>
        <time>2024-09-20T15:09:46.832Z</time>
      </trkpt>
      <trkpt lat="43.20161" lon="3.1688">
        <ele>41</ele>
        <time>2024-09-20T15:09:51.832Z</time>
      </trkpt>
      <trkpt lat="43.2016" lon="3.16879">
        <ele>41</ele>
        <time>2024-09-20T15:09:56.832Z</time>
      </trkpt>
      <trkpt lat="43.20161" lon="3.16877">
        <ele>41</ele>
        <time>2024-09-20T15:10:28.832Z</time>
      </trkpt>
      <trkpt lat="43.20164" lon="3.16873">
        <ele>40</ele>
        <time>2024-09-20T15:10:33.832Z</time>
      </trkpt>
      <trkpt lat="43.20171" lon="3.16867">
        <ele>40</ele>
        <time>2024-09-20T15:10:38.832Z</time>
      </trkpt>
      <trkpt lat="43.20175" lon="3.16864">
        <ele>40</ele>
        <time>2024-09-20T15:10:43.832Z</time>
      </trkpt>
      <trkpt lat="43.20181" lon="3.16861">
        <ele>39</ele>
        <time>2024-09-20T15:10:47.832Z</time>
      </trkpt>
      <trkpt lat="43.20185" lon="3.16858">
        <ele>39</ele>
        <time>2024-09-20T15:10:52.832Z</time>
      </trkpt>
      <trkpt lat="43.20191" lon="3.16855">
        <ele>39</ele>
        <time>2024-09-20T15:10:57.832Z</time>
      </trkpt>
      <trkpt lat="43.20195" lon="3.16852">
        <ele>39</ele>
        <time>2024-09-20T15:11:01.832Z</time>
      </trkpt>
      <trkpt lat="43.202" lon="3.16848">
        <ele>39</ele>
        <time>2024-09-20T15:11:06.832Z</time>
      </trkpt>
      <trkpt lat="43.20204" lon="3.16845">
        <ele>39</ele>
        <time>2024-09-20T15:11:10.832Z</time>
      </trkpt>
      <trkpt lat="43.20207" lon="3.16843">
        <ele>39</ele>
        <time>2024-09-20T15:11:15.832Z</time>
      </trkpt>
      <trkpt lat="43.20214" lon="3.16839">
        <ele>40</ele>
        <time>2024-09-20T15:11:20.832Z</time>
      </trkpt>
      <trkpt lat="43.20217" lon="3.16837">
        <ele>40</ele>
        <time>2024-09-20T15:11:24.832Z</time>
      </trkpt>
      <trkpt lat="43.20221" lon="3.16832">
        <ele>40</ele>
        <time>2024-09-20T15:11:29.832Z</time>
      </trkpt>
      <trkpt lat="43.20226" lon="3.16826">
        <ele>40</ele>
        <time>2024-09-20T15:11:34.832Z</time>
      </trkpt>
      <trkpt lat="43.20227" lon="3.16822">
        <ele>40</ele>
        <time>2024-09-20T15:11:38.832Z</time>
      </trkpt>
      <trkpt lat="43.20232" lon="3.16816">
        <ele>41</ele>
        <time>2024-09-20T15:11:42.832Z</time>
      </trkpt>
      <trkpt lat="43.20234" lon="3.1681">
        <ele>41</ele>
        <time>2024-09-20T15:11:47.832Z</time>
      </trkpt>
      <trkpt lat="43.2024" lon="3.16805">
        <ele>41</ele>
        <time>2024-09-20T15:11:51.832Z</time>
      </trkpt>
      <trkpt lat="43.20242" lon="3.16801">
        <ele>41</ele>
        <time>2024-09-20T15:11:56.832Z</time>
      </trkpt>
      <trkpt lat="43.20247" lon="3.16795">
        <ele>41</ele>
        <time>2024-09-20T15:12:00.832Z</time>
      </trkpt>
      <trkpt lat="43.2025" lon="3.16791">
        <ele>42</ele>
        <time>2024-09-20T15:12:05.832Z</time>
      </trkpt>
      <trkpt lat="43.20254" lon="3.16785">
        <ele>42</ele>
        <time>2024-09-20T15:12:09.832Z</time>
      </trkpt>
      <trkpt lat="43.20257" lon="3.16782">
        <ele>42</ele>
        <time>2024-09-20T15:12:14.832Z</time>
      </trkpt>
      <trkpt lat="43.20262" lon="3.16778">
        <ele>42</ele>
        <time>2024-09-20T15:12:18.832Z</time>
      </trkpt>
      <trkpt lat="43.20265" lon="3.16774">
        <ele>43</ele>
        <time>2024-09-20T15:12:23.832Z</time>
      </trkpt>
      <trkpt lat="43.2027" lon="3.16772">
        <ele>43</ele>
        <time>2024-09-20T15:12:27.832Z</time>
      </trkpt>
      <trkpt lat="43.20274" lon="3.16767">
        <ele>43</ele>
        <time>2024-09-20T15:12:32.832Z</time>
      </trkpt>
      <trkpt lat="43.20278" lon="3.16762">
        <ele>44</ele>
        <time>2024-09-20T15:12:37.832Z</time>
      </trkpt>
      <trkpt lat="43.20282" lon="3.16757">
        <ele>44</ele>
        <time>2024-09-20T15:12:42.832Z</time>
      </trkpt>
      <trkpt lat="43.20285" lon="3.16752">
        <ele>44</ele>
        <time>2024-09-20T15:12:47.832Z</time>
      </trkpt>
      <trkpt lat="43.20289" lon="3.16746">
        <ele>44</ele>
        <time>2024-09-20T15:12:52.832Z</time>
      </trkpt>
      <trkpt lat="43.20292" lon="3.16742">
        <ele>44</ele>
        <time>2024-09-20T15:12:56.832Z</time>
      </trkpt>
      <trkpt lat="43.20295" lon="3.16736">
        <ele>45</ele>
        <time>2024-09-20T15:13:01.832Z</time>
      </trkpt>
      <trkpt lat="43.20298" lon="3.16731">
        <ele>45</ele>
        <time>2024-09-20T15:13:05.832Z</time>
      </trkpt>
      <trkpt lat="43.20302" lon="3.16725">
        <ele>45</ele>
        <time>2024-09-20T15:13:10.832Z</time>
      </trkpt>
      <trkpt lat="43.20304" lon="3.16722">
        <ele>45</ele>
        <time>2024-09-20T15:13:14.832Z</time>
      </trkpt>
      <trkpt lat="43.20309" lon="3.16716">
        <ele>45</ele>
        <time>2024-09-20T15:13:19.832Z</time>
      </trkpt>
      <trkpt lat="43.20312" lon="3.16711">
        <ele>45</ele>
        <time>2024-09-20T15:13:24.832Z</time>
      </trkpt>
      <trkpt lat="43.20315" lon="3.16707">
        <ele>45</ele>
        <time>2024-09-20T15:13:29.832Z</time>
      </trkpt>
      <trkpt lat="43.20321" lon="3.16702">
        <ele>44</ele>
        <time>2024-09-20T15:13:34.832Z</time>
      </trkpt>
      <trkpt lat="43.20324" lon="3.16697">
        <ele>44</ele>
        <time>2024-09-20T15:13:39.832Z</time>
      </trkpt>
      <trkpt lat="43.20327" lon="3.16693">
        <ele>44</ele>
        <time>2024-09-20T15:13:43.832Z</time>
      </trkpt>
      <trkpt lat="43.2033" lon="3.16686">
        <ele>44</ele>
        <time>2024-09-20T15:13:48.832Z</time>
      </trkpt>
      <trkpt lat="43.20333" lon="3.16683">
        <ele>44</ele>
        <time>2024-09-20T15:13:52.832Z</time>
      </trkpt>
      <trkpt lat="43.20337" lon="3.16678">
        <ele>44</ele>
        <time>2024-09-20T15:13:56.832Z</time>
      </trkpt>
      <trkpt lat="43.2034" lon="3.16674">
        <ele>44</ele>
        <time>2024-09-20T15:14:01.832Z</time>
      </trkpt>
      <trkpt lat="43.20344" lon="3.1667">
        <ele>44</ele>
        <time>2024-09-20T15:14:06.832Z</time>
      </trkpt>
      <trkpt lat="43.2035" lon="3.16665">
        <ele>45</ele>
        <time>2024-09-20T15:14:11.832Z</time>
      </trkpt>
      <trkpt lat="43.20354" lon="3.1666">
        <ele>45</ele>
        <time>2024-09-20T15:14:16.832Z</time>
      </trkpt>
      <trkpt lat="43.20358" lon="3.16657">
        <ele>45</ele>
        <time>2024-09-20T15:14:21.832Z</time>
      </trkpt>
      <trkpt lat="43.20363" lon="3.16658">
        <ele>45</ele>
        <time>2024-09-20T15:14:25.832Z</time>
      </trkpt>
      <trkpt lat="43.20366" lon="3.16659">
        <ele>45</ele>
        <time>2024-09-20T15:14:29.832Z</time>
      </trkpt>
      <trkpt lat="43.20371" lon="3.16663">
        <ele>45</ele>
        <time>2024-09-20T15:14:34.832Z</time>
      </trkpt>
      <trkpt lat="43.20375" lon="3.16668">
        <ele>45</ele>
        <time>2024-09-20T15:14:38.832Z</time>
      </trkpt>
      <trkpt lat="43.20378" lon="3.16671">
        <ele>45</ele>
        <time>2024-09-20T15:14:43.832Z</time>
      </trkpt>
      <trkpt lat="43.20383" lon="3.16677">
        <ele>45</ele>
        <time>2024-09-20T15:14:47.832Z</time>
      </trkpt>
      <trkpt lat="43.20385" lon="3.16682">
        <ele>45</ele>
        <time>2024-09-20T15:14:52.832Z</time>
      </trkpt>
      <trkpt lat="43.20389" lon="3.16689">
        <ele>45</ele>
        <time>2024-09-20T15:14:57.832Z</time>
      </trkpt>
      <trkpt lat="43.2039" lon="3.16694">
        <ele>45</ele>
        <time>2024-09-20T15:15:01.832Z</time>
      </trkpt>
      <trkpt lat="43.20392" lon="3.16701">
        <ele>45</ele>
        <time>2024-09-20T15:15:06.832Z</time>
      </trkpt>
      <trkpt lat="43.2039" lon="3.1671">
        <ele>46</ele>
        <time>2024-09-20T15:15:11.832Z</time>
      </trkpt>
      <trkpt lat="43.20389" lon="3.16714">
        <ele>46</ele>
        <time>2024-09-20T15:15:15.832Z</time>
      </trkpt>
      <trkpt lat="43.20385" lon="3.1672">
        <ele>46</ele>
        <time>2024-09-20T15:15:19.832Z</time>
      </trkpt>
      <trkpt lat="43.20383" lon="3.16725">
        <ele>46</ele>
        <time>2024-09-20T15:15:24.832Z</time>
      </trkpt>
      <trkpt lat="43.20379" lon="3.16731">
        <ele>46</ele>
        <time>2024-09-20T15:15:29.832Z</time>
      </trkpt>
      <trkpt lat="43.20376" lon="3.16737">
        <ele>45</ele>
        <time>2024-09-20T15:15:34.832Z</time>
      </trkpt>
      <trkpt lat="43.20375" lon="3.16742">
        <ele>44</ele>
        <time>2024-09-20T15:15:38.832Z</time>
      </trkpt>
      <trkpt lat="43.20375" lon="3.16747">
        <ele>44</ele>
        <time>2024-09-20T15:15:42.832Z</time>
      </trkpt>
      <trkpt lat="43.20375" lon="3.16755">
        <ele>45</ele>
        <time>2024-09-20T15:15:47.832Z</time>
      </trkpt>
      <trkpt lat="43.20376" lon="3.16761">
        <ele>45</ele>
        <time>2024-09-20T15:15:51.832Z</time>
      </trkpt>
      <trkpt lat="43.20377" lon="3.16767">
        <ele>45</ele>
        <time>2024-09-20T15:15:56.832Z</time>
      </trkpt>
      <trkpt lat="43.20381" lon="3.16773">
        <ele>45</ele>
        <time>2024-09-20T15:16:01.832Z</time>
      </trkpt>
      <trkpt lat="43.20384" lon="3.16777">
        <ele>45</ele>
        <time>2024-09-20T15:16:05.832Z</time>
      </trkpt>
      <trkpt lat="43.20389" lon="3.1678">
        <ele>45</ele>
        <time>2024-09-20T15:16:09.832Z</time>
      </trkpt>
      <trkpt lat="43.20393" lon="3.1678">
        <ele>45</ele>
        <time>2024-09-20T15:16:14.832Z</time>
      </trkpt>
      <trkpt lat="43.20398" lon="3.16784">
        <ele>45</ele>
        <time>2024-09-20T15:16:19.832Z</time>
      </trkpt>
      <trkpt lat="43.20403" lon="3.16787">
        <ele>46</ele>
        <time>2024-09-20T15:16:24.832Z</time>
      </trkpt>
      <trkpt lat="43.20408" lon="3.16789">
        <ele>46</ele>
        <time>2024-09-20T15:16:29.832Z</time>
      </trkpt>
      <trkpt lat="43.20413" lon="3.16791">
        <ele>46</ele>
        <time>2024-09-20T15:16:34.832Z</time>
      </trkpt>
      <trkpt lat="43.20418" lon="3.16793">
        <ele>47</ele>
        <time>2024-09-20T15:16:39.832Z</time>
      </trkpt>
      <trkpt lat="43.20423" lon="3.16794">
        <ele>47</ele>
        <time>2024-09-20T15:16:43.832Z</time>
      </trkpt>
      <trkpt lat="43.20427" lon="3.16794">
        <ele>47</ele>
        <time>2024-09-20T15:16:48.832Z</time>
      </trkpt>
      <trkpt lat="43.20432" lon="3.16795">
        <ele>51</ele>
        <time>2024-09-20T15:16:53.832Z</time>
      </trkpt>
      <trkpt lat="43.20436" lon="3.168">
        <ele>51</ele>
        <time>2024-09-20T15:16:58.832Z</time>
      </trkpt>
      <trkpt lat="43.20438" lon="3.16808">
        <ele>51</ele>
        <time>2024-09-20T15:17:03.832Z</time>
      </trkpt>
      <trkpt lat="43.20439" lon="3.16813">
        <ele>51</ele>
        <time>2024-09-20T15:17:07.832Z</time>
      </trkpt>
      <trkpt lat="43.2044" lon="3.16821">
        <ele>52</ele>
        <time>2024-09-20T15:17:12.832Z</time>
      </trkpt>
      <trkpt lat="43.20439" lon="3.16828">
        <ele>52</ele>
        <time>2024-09-20T15:17:17.832Z</time>
      </trkpt>
      <trkpt lat="43.20438" lon="3.16836">
        <ele>52</ele>
        <time>2024-09-20T15:17:22.832Z</time>
      </trkpt>
      <trkpt lat="43.20438" lon="3.1684">
        <ele>52</ele>
        <time>2024-09-20T15:17:27.832Z</time>
      </trkpt>
      <trkpt lat="43.20437" lon="3.16848">
        <ele>53</ele>
        <time>2024-09-20T15:17:31.832Z</time>
      </trkpt>
      <trkpt lat="43.20436" lon="3.16852">
        <ele>53</ele>
        <time>2024-09-20T15:17:35.832Z</time>
      </trkpt>
      <trkpt lat="43.20435" lon="3.16861">
        <ele>53</ele>
        <time>2024-09-20T15:17:40.832Z</time>
      </trkpt>
      <trkpt lat="43.20435" lon="3.16867">
        <ele>53</ele>
        <time>2024-09-20T15:17:44.832Z</time>
      </trkpt>
      <trkpt lat="43.20435" lon="3.16874">
        <ele>53</ele>
        <time>2024-09-20T15:17:49.832Z</time>
      </trkpt>
      <trkpt lat="43.20438" lon="3.16882">
        <ele>53</ele>
        <time>2024-09-20T15:17:54.832Z</time>
      </trkpt>
      <trkpt lat="43.20443" lon="3.16889">
        <ele>53</ele>
        <time>2024-09-20T15:17:59.832Z</time>
      </trkpt>
      <trkpt lat="43.20447" lon="3.16894">
        <ele>53</ele>
        <time>2024-09-20T15:18:04.832Z</time>
      </trkpt>
      <trkpt lat="43.20451" lon="3.169">
        <ele>53</ele>
        <time>2024-09-20T15:18:09.832Z</time>
      </trkpt>
      <trkpt lat="43.20454" lon="3.16906">
        <ele>54</ele>
        <time>2024-09-20T15:18:14.832Z</time>
      </trkpt>
      <trkpt lat="43.20456" lon="3.16911">
        <ele>54</ele>
        <time>2024-09-20T15:18:19.832Z</time>
      </trkpt>
      <trkpt lat="43.20458" lon="3.16917">
        <ele>55</ele>
        <time>2024-09-20T15:18:24.832Z</time>
      </trkpt>
      <trkpt lat="43.20461" lon="3.16922">
        <ele>55</ele>
        <time>2024-09-20T15:18:29.832Z</time>
      </trkpt>
      <trkpt lat="43.20463" lon="3.16926">
        <ele>55</ele>
        <time>2024-09-20T15:18:33.832Z</time>
      </trkpt>
      <trkpt lat="43.20466" lon="3.16932">
        <ele>54</ele>
        <time>2024-09-20T15:18:38.832Z</time>
      </trkpt>
      <trkpt lat="43.20468" lon="3.16939">
        <ele>54</ele>
        <time>2024-09-20T15:18:43.832Z</time>
      </trkpt>
      <trkpt lat="43.20472" lon="3.16944">
        <ele>54</ele>
        <time>2024-09-20T15:18:48.832Z</time>
      </trkpt>
      <trkpt lat="43.20473" lon="3.16949">
        <ele>54</ele>
        <time>2024-09-20T15:18:53.832Z</time>
      </trkpt>
      <trkpt lat="43.20474" lon="3.16957">
        <ele>54</ele>
        <time>2024-09-20T15:18:58.832Z</time>
      </trkpt>
      <trkpt lat="43.20475" lon="3.16965">
        <ele>54</ele>
        <time>2024-09-20T15:19:03.832Z</time>
      </trkpt>
      <trkpt lat="43.20473" lon="3.1697">
        <ele>54</ele>
        <time>2024-09-20T15:19:08.832Z</time>
      </trkpt>
      <trkpt lat="43.20472" lon="3.16976">
        <ele>54</ele>
        <time>2024-09-20T15:19:12.832Z</time>
      </trkpt>
      <trkpt lat="43.20472" lon="3.16983">
        <ele>54</ele>
        <time>2024-09-20T15:19:17.832Z</time>
      </trkpt>
      <trkpt lat="43.20476" lon="3.16989">
        <ele>54</ele>
        <time>2024-09-20T15:19:22.832Z</time>
      </trkpt>
      <trkpt lat="43.20481" lon="3.16992">
        <ele>54</ele>
        <time>2024-09-20T15:19:27.832Z</time>
      </trkpt>
      <trkpt lat="43.20486" lon="3.16993">
        <ele>54</ele>
        <time>2024-09-20T15:19:32.832Z</time>
      </trkpt>
      <trkpt lat="43.20491" lon="3.16994">
        <ele>54</ele>
        <time>2024-09-20T15:19:37.832Z</time>
      </trkpt>
      <trkpt lat="43.20496" lon="3.16996">
        <ele>54</ele>
        <time>2024-09-20T15:19:42.832Z</time>
      </trkpt>
      <trkpt lat="43.20501" lon="3.16997">
        <ele>54</ele>
        <time>2024-09-20T15:19:46.832Z</time>
      </trkpt>
      <trkpt lat="43.20506" lon="3.16999">
        <ele>54</ele>
        <time>2024-09-20T15:19:51.832Z</time>
      </trkpt>
      <trkpt lat="43.20511" lon="3.17001">
        <ele>54</ele>
        <time>2024-09-20T15:19:56.832Z</time>
      </trkpt>
      <trkpt lat="43.20517" lon="3.17002">
        <ele>55</ele>
        <time>2024-09-20T15:20:00.832Z</time>
      </trkpt>
      <trkpt lat="43.2052" lon="3.17002">
        <ele>55</ele>
        <time>2024-09-20T15:20:04.832Z</time>
      </trkpt>
      <trkpt lat="43.20526" lon="3.17005">
        <ele>55</ele>
        <time>2024-09-20T15:20:09.832Z</time>
      </trkpt>
      <trkpt lat="43.2053" lon="3.17008">
        <ele>55</ele>
        <time>2024-09-20T15:20:14.832Z</time>
      </trkpt>
      <trkpt lat="43.20534" lon="3.17009">
        <ele>55</ele>
        <time>2024-09-20T15:20:18.832Z</time>
      </trkpt>
      <trkpt lat="43.20538" lon="3.17012">
        <ele>55</ele>
        <time>2024-09-20T15:20:22.832Z</time>
      </trkpt>
      <trkpt lat="43.20542" lon="3.17014">
        <ele>56</ele>
        <time>2024-09-20T15:20:27.832Z</time>
      </trkpt>
      <trkpt lat="43.20548" lon="3.17022">
        <ele>56</ele>
        <time>2024-09-20T15:20:32.832Z</time>
      </trkpt>
      <trkpt lat="43.20551" lon="3.17024">
        <ele>56</ele>
        <time>2024-09-20T15:20:36.832Z</time>
      </trkpt>
      <trkpt lat="43.20555" lon="3.17029">
        <ele>56</ele>
        <time>2024-09-20T15:20:40.832Z</time>
      </trkpt>
      <trkpt lat="43.20559" lon="3.17033">
        <ele>56</ele>
        <time>2024-09-20T15:20:45.832Z</time>
      </trkpt>
      <trkpt lat="43.20562" lon="3.17038">
        <ele>56</ele>
        <time>2024-09-20T15:20:49.832Z</time>
      </trkpt>
      <trkpt lat="43.20566" lon="3.17043">
        <ele>56</ele>
        <time>2024-09-20T15:20:54.832Z</time>
      </trkpt>
      <trkpt lat="43.20569" lon="3.17047">
        <ele>56</ele>
        <time>2024-09-20T15:20:59.832Z</time>
      </trkpt>
      <trkpt lat="43.20573" lon="3.17054">
        <ele>56</ele>
        <time>2024-09-20T15:21:04.832Z</time>
      </trkpt>
      <trkpt lat="43.20577" lon="3.17059">
        <ele>56</ele>
        <time>2024-09-20T15:21:09.832Z</time>
      </trkpt>
      <trkpt lat="43.2058" lon="3.17066">
        <ele>56</ele>
        <time>2024-09-20T15:21:14.832Z</time>
      </trkpt>
      <trkpt lat="43.20585" lon="3.17073">
        <ele>55</ele>
        <time>2024-09-20T15:21:19.832Z</time>
      </trkpt>
      <trkpt lat="43.20588" lon="3.17077">
        <ele>55</ele>
        <time>2024-09-20T15:21:24.832Z</time>
      </trkpt>
      <trkpt lat="43.20593" lon="3.17084">
        <ele>55</ele>
        <time>2024-09-20T15:21:29.832Z</time>
      </trkpt>
      <trkpt lat="43.20594" lon="3.17086">
        <ele>55</ele>
        <time>2024-09-20T15:21:33.832Z</time>
      </trkpt>
      <trkpt lat="43.20599" lon="3.17093">
        <ele>54</ele>
        <time>2024-09-20T15:21:38.832Z</time>
      </trkpt>
      <trkpt lat="43.20601" lon="3.17097">
        <ele>54</ele>
        <time>2024-09-20T15:21:42.832Z</time>
      </trkpt>
      <trkpt lat="43.20603" lon="3.171">
        <ele>52</ele>
        <time>2024-09-20T15:21:46.832Z</time>
      </trkpt>
      <trkpt lat="43.20605" lon="3.17106">
        <ele>52</ele>
        <time>2024-09-20T15:21:51.832Z</time>
      </trkpt>
      <trkpt lat="43.20609" lon="3.17111">
        <ele>52</ele>
        <time>2024-09-20T15:21:56.832Z</time>
      </trkpt>
      <trkpt lat="43.20611" lon="3.17115">
        <ele>52</ele>
        <time>2024-09-20T15:22:00.832Z</time>
      </trkpt>
      <trkpt lat="43.20613" lon="3.17119">
        <ele>52</ele>
        <time>2024-09-20T15:22:04.832Z</time>
      </trkpt>
      <trkpt lat="43.20615" lon="3.17123">
        <ele>52</ele>
        <time>2024-09-20T15:22:08.832Z</time>
      </trkpt>
      <trkpt lat="43.20619" lon="3.17129">
        <ele>51</ele>
        <time>2024-09-20T15:22:13.832Z</time>
      </trkpt>
      <trkpt lat="43.20622" lon="3.17133">
        <ele>51</ele>
        <time>2024-09-20T15:22:18.832Z</time>
      </trkpt>
      <trkpt lat="43.20627" lon="3.1714">
        <ele>52</ele>
        <time>2024-09-20T15:22:23.832Z</time>
      </trkpt>
      <trkpt lat="43.20629" lon="3.17144">
        <ele>52</ele>
        <time>2024-09-20T15:22:27.832Z</time>
      </trkpt>
      <trkpt lat="43.20632" lon="3.1715">
        <ele>52</ele>
        <time>2024-09-20T15:22:31.832Z</time>
      </trkpt>
      <trkpt lat="43.20635" lon="3.17155">
        <ele>51</ele>
        <time>2024-09-20T15:22:36.832Z</time>
      </trkpt>
      <trkpt lat="43.20638" lon="3.17162">
        <ele>51</ele>
        <time>2024-09-20T15:22:41.832Z</time>
      </trkpt>
      <trkpt lat="43.20642" lon="3.17169">
        <ele>51</ele>
        <time>2024-09-20T15:22:46.832Z</time>
      </trkpt>
      <trkpt lat="43.20645" lon="3.17173">
        <ele>51</ele>
        <time>2024-09-20T15:22:51.832Z</time>
      </trkpt>
      <trkpt lat="43.20649" lon="3.17181">
        <ele>49</ele>
        <time>2024-09-20T15:22:56.832Z</time>
      </trkpt>
      <trkpt lat="43.20653" lon="3.17185">
        <ele>50</ele>
        <time>2024-09-20T15:23:01.832Z</time>
      </trkpt>
      <trkpt lat="43.20656" lon="3.17189">
        <ele>50</ele>
        <time>2024-09-20T15:23:05.832Z</time>
      </trkpt>
      <trkpt lat="43.20661" lon="3.17191">
        <ele>50</ele>
        <time>2024-09-20T15:23:10.832Z</time>
      </trkpt>
      <trkpt lat="43.20667" lon="3.17191">
        <ele>50</ele>
        <time>2024-09-20T15:23:15.832Z</time>
      </trkpt>
      <trkpt lat="43.20671" lon="3.17189">
        <ele>50</ele>
        <time>2024-09-20T15:23:20.832Z</time>
      </trkpt>
      <trkpt lat="43.20675" lon="3.17185">
        <ele>50</ele>
        <time>2024-09-20T15:23:25.832Z</time>
      </trkpt>
      <trkpt lat="43.2068" lon="3.17179">
        <ele>51</ele>
        <time>2024-09-20T15:23:30.832Z</time>
      </trkpt>
      <trkpt lat="43.20683" lon="3.17175">
        <ele>53</ele>
        <time>2024-09-20T15:23:34.832Z</time>
      </trkpt>
      <trkpt lat="43.20687" lon="3.17169">
        <ele>53</ele>
        <time>2024-09-20T15:23:39.832Z</time>
      </trkpt>
      <trkpt lat="43.20691" lon="3.17162">
        <ele>53</ele>
        <time>2024-09-20T15:23:44.832Z</time>
      </trkpt>
      <trkpt lat="43.20695" lon="3.17158">
        <ele>53</ele>
        <time>2024-09-20T15:23:49.832Z</time>
      </trkpt>
      <trkpt lat="43.20698" lon="3.17151">
        <ele>54</ele>
        <time>2024-09-20T15:23:53.832Z</time>
      </trkpt>
      <trkpt lat="43.20701" lon="3.17147">
        <ele>54</ele>
        <time>2024-09-20T15:23:58.832Z</time>
      </trkpt>
      <trkpt lat="43.20706" lon="3.1714">
        <ele>54</ele>
        <time>2024-09-20T15:24:03.832Z</time>
      </trkpt>
      <trkpt lat="43.20708" lon="3.17135">
        <ele>54</ele>
        <time>2024-09-20T15:24:07.832Z</time>
      </trkpt>
      <trkpt lat="43.20711" lon="3.17131">
        <ele>55</ele>
        <time>2024-09-20T15:24:12.832Z</time>
      </trkpt>
      <trkpt lat="43.20714" lon="3.17126">
        <ele>55</ele>
        <time>2024-09-20T15:24:16.832Z</time>
      </trkpt>
      <trkpt lat="43.20716" lon="3.17119">
        <ele>56</ele>
        <time>2024-09-20T15:24:21.832Z</time>
      </trkpt>
      <trkpt lat="43.20719" lon="3.17115">
        <ele>56</ele>
        <time>2024-09-20T15:24:26.832Z</time>
      </trkpt>
      <trkpt lat="43.20723" lon="3.17108">
        <ele>56</ele>
        <time>2024-09-20T15:24:30.832Z</time>
      </trkpt>
      <trkpt lat="43.20725" lon="3.17105">
        <ele>56</ele>
        <time>2024-09-20T15:24:34.832Z</time>
      </trkpt>
      <trkpt lat="43.20729" lon="3.171">
        <ele>56</ele>
        <time>2024-09-20T15:24:39.832Z</time>
      </trkpt>
      <trkpt lat="43.20732" lon="3.17095">
        <ele>57</ele>
        <time>2024-09-20T15:24:43.832Z</time>
      </trkpt>
      <trkpt lat="43.20734" lon="3.17089">
        <ele>57</ele>
        <time>2024-09-20T15:24:48.832Z</time>
      </trkpt>
      <trkpt lat="43.20737" lon="3.17083">
        <ele>58</ele>
        <time>2024-09-20T15:24:52.832Z</time>
      </trkpt>
      <trkpt lat="43.20739" lon="3.17077">
        <ele>58</ele>
        <time>2024-09-20T15:24:57.832Z</time>
      </trkpt>
      <trkpt lat="43.20741" lon="3.17073">
        <ele>58</ele>
        <time>2024-09-20T15:25:02.832Z</time>
      </trkpt>
      <trkpt lat="43.20744" lon="3.17067">
        <ele>58</ele>
        <time>2024-09-20T15:25:06.832Z</time>
      </trkpt>
      <trkpt lat="43.20748" lon="3.17061">
        <ele>58</ele>
        <time>2024-09-20T15:25:11.832Z</time>
      </trkpt>
      <trkpt lat="43.20752" lon="3.17056">
        <ele>58</ele>
        <time>2024-09-20T15:25:16.832Z</time>
      </trkpt>
      <trkpt lat="43.20755" lon="3.17048">
        <ele>58</ele>
        <time>2024-09-20T15:25:21.832Z</time>
      </trkpt>
      <trkpt lat="43.20757" lon="3.17045">
        <ele>58</ele>
        <time>2024-09-20T15:25:25.832Z</time>
      </trkpt>
      <trkpt lat="43.2076" lon="3.17039">
        <ele>57</ele>
        <time>2024-09-20T15:25:30.832Z</time>
      </trkpt>
      <trkpt lat="43.20764" lon="3.1703">
        <ele>57</ele>
        <time>2024-09-20T15:25:35.832Z</time>
      </trkpt>
      <trkpt lat="43.20767" lon="3.17027">
        <ele>58</ele>
        <time>2024-09-20T15:25:40.832Z</time>
      </trkpt>
      <trkpt lat="43.2077" lon="3.17022">
        <ele>58</ele>
        <time>2024-09-20T15:25:44.832Z</time>
      </trkpt>
      <trkpt lat="43.20771" lon="3.17015">
        <ele>58</ele>
        <time>2024-09-20T15:25:49.832Z</time>
      </trkpt>
      <trkpt lat="43.20774" lon="3.17009">
        <ele>58</ele>
        <time>2024-09-20T15:25:54.832Z</time>
      </trkpt>
      <trkpt lat="43.20777" lon="3.17006">
        <ele>58</ele>
        <time>2024-09-20T15:25:58.832Z</time>
      </trkpt>
      <trkpt lat="43.2078" lon="3.17">
        <ele>58</ele>
        <time>2024-09-20T15:26:02.832Z</time>
      </trkpt>
      <trkpt lat="43.20782" lon="3.16995">
        <ele>58</ele>
        <time>2024-09-20T15:26:07.832Z</time>
      </trkpt>
      <trkpt lat="43.20784" lon="3.1699">
        <ele>58</ele>
        <time>2024-09-20T15:26:11.832Z</time>
      </trkpt>
      <trkpt lat="43.20787" lon="3.16982">
        <ele>58</ele>
        <time>2024-09-20T15:26:16.832Z</time>
      </trkpt>
      <trkpt lat="43.2079" lon="3.16977">
        <ele>58</ele>
        <time>2024-09-20T15:26:21.832Z</time>
      </trkpt>
      <trkpt lat="43.20793" lon="3.16969">
        <ele>60</ele>
        <time>2024-09-20T15:26:26.832Z</time>
      </trkpt>
      <trkpt lat="43.20794" lon="3.16962">
        <ele>60</ele>
        <time>2024-09-20T15:26:31.832Z</time>
      </trkpt>
      <trkpt lat="43.20797" lon="3.16956">
        <ele>62</ele>
        <time>2024-09-20T15:26:36.832Z</time>
      </trkpt>
      <trkpt lat="43.20799" lon="3.16951">
        <ele>62</ele>
        <time>2024-09-20T15:26:41.832Z</time>
      </trkpt>
      <trkpt lat="43.208" lon="3.16944">
        <ele>62</ele>
        <time>2024-09-20T15:26:46.832Z</time>
      </trkpt>
      <trkpt lat="43.20803" lon="3.16938">
        <ele>62</ele>
        <time>2024-09-20T15:26:51.832Z</time>
      </trkpt>
      <trkpt lat="43.20806" lon="3.16933">
        <ele>62</ele>
        <time>2024-09-20T15:26:56.832Z</time>
      </trkpt>
      <trkpt lat="43.20807" lon="3.16928">
        <ele>64</ele>
        <time>2024-09-20T15:27:00.832Z</time>
      </trkpt>
      <trkpt lat="43.20809" lon="3.1692">
        <ele>64</ele>
        <time>2024-09-20T15:27:05.832Z</time>
      </trkpt>
      <trkpt lat="43.20811" lon="3.16917">
        <ele>64</ele>
        <time>2024-09-20T15:27:09.832Z</time>
      </trkpt>
      <trkpt lat="43.20814" lon="3.16909">
        <ele>64</ele>
        <time>2024-09-20T15:27:14.832Z</time>
      </trkpt>
      <trkpt lat="43.20816" lon="3.16901">
        <ele>64</ele>
        <time>2024-09-20T15:27:19.832Z</time>
      </trkpt>
      <trkpt lat="43.20819" lon="3.16897">
        <ele>64</ele>
        <time>2024-09-20T15:27:24.832Z</time>
      </trkpt>
      <trkpt lat="43.20821" lon="3.1689">
        <ele>64</ele>
        <time>2024-09-20T15:27:29.832Z</time>
      </trkpt>
      <trkpt lat="43.20823" lon="3.16882">
        <ele>64</ele>
        <time>2024-09-20T15:27:34.832Z</time>
      </trkpt>
      <trkpt lat="43.20825" lon="3.16875">
        <ele>64</ele>
        <time>2024-09-20T15:27:39.832Z</time>
      </trkpt>
      <trkpt lat="43.20828" lon="3.16871">
        <ele>64</ele>
        <time>2024-09-20T15:27:44.832Z</time>
      </trkpt>
      <trkpt lat="43.2083" lon="3.16864">
        <ele>64</ele>
        <time>2024-09-20T15:27:49.832Z</time>
      </trkpt>
      <trkpt lat="43.20833" lon="3.16856">
        <ele>64</ele>
        <time>2024-09-20T15:27:54.832Z</time>
      </trkpt>
      <trkpt lat="43.20834" lon="3.16853">
        <ele>64</ele>
        <time>2024-09-20T15:27:58.832Z</time>
      </trkpt>
      <trkpt lat="43.20837" lon="3.16847">
        <ele>64</ele>
        <time>2024-09-20T15:28:03.832Z</time>
      </trkpt>
      <trkpt lat="43.20841" lon="3.16838">
        <ele>64</ele>
        <time>2024-09-20T15:28:08.832Z</time>
      </trkpt>
      <trkpt lat="43.20842" lon="3.16833">
        <ele>64</ele>
        <time>2024-09-20T15:28:13.832Z</time>
      </trkpt>
      <trkpt lat="43.20847" lon="3.16825">
        <ele>64</ele>
        <time>2024-09-20T15:28:18.832Z</time>
      </trkpt>
      <trkpt lat="43.20849" lon="3.16819">
        <ele>66</ele>
        <time>2024-09-20T15:28:22.832Z</time>
      </trkpt>
      <trkpt lat="43.20851" lon="3.16813">
        <ele>66</ele>
        <time>2024-09-20T15:28:27.832Z</time>
      </trkpt>
      <trkpt lat="43.20852" lon="3.16805">
        <ele>66</ele>
        <time>2024-09-20T15:28:32.832Z</time>
      </trkpt>
      <trkpt lat="43.20854" lon="3.168">
        <ele>66</ele>
        <time>2024-09-20T15:28:37.832Z</time>
      </trkpt>
      <trkpt lat="43.20856" lon="3.16793">
        <ele>66</ele>
        <time>2024-09-20T15:28:42.832Z</time>
      </trkpt>
      <trkpt lat="43.20859" lon="3.16785">
        <ele>67</ele>
        <time>2024-09-20T15:28:47.832Z</time>
      </trkpt>
      <trkpt lat="43.2086" lon="3.16781">
        <ele>67</ele>
        <time>2024-09-20T15:28:51.832Z</time>
      </trkpt>
      <trkpt lat="43.20867" lon="3.16771">
        <ele>67</ele>
        <time>2024-09-20T15:28:56.832Z</time>
      </trkpt>
      <trkpt lat="43.20867" lon="3.16764">
        <ele>68</ele>
        <time>2024-09-20T15:29:01.832Z</time>
      </trkpt>
      <trkpt lat="43.20868" lon="3.16758">
        <ele>68</ele>
        <time>2024-09-20T15:29:06.832Z</time>
      </trkpt>
      <trkpt lat="43.20868" lon="3.16754">
        <ele>68</ele>
        <time>2024-09-20T15:29:10.832Z</time>
      </trkpt>
      <trkpt lat="43.20869" lon="3.16745">
        <ele>68</ele>
        <time>2024-09-20T15:29:15.832Z</time>
      </trkpt>
      <trkpt lat="43.20871" lon="3.16741">
        <ele>68</ele>
        <time>2024-09-20T15:29:20.832Z</time>
      </trkpt>
      <trkpt lat="43.20874" lon="3.16739">
        <ele>68</ele>
        <time>2024-09-20T15:29:24.832Z</time>
      </trkpt>
      <trkpt lat="43.20879" lon="3.16738">
        <ele>69</ele>
        <time>2024-09-20T15:29:29.832Z</time>
      </trkpt>
      <trkpt lat="43.20882" lon="3.16741">
        <ele>69</ele>
        <time>2024-09-20T15:29:33.832Z</time>
      </trkpt>
      <trkpt lat="43.20886" lon="3.16743">
        <ele>69</ele>
        <time>2024-09-20T15:29:37.832Z</time>
      </trkpt>
      <trkpt lat="43.20891" lon="3.16746">
        <ele>69</ele>
        <time>2024-09-20T15:29:42.832Z</time>
      </trkpt>
      <trkpt lat="43.20897" lon="3.16746">
        <ele>69</ele>
        <time>2024-09-20T15:29:47.832Z</time>
      </trkpt>
      <trkpt lat="43.20902" lon="3.16746">
        <ele>69</ele>
        <time>2024-09-20T15:29:52.832Z</time>
      </trkpt>
      <trkpt lat="43.20906" lon="3.16747">
        <ele>73</ele>
        <time>2024-09-20T15:29:57.832Z</time>
      </trkpt>
      <trkpt lat="43.20912" lon="3.16747">
        <ele>73</ele>
        <time>2024-09-20T15:30:02.832Z</time>
      </trkpt>
      <trkpt lat="43.20915" lon="3.16746">
        <ele>73</ele>
        <time>2024-09-20T15:30:06.832Z</time>
      </trkpt>
      <trkpt lat="43.20919" lon="3.16748">
        <ele>73</ele>
        <time>2024-09-20T15:30:11.832Z</time>
      </trkpt>
      <trkpt lat="43.20923" lon="3.1675">
        <ele>73</ele>
        <time>2024-09-20T15:30:16.832Z</time>
      </trkpt>
      <trkpt lat="43.20927" lon="3.16752">
        <ele>73</ele>
        <time>2024-09-20T15:30:21.832Z</time>
      </trkpt>
      <trkpt lat="43.20929" lon="3.16754">
        <ele>73</ele>
        <time>2024-09-20T15:30:25.832Z</time>
      </trkpt>
      <trkpt lat="43.20933" lon="3.16758">
        <ele>78</ele>
        <time>2024-09-20T15:30:30.832Z</time>
      </trkpt>
      <trkpt lat="43.20936" lon="3.16761">
        <ele>78</ele>
        <time>2024-09-20T15:30:35.832Z</time>
      </trkpt>
      <trkpt lat="43.20939" lon="3.16765">
        <ele>77</ele>
        <time>2024-09-20T15:30:40.832Z</time>
      </trkpt>
      <trkpt lat="43.20942" lon="3.16771">
        <ele>77</ele>
        <time>2024-09-20T15:30:45.832Z</time>
      </trkpt>
      <trkpt lat="43.20943" lon="3.16776">
        <ele>77</ele>
        <time>2024-09-20T15:30:49.832Z</time>
      </trkpt>
      <trkpt lat="43.20946" lon="3.16782">
        <ele>77</ele>
        <time>2024-09-20T15:30:54.832Z</time>
      </trkpt>
      <trkpt lat="43.20948" lon="3.16785">
        <ele>77</ele>
        <time>2024-09-20T15:30:58.832Z</time>
      </trkpt>
      <trkpt lat="43.20953" lon="3.1679">
        <ele>77</ele>
        <time>2024-09-20T15:31:03.832Z</time>
      </trkpt>
      <trkpt lat="43.20957" lon="3.16791">
        <ele>77</ele>
        <time>2024-09-20T15:31:07.832Z</time>
      </trkpt>
      <trkpt lat="43.20963" lon="3.1679">
        <ele>80</ele>
        <time>2024-09-20T15:31:12.832Z</time>
      </trkpt>
      <trkpt lat="43.20966" lon="3.16789">
        <ele>80</ele>
        <time>2024-09-20T15:31:16.832Z</time>
      </trkpt>
      <trkpt lat="43.20971" lon="3.16787">
        <ele>80</ele>
        <time>2024-09-20T15:31:21.832Z</time>
      </trkpt>
      <trkpt lat="43.20974" lon="3.16785">
        <ele>80</ele>
        <time>2024-09-20T15:31:25.832Z</time>
      </trkpt>
      <trkpt lat="43.20979" lon="3.16783">
        <ele>80</ele>
        <time>2024-09-20T15:31:30.832Z</time>
      </trkpt>
      <trkpt lat="43.20982" lon="3.16783">
        <ele>80</ele>
        <time>2024-09-20T15:31:34.832Z</time>
      </trkpt>
      <trkpt lat="43.20986" lon="3.16783">
        <ele>80</ele>
        <time>2024-09-20T15:31:38.832Z</time>
      </trkpt>
      <trkpt lat="43.2099" lon="3.16782">
        <ele>82</ele>
        <time>2024-09-20T15:31:42.832Z</time>
      </trkpt>
      <trkpt lat="43.20996" lon="3.16781">
        <ele>82</ele>
        <time>2024-09-20T15:31:47.832Z</time>
      </trkpt>
      <trkpt lat="43.21" lon="3.1678">
        <ele>82</ele>
        <time>2024-09-20T15:31:52.832Z</time>
      </trkpt>
      <trkpt lat="43.21005" lon="3.1678">
        <ele>82</ele>
        <time>2024-09-20T15:31:56.832Z</time>
      </trkpt>
      <trkpt lat="43.21006" lon="3.1678">
        <ele>82</ele>
        <time>2024-09-20T15:32:02.832Z</time>
      </trkpt>
      <trkpt lat="43.21007" lon="3.16779">
        <ele>82</ele>
        <time>2024-09-20T15:32:11.832Z</time>
      </trkpt>
      <trkpt lat="43.21011" lon="3.16777">
        <ele>82</ele>
        <time>2024-09-20T15:32:15.832Z</time>
      </trkpt>
      <trkpt lat="43.21016" lon="3.16776">
        <ele>81</ele>
        <time>2024-09-20T15:32:20.832Z</time>
      </trkpt>
      <trkpt lat="43.21022" lon="3.16777">
        <ele>81</ele>
        <time>2024-09-20T15:32:25.832Z</time>
      </trkpt>
      <trkpt lat="43.21026" lon="3.1678">
        <ele>81</ele>
        <time>2024-09-20T15:32:30.832Z</time>
      </trkpt>
      <trkpt lat="43.21027" lon="3.16785">
        <ele>81</ele>
        <time>2024-09-20T15:32:34.832Z</time>
      </trkpt>
      <trkpt lat="43.21029" lon="3.16792">
        <ele>80</ele>
        <time>2024-09-20T15:32:39.832Z</time>
      </trkpt>
      <trkpt lat="43.21031" lon="3.168">
        <ele>80</ele>
        <time>2024-09-20T15:32:43.832Z</time>
      </trkpt>
      <trkpt lat="43.21029" lon="3.16803">
        <ele>80</ele>
        <time>2024-09-20T15:32:48.832Z</time>
      </trkpt>
      <trkpt lat="43.21029" lon="3.16807">
        <ele>80</ele>
        <time>2024-09-20T15:32:52.832Z</time>
      </trkpt>
      <trkpt lat="43.21032" lon="3.16813">
        <ele>80</ele>
        <time>2024-09-20T15:32:56.832Z</time>
      </trkpt>
      <trkpt lat="43.21034" lon="3.1682">
        <ele>79</ele>
        <time>2024-09-20T15:33:01.832Z</time>
      </trkpt>
      <trkpt lat="43.21038" lon="3.16827">
        <ele>79</ele>
        <time>2024-09-20T15:33:06.832Z</time>
      </trkpt>
      <trkpt lat="43.21043" lon="3.1683">
        <ele>78</ele>
        <time>2024-09-20T15:33:10.832Z</time>
      </trkpt>
      <trkpt lat="43.2105" lon="3.1683">
        <ele>78</ele>
        <time>2024-09-20T15:33:15.832Z</time>
      </trkpt>
      <trkpt lat="43.21054" lon="3.16826">
        <ele>78</ele>
        <time>2024-09-20T15:33:20.832Z</time>
      </trkpt>
      <trkpt lat="43.21058" lon="3.16824">
        <ele>78</ele>
        <time>2024-09-20T15:33:24.832Z</time>
      </trkpt>
      <trkpt lat="43.21063" lon="3.16823">
        <ele>78</ele>
        <time>2024-09-20T15:33:29.832Z</time>
      </trkpt>
      <trkpt lat="43.21066" lon="3.16821">
        <ele>78</ele>
        <time>2024-09-20T15:33:34.832Z</time>
      </trkpt>
      <trkpt lat="43.21072" lon="3.1682">
        <ele>78</ele>
        <time>2024-09-20T15:33:39.832Z</time>
      </trkpt>
      <trkpt lat="43.21078" lon="3.16818">
        <ele>78</ele>
        <time>2024-09-20T15:33:44.832Z</time>
      </trkpt>
      <trkpt lat="43.21081" lon="3.16816">
        <ele>78</ele>
        <time>2024-09-20T15:33:49.832Z</time>
      </trkpt>
      <trkpt lat="43.21085" lon="3.16814">
        <ele>78</ele>
        <time>2024-09-20T15:33:53.832Z</time>
      </trkpt>
      <trkpt lat="43.2109" lon="3.16813">
        <ele>78</ele>
        <time>2024-09-20T15:33:58.832Z</time>
      </trkpt>
      <trkpt lat="43.21093" lon="3.16816">
        <ele>78</ele>
        <time>2024-09-20T15:34:03.832Z</time>
      </trkpt>
      <trkpt lat="43.21094" lon="3.16822">
        <ele>78</ele>
        <time>2024-09-20T15:34:08.832Z</time>
      </trkpt>
      <trkpt lat="43.21094" lon="3.16827">
        <ele>78</ele>
        <time>2024-09-20T15:34:12.832Z</time>
      </trkpt>
      <trkpt lat="43.21093" lon="3.16835">
        <ele>78</ele>
        <time>2024-09-20T15:34:17.832Z</time>
      </trkpt>
      <trkpt lat="43.21095" lon="3.16842">
        <ele>78</ele>
        <time>2024-09-20T15:34:21.832Z</time>
      </trkpt>
      <trkpt lat="43.21095" lon="3.16848">
        <ele>79</ele>
        <time>2024-09-20T15:34:26.832Z</time>
      </trkpt>
      <trkpt lat="43.21096" lon="3.16854">
        <ele>79</ele>
        <time>2024-09-20T15:34:31.832Z</time>
      </trkpt>
      <trkpt lat="43.21098" lon="3.16859">
        <ele>83</ele>
        <time>2024-09-20T15:34:35.832Z</time>
      </trkpt>
      <trkpt lat="43.21101" lon="3.16865">
        <ele>83</ele>
        <time>2024-09-20T15:34:40.832Z</time>
      </trkpt>
      <trkpt lat="43.21105" lon="3.16868">
        <ele>83</ele>
        <time>2024-09-20T15:34:45.832Z</time>
      </trkpt>
      <trkpt lat="43.21108" lon="3.16869">
        <ele>83</ele>
        <time>2024-09-20T15:34:49.832Z</time>
      </trkpt>
      <trkpt lat="43.21111" lon="3.16871">
        <ele>83</ele>
        <time>2024-09-20T15:34:54.832Z</time>
      </trkpt>
      <trkpt lat="43.21114" lon="3.16874">
        <ele>83</ele>
        <time>2024-09-20T15:34:58.832Z</time>
      </trkpt>
      <trkpt lat="43.21117" lon="3.16878">
        <ele>83</ele>
        <time>2024-09-20T15:35:03.832Z</time>
      </trkpt>
      <trkpt lat="43.21121" lon="3.16881">
        <ele>83</ele>
        <time>2024-09-20T15:35:08.832Z</time>
      </trkpt>
      <trkpt lat="43.21125" lon="3.16884">
        <ele>83</ele>
        <time>2024-09-20T15:35:12.832Z</time>
      </trkpt>
      <trkpt lat="43.21126" lon="3.16887">
        <ele>87</ele>
        <time>2024-09-20T15:35:16.832Z</time>
      </trkpt>
      <trkpt lat="43.2113" lon="3.16892">
        <ele>87</ele>
        <time>2024-09-20T15:35:21.832Z</time>
      </trkpt>
      <trkpt lat="43.21133" lon="3.16896">
        <ele>87</ele>
        <time>2024-09-20T15:35:25.832Z</time>
      </trkpt>
      <trkpt lat="43.21137" lon="3.16902">
        <ele>87</ele>
        <time>2024-09-20T15:35:30.832Z</time>
      </trkpt>
      <trkpt lat="43.2114" lon="3.16907">
        <ele>86</ele>
        <time>2024-09-20T15:35:35.832Z</time>
      </trkpt>
      <trkpt lat="43.21144" lon="3.16911">
        <ele>86</ele>
        <time>2024-09-20T15:35:40.832Z</time>
      </trkpt>
      <trkpt lat="43.21148" lon="3.16913">
        <ele>86</ele>
        <time>2024-09-20T15:35:45.832Z</time>
      </trkpt>
      <trkpt lat="43.21152" lon="3.16914">
        <ele>86</ele>
        <time>2024-09-20T15:35:50.832Z</time>
      </trkpt>
      <trkpt lat="43.21155" lon="3.1691">
        <ele>89</ele>
        <time>2024-09-20T15:35:55.832Z</time>
      </trkpt>
      <trkpt lat="43.21158" lon="3.16905">
        <ele>89</ele>
        <time>2024-09-20T15:36:00.832Z</time>
      </trkpt>
      <trkpt lat="43.21162" lon="3.16901">
        <ele>90</ele>
        <time>2024-09-20T15:36:05.832Z</time>
      </trkpt>
      <trkpt lat="43.21166" lon="3.16898">
        <ele>90</ele>
        <time>2024-09-20T15:36:09.832Z</time>
      </trkpt>
      <trkpt lat="43.21169" lon="3.16898">
        <ele>90</ele>
        <time>2024-09-20T15:36:14.832Z</time>
      </trkpt>
      <trkpt lat="43.21173" lon="3.169">
        <ele>90</ele>
        <time>2024-09-20T15:36:19.832Z</time>
      </trkpt>
      <trkpt lat="43.21178" lon="3.16902">
        <ele>90</ele>
        <time>2024-09-20T15:36:24.832Z</time>
      </trkpt>
      <trkpt lat="43.21182" lon="3.16898">
        <ele>91</ele>
        <time>2024-09-20T15:36:29.832Z</time>
      </trkpt>
      <trkpt lat="43.21186" lon="3.16895">
        <ele>91</ele>
        <time>2024-09-20T15:36:34.832Z</time>
      </trkpt>
      <trkpt lat="43.21188" lon="3.16892">
        <ele>91</ele>
        <time>2024-09-20T15:36:39.832Z</time>
      </trkpt>
      <trkpt lat="43.21187" lon="3.16892">
        <ele>91</ele>
        <time>2024-09-20T15:36:44.832Z</time>
      </trkpt>
      <trkpt lat="43.21188" lon="3.16892">
        <ele>91</ele>
        <time>2024-09-20T15:36:54.832Z</time>
      </trkpt>
      <trkpt lat="43.21192" lon="3.16889">
        <ele>91</ele>
        <time>2024-09-20T15:36:59.832Z</time>
      </trkpt>
      <trkpt lat="43.21195" lon="3.16885">
        <ele>91</ele>
        <time>2024-09-20T15:37:03.832Z</time>
      </trkpt>
      <trkpt lat="43.21197" lon="3.16881">
        <ele>91</ele>
        <time>2024-09-20T15:37:08.832Z</time>
      </trkpt>
      <trkpt lat="43.21199" lon="3.16877">
        <ele>91</ele>
        <time>2024-09-20T15:37:12.832Z</time>
      </trkpt>
      <trkpt lat="43.21199" lon="3.16871">
        <ele>92</ele>
        <time>2024-09-20T15:37:17.832Z</time>
      </trkpt>
      <trkpt lat="43.21199" lon="3.16864">
        <ele>92</ele>
        <time>2024-09-20T15:37:22.832Z</time>
      </trkpt>
      <trkpt lat="43.212" lon="3.16859">
        <ele>92</ele>
        <time>2024-09-20T15:37:26.832Z</time>
      </trkpt>
      <trkpt lat="43.212" lon="3.16853">
        <ele>92</ele>
        <time>2024-09-20T15:37:30.832Z</time>
      </trkpt>
      <trkpt lat="43.21199" lon="3.16847">
        <ele>93</ele>
        <time>2024-09-20T15:37:35.832Z</time>
      </trkpt>
      <trkpt lat="43.21199" lon="3.16841">
        <ele>93</ele>
        <time>2024-09-20T15:37:40.832Z</time>
      </trkpt>
      <trkpt lat="43.212" lon="3.16836">
        <ele>93</ele>
        <time>2024-09-20T15:37:44.832Z</time>
      </trkpt>
      <trkpt lat="43.21201" lon="3.16831">
        <ele>93</ele>
        <time>2024-09-20T15:37:48.832Z</time>
      </trkpt>
      <trkpt lat="43.21201" lon="3.16824">
        <ele>93</ele>
        <time>2024-09-20T15:37:53.832Z</time>
      </trkpt>
      <trkpt lat="43.21201" lon="3.16817">
        <ele>94</ele>
        <time>2024-09-20T15:37:57.832Z</time>
      </trkpt>
      <trkpt lat="43.212" lon="3.1681">
        <ele>94</ele>
        <time>2024-09-20T15:38:02.832Z</time>
      </trkpt>
      <trkpt lat="43.212" lon="3.16804">
        <ele>94</ele>
        <time>2024-09-20T15:38:07.832Z</time>
      </trkpt>
      <trkpt lat="43.212" lon="3.16797">
        <ele>94</ele>
        <time>2024-09-20T15:38:12.832Z</time>
      </trkpt>
      <trkpt lat="43.21202" lon="3.16792">
        <ele>94</ele>
        <time>2024-09-20T15:38:16.832Z</time>
      </trkpt>
      <trkpt lat="43.21201" lon="3.16784">
        <ele>93</ele>
        <time>2024-09-20T15:38:21.832Z</time>
      </trkpt>
      <trkpt lat="43.21202" lon="3.16779">
        <ele>93</ele>
        <time>2024-09-20T15:38:26.832Z</time>
      </trkpt>
      <trkpt lat="43.21206" lon="3.16772">
        <ele>93</ele>
        <time>2024-09-20T15:38:31.832Z</time>
      </trkpt>
      <trkpt lat="43.2121" lon="3.16765">
        <ele>94</ele>
        <time>2024-09-20T15:38:36.832Z</time>
      </trkpt>
      <trkpt lat="43.21212" lon="3.16761">
        <ele>94</ele>
        <time>2024-09-20T15:38:40.832Z</time>
      </trkpt>
      <trkpt lat="43.21215" lon="3.16753">
        <ele>94</ele>
        <time>2024-09-20T15:38:45.832Z</time>
      </trkpt>
      <trkpt lat="43.21217" lon="3.16746">
        <ele>94</ele>
        <time>2024-09-20T15:38:50.832Z</time>
      </trkpt>
      <trkpt lat="43.2122" lon="3.16741">
        <ele>94</ele>
        <time>2024-09-20T15:38:54.832Z</time>
      </trkpt>
      <trkpt lat="43.21222" lon="3.16736">
        <ele>94</ele>
        <time>2024-09-20T15:38:59.832Z</time>
      </trkpt>
      <trkpt lat="43.21225" lon="3.16732">
        <ele>94</ele>
        <time>2024-09-20T15:39:04.832Z</time>
      </trkpt>
      <trkpt lat="43.21229" lon="3.16727">
        <ele>94</ele>
        <time>2024-09-20T15:39:09.832Z</time>
      </trkpt>
      <trkpt lat="43.21232" lon="3.16721">
        <ele>94</ele>
        <time>2024-09-20T15:39:14.833Z</time>
      </trkpt>
      <trkpt lat="43.21235" lon="3.16718">
        <ele>94</ele>
        <time>2024-09-20T15:39:18.833Z</time>
      </trkpt>
      <trkpt lat="43.21237" lon="3.16713">
        <ele>94</ele>
        <time>2024-09-20T15:39:22.833Z</time>
      </trkpt>
      <trkpt lat="43.21239" lon="3.16707">
        <ele>95</ele>
        <time>2024-09-20T15:39:27.833Z</time>
      </trkpt>
      <trkpt lat="43.21241" lon="3.16702">
        <ele>95</ele>
        <time>2024-09-20T15:39:31.833Z</time>
      </trkpt>
      <trkpt lat="43.21242" lon="3.16696">
        <ele>95</ele>
        <time>2024-09-20T15:39:35.833Z</time>
      </trkpt>
      <trkpt lat="43.21242" lon="3.1669">
        <ele>95</ele>
        <time>2024-09-20T15:39:40.833Z</time>
      </trkpt>
      <trkpt lat="43.21242" lon="3.16683">
        <ele>95</ele>
        <time>2024-09-20T15:39:45.833Z</time>
      </trkpt>
      <trkpt lat="43.21243" lon="3.16677">
        <ele>97</ele>
        <time>2024-09-20T15:39:49.833Z</time>
      </trkpt>
      <trkpt lat="43.21243" lon="3.1667">
        <ele>97</ele>
        <time>2024-09-20T15:39:54.833Z</time>
      </trkpt>
      <trkpt lat="43.21244" lon="3.16664">
        <ele>97</ele>
        <time>2024-09-20T15:39:58.833Z</time>
      </trkpt>
      <trkpt lat="43.21246" lon="3.16659">
        <ele>97</ele>
        <time>2024-09-20T15:40:03.833Z</time>
      </trkpt>
      <trkpt lat="43.21246" lon="3.16655">
        <ele>97</ele>
        <time>2024-09-20T15:40:07.833Z</time>
      </trkpt>
      <trkpt lat="43.21249" lon="3.16649">
        <ele>99</ele>
        <time>2024-09-20T15:40:12.833Z</time>
      </trkpt>
      <trkpt lat="43.21252" lon="3.16645">
        <ele>99</ele>
        <time>2024-09-20T15:40:17.833Z</time>
      </trkpt>
      <trkpt lat="43.21255" lon="3.16642">
        <ele>99</ele>
        <time>2024-09-20T15:40:21.833Z</time>
      </trkpt>
      <trkpt lat="43.2126" lon="3.16638">
        <ele>99</ele>
        <time>2024-09-20T15:40:26.833Z</time>
      </trkpt>
      <trkpt lat="43.21264" lon="3.16632">
        <ele>99</ele>
        <time>2024-09-20T15:40:31.833Z</time>
      </trkpt>
      <trkpt lat="43.21266" lon="3.16627">
        <ele>98</ele>
        <time>2024-09-20T15:40:36.833Z</time>
      </trkpt>
      <trkpt lat="43.21269" lon="3.16623">
        <ele>101</ele>
        <time>2024-09-20T15:40:40.833Z</time>
      </trkpt>
      <trkpt lat="43.21272" lon="3.16617">
        <ele>101</ele>
        <time>2024-09-20T15:40:45.833Z</time>
      </trkpt>
      <trkpt lat="43.21275" lon="3.16611">
        <ele>101</ele>
        <time>2024-09-20T15:40:50.833Z</time>
      </trkpt>
      <trkpt lat="43.21277" lon="3.16606">
        <ele>101</ele>
        <time>2024-09-20T15:40:55.833Z</time>
      </trkpt>
      <trkpt lat="43.21278" lon="3.16599">
        <ele>101</ele>
        <time>2024-09-20T15:41:00.833Z</time>
      </trkpt>
      <trkpt lat="43.21281" lon="3.16595">
        <ele>103</ele>
        <time>2024-09-20T15:41:04.833Z</time>
      </trkpt>
      <trkpt lat="43.21285" lon="3.16588">
        <ele>103</ele>
        <time>2024-09-20T15:41:09.833Z</time>
      </trkpt>
      <trkpt lat="43.21286" lon="3.16583">
        <ele>103</ele>
        <time>2024-09-20T15:41:13.833Z</time>
      </trkpt>
      <trkpt lat="43.21287" lon="3.16577">
        <ele>103</ele>
        <time>2024-09-20T15:41:18.833Z</time>
      </trkpt>
      <trkpt lat="43.21288" lon="3.16568">
        <ele>105</ele>
        <time>2024-09-20T15:41:23.833Z</time>
      </trkpt>
      <trkpt lat="43.21288" lon="3.16564">
        <ele>105</ele>
        <time>2024-09-20T15:41:27.833Z</time>
      </trkpt>
      <trkpt lat="43.21288" lon="3.16556">
        <ele>105</ele>
        <time>2024-09-20T15:41:32.833Z</time>
      </trkpt>
      <trkpt lat="43.21288" lon="3.16549">
        <ele>105</ele>
        <time>2024-09-20T15:41:36.833Z</time>
      </trkpt>
      <trkpt lat="43.21287" lon="3.16544">
        <ele>105</ele>
        <time>2024-09-20T15:41:41.833Z</time>
      </trkpt>
      <trkpt lat="43.21287" lon="3.16539">
        <ele>107</ele>
        <time>2024-09-20T15:41:45.833Z</time>
      </trkpt>
      <trkpt lat="43.21287" lon="3.16532">
        <ele>107</ele>
        <time>2024-09-20T15:41:49.833Z</time>
      </trkpt>
      <trkpt lat="43.21287" lon="3.16526">
        <ele>107</ele>
        <time>2024-09-20T15:41:54.833Z</time>
      </trkpt>
      <trkpt lat="43.21289" lon="3.16519">
        <ele>107</ele>
        <time>2024-09-20T15:41:58.833Z</time>
      </trkpt>
      <trkpt lat="43.2129" lon="3.16512">
        <ele>111</ele>
        <time>2024-09-20T15:42:03.833Z</time>
      </trkpt>
      <trkpt lat="43.21293" lon="3.16505">
        <ele>109</ele>
        <time>2024-09-20T15:42:08.833Z</time>
      </trkpt>
      <trkpt lat="43.21296" lon="3.16499">
        <ele>109</ele>
        <time>2024-09-20T15:42:13.833Z</time>
      </trkpt>
      <trkpt lat="43.21299" lon="3.16493">
        <ele>109</ele>
        <time>2024-09-20T15:42:18.833Z</time>
      </trkpt>
      <trkpt lat="43.21301" lon="3.16488">
        <ele>109</ele>
        <time>2024-09-20T15:42:23.833Z</time>
      </trkpt>
      <trkpt lat="43.21304" lon="3.1648">
        <ele>111</ele>
        <time>2024-09-20T15:42:27.833Z</time>
      </trkpt>
      <trkpt lat="43.21305" lon="3.16475">
        <ele>111</ele>
        <time>2024-09-20T15:42:32.833Z</time>
      </trkpt>
      <trkpt lat="43.21308" lon="3.16469">
        <ele>111</ele>
        <time>2024-09-20T15:42:36.833Z</time>
      </trkpt>
      <trkpt lat="43.21311" lon="3.16465">
        <ele>111</ele>
        <time>2024-09-20T15:42:40.833Z</time>
      </trkpt>
      <trkpt lat="43.21314" lon="3.1646">
        <ele>111</ele>
        <time>2024-09-20T15:42:45.833Z</time>
      </trkpt>
      <trkpt lat="43.21318" lon="3.16455">
        <ele>112</ele>
        <time>2024-09-20T15:42:49.833Z</time>
      </trkpt>
      <trkpt lat="43.21321" lon="3.16452">
        <ele>113</ele>
        <time>2024-09-20T15:42:54.833Z</time>
      </trkpt>
      <trkpt lat="43.21325" lon="3.16451">
        <ele>113</ele>
        <time>2024-09-20T15:42:58.833Z</time>
      </trkpt>
      <trkpt lat="43.21329" lon="3.16449">
        <ele>113</ele>
        <time>2024-09-20T15:43:03.833Z</time>
      </trkpt>
      <trkpt lat="43.21334" lon="3.1645">
        <ele>113</ele>
        <time>2024-09-20T15:43:08.833Z</time>
      </trkpt>
      <trkpt lat="43.21339" lon="3.16449">
        <ele>113</ele>
        <time>2024-09-20T15:43:13.833Z</time>
      </trkpt>
      <trkpt lat="43.21343" lon="3.16445">
        <ele>113</ele>
        <time>2024-09-20T15:43:18.833Z</time>
      </trkpt>
      <trkpt lat="43.21343" lon="3.16439">
        <ele>113</ele>
        <time>2024-09-20T15:43:22.833Z</time>
      </trkpt>
      <trkpt lat="43.21342" lon="3.16434">
        <ele>113</ele>
        <time>2024-09-20T15:43:26.833Z</time>
      </trkpt>
      <trkpt lat="43.21339" lon="3.1643">
        <ele>114</ele>
        <time>2024-09-20T15:43:31.833Z</time>
      </trkpt>
      <trkpt lat="43.21337" lon="3.16426">
        <ele>114</ele>
        <time>2024-09-20T15:43:35.833Z</time>
      </trkpt>
      <trkpt lat="43.21333" lon="3.16419">
        <ele>114</ele>
        <time>2024-09-20T15:43:40.833Z</time>
      </trkpt>
      <trkpt lat="43.2133" lon="3.16414">
        <ele>114</ele>
        <time>2024-09-20T15:43:45.833Z</time>
      </trkpt>
      <trkpt lat="43.21328" lon="3.16408">
        <ele>114</ele>
        <time>2024-09-20T15:43:50.833Z</time>
      </trkpt>
      <trkpt lat="43.21327" lon="3.16401">
        <ele>115</ele>
        <time>2024-09-20T15:43:55.833Z</time>
      </trkpt>
      <trkpt lat="43.21326" lon="3.16395">
        <ele>115</ele>
        <time>2024-09-20T15:43:59.833Z</time>
      </trkpt>
      <trkpt lat="43.21324" lon="3.16391">
        <ele>115</ele>
        <time>2024-09-20T15:44:03.833Z</time>
      </trkpt>
      <trkpt lat="43.21321" lon="3.16385">
        <ele>115</ele>
        <time>2024-09-20T15:44:08.833Z</time>
      </trkpt>
      <trkpt lat="43.21319" lon="3.1638">
        <ele>115</ele>
        <time>2024-09-20T15:44:12.833Z</time>
      </trkpt>
      <trkpt lat="43.21318" lon="3.16373">
        <ele>115</ele>
        <time>2024-09-20T15:44:17.833Z</time>
      </trkpt>
      <trkpt lat="43.21317" lon="3.16368">
        <ele>115</ele>
        <time>2024-09-20T15:44:21.833Z</time>
      </trkpt>
      <trkpt lat="43.21314" lon="3.16362">
        <ele>115</ele>
        <time>2024-09-20T15:44:26.833Z</time>
      </trkpt>
      <trkpt lat="43.21313" lon="3.16356">
        <ele>115</ele>
        <time>2024-09-20T15:44:30.833Z</time>
      </trkpt>
      <trkpt lat="43.21311" lon="3.16351">
        <ele>115</ele>
        <time>2024-09-20T15:44:35.833Z</time>
      </trkpt>
      <trkpt lat="43.21309" lon="3.16348">
        <ele>115</ele>
        <time>2024-09-20T15:44:39.833Z</time>
      </trkpt>
      <trkpt lat="43.21306" lon="3.16346">
        <ele>115</ele>
        <time>2024-09-20T15:44:44.833Z</time>
      </trkpt>
      <trkpt lat="43.21304" lon="3.16344">
        <ele>115</ele>
        <time>2024-09-20T15:44:49.833Z</time>
      </trkpt>
      <trkpt lat="43.21301" lon="3.16337">
        <ele>115</ele>
        <time>2024-09-20T15:44:54.833Z</time>
      </trkpt>
      <trkpt lat="43.213" lon="3.16332">
        <ele>115</ele>
        <time>2024-09-20T15:44:58.833Z</time>
      </trkpt>
      <trkpt lat="43.21297" lon="3.16328">
        <ele>115</ele>
        <time>2024-09-20T15:45:02.833Z</time>
      </trkpt>
      <trkpt lat="43.21295" lon="3.16325">
        <ele>115</ele>
        <time>2024-09-20T15:45:07.833Z</time>
      </trkpt>
      <trkpt lat="43.21292" lon="3.16321">
        <ele>115</ele>
        <time>2024-09-20T15:45:11.833Z</time>
      </trkpt>
      <trkpt lat="43.2129" lon="3.16317">
        <ele>112</ele>
        <time>2024-09-20T15:45:15.833Z</time>
      </trkpt>
      <trkpt lat="43.21287" lon="3.16314">
        <ele>112</ele>
        <time>2024-09-20T15:45:19.833Z</time>
      </trkpt>
      <trkpt lat="43.21283" lon="3.16309">
        <ele>112</ele>
        <time>2024-09-20T15:45:24.833Z</time>
      </trkpt>
      <trkpt lat="43.2128" lon="3.16303">
        <ele>112</ele>
        <time>2024-09-20T15:45:29.833Z</time>
      </trkpt>
      <trkpt lat="43.21279" lon="3.16297">
        <ele>112</ele>
        <time>2024-09-20T15:45:34.833Z</time>
      </trkpt>
      <trkpt lat="43.21279" lon="3.1629">
        <ele>112</ele>
        <time>2024-09-20T15:45:38.833Z</time>
      </trkpt>
      <trkpt lat="43.21279" lon="3.16284">
        <ele>112</ele>
        <time>2024-09-20T15:45:43.833Z</time>
      </trkpt>
      <trkpt lat="43.21279" lon="3.16276">
        <ele>112</ele>
        <time>2024-09-20T15:45:47.833Z</time>
      </trkpt>
      <trkpt lat="43.2128" lon="3.16272">
        <ele>112</ele>
        <time>2024-09-20T15:45:51.833Z</time>
      </trkpt>
      <trkpt lat="43.21281" lon="3.16262">
        <ele>111</ele>
        <time>2024-09-20T15:45:56.833Z</time>
      </trkpt>
      <trkpt lat="43.21283" lon="3.16255">
        <ele>111</ele>
        <time>2024-09-20T15:46:01.833Z</time>
      </trkpt>
      <trkpt lat="43.21284" lon="3.16249">
        <ele>111</ele>
        <time>2024-09-20T15:46:05.833Z</time>
      </trkpt>
      <trkpt lat="43.21284" lon="3.16242">
        <ele>111</ele>
        <time>2024-09-20T15:46:10.833Z</time>
      </trkpt>
      <trkpt lat="43.21284" lon="3.16237">
        <ele>111</ele>
        <time>2024-09-20T15:46:15.833Z</time>
      </trkpt>
      <trkpt lat="43.21287" lon="3.1623">
        <ele>109</ele>
        <time>2024-09-20T15:46:19.833Z</time>
      </trkpt>
      <trkpt lat="43.21287" lon="3.16226">
        <ele>109</ele>
        <time>2024-09-20T15:46:23.833Z</time>
      </trkpt>
      <trkpt lat="43.21288" lon="3.16216">
        <ele>109</ele>
        <time>2024-09-20T15:46:28.833Z</time>
      </trkpt>
      <trkpt lat="43.21289" lon="3.16212">
        <ele>109</ele>
        <time>2024-09-20T15:46:33.833Z</time>
      </trkpt>
      <trkpt lat="43.21293" lon="3.16208">
        <ele>108</ele>
        <time>2024-09-20T15:46:38.833Z</time>
      </trkpt>
      <trkpt lat="43.21295" lon="3.16197">
        <ele>108</ele>
        <time>2024-09-20T15:46:42.833Z</time>
      </trkpt>
      <trkpt lat="43.21297" lon="3.1619">
        <ele>108</ele>
        <time>2024-09-20T15:46:46.833Z</time>
      </trkpt>
      <trkpt lat="43.21298" lon="3.16183">
        <ele>108</ele>
        <time>2024-09-20T15:46:51.833Z</time>
      </trkpt>
      <trkpt lat="43.21298" lon="3.16175">
        <ele>108</ele>
        <time>2024-09-20T15:46:55.833Z</time>
      </trkpt>
      <trkpt lat="43.21296" lon="3.1617">
        <ele>108</ele>
        <time>2024-09-20T15:47:00.833Z</time>
      </trkpt>
      <trkpt lat="43.21295" lon="3.16165">
        <ele>108</ele>
        <time>2024-09-20T15:47:04.833Z</time>
      </trkpt>
      <trkpt lat="43.21294" lon="3.16159">
        <ele>108</ele>
        <time>2024-09-20T15:47:09.833Z</time>
      </trkpt>
      <trkpt lat="43.21293" lon="3.16151">
        <ele>107</ele>
        <time>2024-09-20T15:47:14.833Z</time>
      </trkpt>
      <trkpt lat="43.21292" lon="3.16145">
        <ele>107</ele>
        <time>2024-09-20T15:47:18.833Z</time>
      </trkpt>
      <trkpt lat="43.21291" lon="3.1614">
        <ele>106</ele>
        <time>2024-09-20T15:47:22.833Z</time>
      </trkpt>
      <trkpt lat="43.21291" lon="3.16131">
        <ele>106</ele>
        <time>2024-09-20T15:47:27.833Z</time>
      </trkpt>
      <trkpt lat="43.2129" lon="3.16124">
        <ele>107</ele>
        <time>2024-09-20T15:47:32.833Z</time>
      </trkpt>
      <trkpt lat="43.21287" lon="3.16121">
        <ele>107</ele>
        <time>2024-09-20T15:47:36.833Z</time>
      </trkpt>
      <trkpt lat="43.21279" lon="3.16119">
        <ele>107</ele>
        <time>2024-09-20T15:47:41.833Z</time>
      </trkpt>
      <trkpt lat="43.21275" lon="3.16121">
        <ele>107</ele>
        <time>2024-09-20T15:47:46.833Z</time>
      </trkpt>
      <trkpt lat="43.21269" lon="3.1612">
        <ele>107</ele>
        <time>2024-09-20T15:47:51.833Z</time>
      </trkpt>
      <trkpt lat="43.21263" lon="3.1612">
        <ele>105</ele>
        <time>2024-09-20T15:47:56.833Z</time>
      </trkpt>
      <trkpt lat="43.21259" lon="3.16119">
        <ele>105</ele>
        <time>2024-09-20T15:48:01.833Z</time>
      </trkpt>
      <trkpt lat="43.21255" lon="3.1612">
        <ele>105</ele>
        <time>2024-09-20T15:48:06.833Z</time>
      </trkpt>
      <trkpt lat="43.2125" lon="3.1612">
        <ele>105</ele>
        <time>2024-09-20T15:48:10.833Z</time>
      </trkpt>
      <trkpt lat="43.21247" lon="3.16119">
        <ele>105</ele>
        <time>2024-09-20T15:48:15.833Z</time>
      </trkpt>
      <trkpt lat="43.21245" lon="3.16121">
        <ele>105</ele>
        <time>2024-09-20T15:48:20.833Z</time>
      </trkpt>
      <trkpt lat="43.21238" lon="3.16116">
        <ele>105</ele>
        <time>2024-09-20T15:48:25.833Z</time>
      </trkpt>
      <trkpt lat="43.21232" lon="3.16112">
        <ele>103</ele>
        <time>2024-09-20T15:48:30.833Z</time>
      </trkpt>
      <trkpt lat="43.21229" lon="3.16109">
        <ele>103</ele>
        <time>2024-09-20T15:48:34.833Z</time>
      </trkpt>
      <trkpt lat="43.21225" lon="3.16106">
        <ele>103</ele>
        <time>2024-09-20T15:48:39.833Z</time>
      </trkpt>
      <trkpt lat="43.21219" lon="3.16102">
        <ele>103</ele>
        <time>2024-09-20T15:48:44.833Z</time>
      </trkpt>
      <trkpt lat="43.21214" lon="3.16099">
        <ele>103</ele>
        <time>2024-09-20T15:48:49.833Z</time>
      </trkpt>
      <trkpt lat="43.2121" lon="3.16096">
        <ele>104</ele>
        <time>2024-09-20T15:48:53.833Z</time>
      </trkpt>
      <trkpt lat="43.21204" lon="3.16093">
        <ele>103</ele>
        <time>2024-09-20T15:48:58.832Z</time>
      </trkpt>
      <trkpt lat="43.21202" lon="3.16088">
        <ele>103</ele>
        <time>2024-09-20T15:49:03.832Z</time>
      </trkpt>
      <trkpt lat="43.21198" lon="3.1608">
        <ele>103</ele>
        <time>2024-09-20T15:49:08.832Z</time>
      </trkpt>
      <trkpt lat="43.21194" lon="3.16078">
        <ele>103</ele>
        <time>2024-09-20T15:49:13.832Z</time>
      </trkpt>
      <trkpt lat="43.21187" lon="3.16074">
        <ele>103</ele>
        <time>2024-09-20T15:49:18.832Z</time>
      </trkpt>
      <trkpt lat="43.21183" lon="3.16072">
        <ele>103</ele>
        <time>2024-09-20T15:49:22.832Z</time>
      </trkpt>
      <trkpt lat="43.21177" lon="3.16071">
        <ele>100</ele>
        <time>2024-09-20T15:49:27.832Z</time>
      </trkpt>
      <trkpt lat="43.21173" lon="3.16071">
        <ele>100</ele>
        <time>2024-09-20T15:49:31.832Z</time>
      </trkpt>
      <trkpt lat="43.21164" lon="3.16065">
        <ele>101</ele>
        <time>2024-09-20T15:49:46.832Z</time>
      </trkpt>
      <trkpt lat="43.21162" lon="3.16064">
        <ele>101</ele>
        <time>2024-09-20T15:49:50.832Z</time>
      </trkpt>
      <trkpt lat="43.21158" lon="3.16061">
        <ele>101</ele>
        <time>2024-09-20T15:49:55.832Z</time>
      </trkpt>
      <trkpt lat="43.21152" lon="3.16056">
        <ele>100</ele>
        <time>2024-09-20T15:50:00.832Z</time>
      </trkpt>
      <trkpt lat="43.21148" lon="3.16052">
        <ele>100</ele>
        <time>2024-09-20T15:50:05.832Z</time>
      </trkpt>
      <trkpt lat="43.21144" lon="3.16047">
        <ele>100</ele>
        <time>2024-09-20T15:50:09.832Z</time>
      </trkpt>
      <trkpt lat="43.21141" lon="3.16044">
        <ele>100</ele>
        <time>2024-09-20T15:50:13.832Z</time>
      </trkpt>
      <trkpt lat="43.21137" lon="3.16039">
        <ele>101</ele>
        <time>2024-09-20T15:50:18.832Z</time>
      </trkpt>
      <trkpt lat="43.21134" lon="3.16037">
        <ele>101</ele>
        <time>2024-09-20T15:50:23.832Z</time>
      </trkpt>
      <trkpt lat="43.21129" lon="3.1604">
        <ele>101</ele>
        <time>2024-09-20T15:50:28.832Z</time>
      </trkpt>
      <trkpt lat="43.21126" lon="3.16044">
        <ele>100</ele>
        <time>2024-09-20T15:50:32.832Z</time>
      </trkpt>
      <trkpt lat="43.21122" lon="3.16049">
        <ele>99</ele>
        <time>2024-09-20T15:50:37.832Z</time>
      </trkpt>
      <trkpt lat="43.21121" lon="3.16053">
        <ele>99</ele>
        <time>2024-09-20T15:50:42.832Z</time>
      </trkpt>
      <trkpt lat="43.21118" lon="3.16061">
        <ele>99</ele>
        <time>2024-09-20T15:50:46.832Z</time>
      </trkpt>
      <trkpt lat="43.21117" lon="3.16067">
        <ele>99</ele>
        <time>2024-09-20T15:50:51.832Z</time>
      </trkpt>
      <trkpt lat="43.21115" lon="3.16074">
        <ele>98</ele>
        <time>2024-09-20T15:50:55.832Z</time>
      </trkpt>
      <trkpt lat="43.21115" lon="3.1608">
        <ele>98</ele>
        <time>2024-09-20T15:51:00.832Z</time>
      </trkpt>
      <trkpt lat="43.21114" lon="3.16088">
        <ele>98</ele>
        <time>2024-09-20T15:51:05.832Z</time>
      </trkpt>
      <trkpt lat="43.21114" lon="3.16094">
        <ele>98</ele>
        <time>2024-09-20T15:51:09.832Z</time>
      </trkpt>
      <trkpt lat="43.21113" lon="3.16101">
        <ele>96</ele>
        <time>2024-09-20T15:51:14.832Z</time>
      </trkpt>
      <trkpt lat="43.21112" lon="3.1611">
        <ele>96</ele>
        <time>2024-09-20T15:51:19.832Z</time>
      </trkpt>
      <trkpt lat="43.21112" lon="3.16115">
        <ele>96</ele>
        <time>2024-09-20T15:51:24.832Z</time>
      </trkpt>
      <trkpt lat="43.2111" lon="3.16124">
        <ele>96</ele>
        <time>2024-09-20T15:51:28.832Z</time>
      </trkpt>
      <trkpt lat="43.2111" lon="3.16131">
        <ele>95</ele>
        <time>2024-09-20T15:51:33.832Z</time>
      </trkpt>
      <trkpt lat="43.21107" lon="3.1614">
        <ele>95</ele>
        <time>2024-09-20T15:51:38.832Z</time>
      </trkpt>
      <trkpt lat="43.21108" lon="3.16148">
        <ele>95</ele>
        <time>2024-09-20T15:51:43.832Z</time>
      </trkpt>
      <trkpt lat="43.21105" lon="3.16158">
        <ele>95</ele>
        <time>2024-09-20T15:51:48.832Z</time>
      </trkpt>
      <trkpt lat="43.21102" lon="3.16162">
        <ele>95</ele>
        <time>2024-09-20T15:51:53.832Z</time>
      </trkpt>
      <trkpt lat="43.21101" lon="3.16168">
        <ele>95</ele>
        <time>2024-09-20T15:51:58.832Z</time>
      </trkpt>
      <trkpt lat="43.211" lon="3.16177">
        <ele>95</ele>
        <time>2024-09-20T15:52:03.832Z</time>
      </trkpt>
      <trkpt lat="43.211" lon="3.16183">
        <ele>95</ele>
        <time>2024-09-20T15:52:07.832Z</time>
      </trkpt>
      <trkpt lat="43.21098" lon="3.16191">
        <ele>95</ele>
        <time>2024-09-20T15:52:12.832Z</time>
      </trkpt>
      <trkpt lat="43.21098" lon="3.16196">
        <ele>95</ele>
        <time>2024-09-20T15:52:16.832Z</time>
      </trkpt>
      <trkpt lat="43.21097" lon="3.16207">
        <ele>94</ele>
        <time>2024-09-20T15:52:21.832Z</time>
      </trkpt>
      <trkpt lat="43.21097" lon="3.16213">
        <ele>94</ele>
        <time>2024-09-20T15:52:26.832Z</time>
      </trkpt>
      <trkpt lat="43.21096" lon="3.16221">
        <ele>94</ele>
        <time>2024-09-20T15:52:30.832Z</time>
      </trkpt>
      <trkpt lat="43.21095" lon="3.16225">
        <ele>94</ele>
        <time>2024-09-20T15:52:35.832Z</time>
      </trkpt>
      <trkpt lat="43.21094" lon="3.16234">
        <ele>94</ele>
        <time>2024-09-20T15:52:39.832Z</time>
      </trkpt>
      <trkpt lat="43.21093" lon="3.16239">
        <ele>95</ele>
        <time>2024-09-20T15:52:44.832Z</time>
      </trkpt>
      <trkpt lat="43.21092" lon="3.16248">
        <ele>95</ele>
        <time>2024-09-20T15:52:49.832Z</time>
      </trkpt>
      <trkpt lat="43.21092" lon="3.16253">
        <ele>95</ele>
        <time>2024-09-20T15:52:53.832Z</time>
      </trkpt>
      <trkpt lat="43.2109" lon="3.16263">
        <ele>95</ele>
        <time>2024-09-20T15:52:58.832Z</time>
      </trkpt>
      <trkpt lat="43.2109" lon="3.16269">
        <ele>95</ele>
        <time>2024-09-20T15:53:03.832Z</time>
      </trkpt>
      <trkpt lat="43.21088" lon="3.16277">
        <ele>95</ele>
        <time>2024-09-20T15:53:07.832Z</time>
      </trkpt>
      <trkpt lat="43.21088" lon="3.16281">
        <ele>95</ele>
        <time>2024-09-20T15:53:12.832Z</time>
      </trkpt>
      <trkpt lat="43.21088" lon="3.16294">
        <ele>95</ele>
        <time>2024-09-20T15:53:17.832Z</time>
      </trkpt>
      <trkpt lat="43.21087" lon="3.16301">
        <ele>95</ele>
        <time>2024-09-20T15:53:22.832Z</time>
      </trkpt>
      <trkpt lat="43.21085" lon="3.16311">
        <ele>95</ele>
        <time>2024-09-20T15:53:27.832Z</time>
      </trkpt>
      <trkpt lat="43.21085" lon="3.16314">
        <ele>95</ele>
        <time>2024-09-20T15:53:31.832Z</time>
      </trkpt>
      <trkpt lat="43.21084" lon="3.16324">
        <ele>94</ele>
        <time>2024-09-20T15:53:36.832Z</time>
      </trkpt>
      <trkpt lat="43.21084" lon="3.16329">
        <ele>94</ele>
        <time>2024-09-20T15:53:40.832Z</time>
      </trkpt>
      <trkpt lat="43.21076" lon="3.16331">
        <ele>94</ele>
        <time>2024-09-20T15:53:45.832Z</time>
      </trkpt>
      <trkpt lat="43.21072" lon="3.16333">
        <ele>94</ele>
        <time>2024-09-20T15:53:50.832Z</time>
      </trkpt>
      <trkpt lat="43.21068" lon="3.16335">
        <ele>96</ele>
        <time>2024-09-20T15:53:55.832Z</time>
      </trkpt>
      <trkpt lat="43.21065" lon="3.16339">
        <ele>96</ele>
        <time>2024-09-20T15:53:59.832Z</time>
      </trkpt>
      <trkpt lat="43.21063" lon="3.16347">
        <ele>96</ele>
        <time>2024-09-20T15:54:04.832Z</time>
      </trkpt>
      <trkpt lat="43.21063" lon="3.16355">
        <ele>95</ele>
        <time>2024-09-20T15:54:09.832Z</time>
      </trkpt>
      <trkpt lat="43.21061" lon="3.16364">
        <ele>95</ele>
        <time>2024-09-20T15:54:14.832Z</time>
      </trkpt>
      <trkpt lat="43.21061" lon="3.16368">
        <ele>95</ele>
        <time>2024-09-20T15:54:18.832Z</time>
      </trkpt>
      <trkpt lat="43.2106" lon="3.16379">
        <ele>95</ele>
        <time>2024-09-20T15:54:23.832Z</time>
      </trkpt>
      <trkpt lat="43.2106" lon="3.16384">
        <ele>95</ele>
        <time>2024-09-20T15:54:28.832Z</time>
      </trkpt>
      <trkpt lat="43.21059" lon="3.16394">
        <ele>95</ele>
        <time>2024-09-20T15:54:33.832Z</time>
      </trkpt>
      <trkpt lat="43.2106" lon="3.16398">
        <ele>95</ele>
        <time>2024-09-20T15:54:38.832Z</time>
      </trkpt>
      <trkpt lat="43.21058" lon="3.16407">
        <ele>94</ele>
        <time>2024-09-20T15:54:42.832Z</time>
      </trkpt>
      <trkpt lat="43.21057" lon="3.16412">
        <ele>94</ele>
        <time>2024-09-20T15:54:46.832Z</time>
      </trkpt>
      <trkpt lat="43.21056" lon="3.1642">
        <ele>94</ele>
        <time>2024-09-20T15:54:51.832Z</time>
      </trkpt>
      <trkpt lat="43.21057" lon="3.16427">
        <ele>94</ele>
        <time>2024-09-20T15:54:56.832Z</time>
      </trkpt>
      <trkpt lat="43.21058" lon="3.16438">
        <ele>92</ele>
        <time>2024-09-20T15:55:01.832Z</time>
      </trkpt>
      <trkpt lat="43.21058" lon="3.16442">
        <ele>92</ele>
        <time>2024-09-20T15:55:06.832Z</time>
      </trkpt>
      <trkpt lat="43.21058" lon="3.16451">
        <ele>92</ele>
        <time>2024-09-20T15:55:11.832Z</time>
      </trkpt>
      <trkpt lat="43.21058" lon="3.16456">
        <ele>92</ele>
        <time>2024-09-20T15:55:16.832Z</time>
      </trkpt>
      <trkpt lat="43.21055" lon="3.16467">
        <ele>90</ele>
        <time>2024-09-20T15:55:21.832Z</time>
      </trkpt>
      <trkpt lat="43.21054" lon="3.16472">
        <ele>90</ele>
        <time>2024-09-20T15:55:26.832Z</time>
      </trkpt>
      <trkpt lat="43.21052" lon="3.16479">
        <ele>90</ele>
        <time>2024-09-20T15:55:31.832Z</time>
      </trkpt>
      <trkpt lat="43.21051" lon="3.16488">
        <ele>89</ele>
        <time>2024-09-20T15:55:36.832Z</time>
      </trkpt>
      <trkpt lat="43.21049" lon="3.16493">
        <ele>89</ele>
        <time>2024-09-20T15:55:40.832Z</time>
      </trkpt>
      <trkpt lat="43.21046" lon="3.16497">
        <ele>89</ele>
        <time>2024-09-20T15:55:44.832Z</time>
      </trkpt>
      <trkpt lat="43.21044" lon="3.16503">
        <ele>89</ele>
        <time>2024-09-20T15:55:49.832Z</time>
      </trkpt>
      <trkpt lat="43.21042" lon="3.16512">
        <ele>89</ele>
        <time>2024-09-20T15:55:54.832Z</time>
      </trkpt>
      <trkpt lat="43.21041" lon="3.16516">
        <ele>89</ele>
        <time>2024-09-20T15:55:58.832Z</time>
      </trkpt>
      <trkpt lat="43.21039" lon="3.16526">
        <ele>89</ele>
        <time>2024-09-20T15:56:03.832Z</time>
      </trkpt>
      <trkpt lat="43.21038" lon="3.16531">
        <ele>89</ele>
        <time>2024-09-20T15:56:07.832Z</time>
      </trkpt>
      <trkpt lat="43.21036" lon="3.16541">
        <ele>89</ele>
        <time>2024-09-20T15:56:12.832Z</time>
      </trkpt>
      <trkpt lat="43.21036" lon="3.16548">
        <ele>90</ele>
        <time>2024-09-20T15:56:17.832Z</time>
      </trkpt>
      <trkpt lat="43.21036" lon="3.16554">
        <ele>90</ele>
        <time>2024-09-20T15:56:22.832Z</time>
      </trkpt>
      <trkpt lat="43.21034" lon="3.16561">
        <ele>90</ele>
        <time>2024-09-20T15:56:27.832Z</time>
      </trkpt>
      <trkpt lat="43.21033" lon="3.16567">
        <ele>90</ele>
        <time>2024-09-20T15:56:31.832Z</time>
      </trkpt>
      <trkpt lat="43.21032" lon="3.16573">
        <ele>90</ele>
        <time>2024-09-20T15:56:35.832Z</time>
      </trkpt>
      <trkpt lat="43.21032" lon="3.16578">
        <ele>90</ele>
        <time>2024-09-20T15:56:40.832Z</time>
      </trkpt>
      <trkpt lat="43.2103" lon="3.16587">
        <ele>90</ele>
        <time>2024-09-20T15:56:45.832Z</time>
      </trkpt>
      <trkpt lat="43.2103" lon="3.16593">
        <ele>90</ele>
        <time>2024-09-20T15:56:49.832Z</time>
      </trkpt>
      <trkpt lat="43.21029" lon="3.16603">
        <ele>90</ele>
        <time>2024-09-20T15:56:54.832Z</time>
      </trkpt>
      <trkpt lat="43.21029" lon="3.16607">
        <ele>90</ele>
        <time>2024-09-20T15:56:59.832Z</time>
      </trkpt>
      <trkpt lat="43.21028" lon="3.16615">
        <ele>90</ele>
        <time>2024-09-20T15:57:03.832Z</time>
      </trkpt>
      <trkpt lat="43.21028" lon="3.16621">
        <ele>90</ele>
        <time>2024-09-20T15:57:08.832Z</time>
      </trkpt>
      <trkpt lat="43.21027" lon="3.16633">
        <ele>88</ele>
        <time>2024-09-20T15:57:13.832Z</time>
      </trkpt>
      <trkpt lat="43.21027" lon="3.16636">
        <ele>88</ele>
        <time>2024-09-20T15:57:17.832Z</time>
      </trkpt>
      <trkpt lat="43.21025" lon="3.16646">
        <ele>88</ele>
        <time>2024-09-20T15:57:22.832Z</time>
      </trkpt>
      <trkpt lat="43.21027" lon="3.16652">
        <ele>88</ele>
        <time>2024-09-20T15:57:27.832Z</time>
      </trkpt>
      <trkpt lat="43.21026" lon="3.16659">
        <ele>87</ele>
        <time>2024-09-20T15:57:32.832Z</time>
      </trkpt>
      <trkpt lat="43.21025" lon="3.16667">
        <ele>87</ele>
        <time>2024-09-20T15:57:37.832Z</time>
      </trkpt>
      <trkpt lat="43.21024" lon="3.16672">
        <ele>87</ele>
        <time>2024-09-20T15:57:42.832Z</time>
      </trkpt>
      <trkpt lat="43.21022" lon="3.16677">
        <ele>87</ele>
        <time>2024-09-20T15:57:46.832Z</time>
      </trkpt>
      <trkpt lat="43.21019" lon="3.16685">
        <ele>85</ele>
        <time>2024-09-20T15:57:51.832Z</time>
      </trkpt>
      <trkpt lat="43.21018" lon="3.16689">
        <ele>85</ele>
        <time>2024-09-20T15:57:55.832Z</time>
      </trkpt>
      <trkpt lat="43.21016" lon="3.16696">
        <ele>85</ele>
        <time>2024-09-20T15:58:00.832Z</time>
      </trkpt>
      <trkpt lat="43.21014" lon="3.16701">
        <ele>85</ele>
        <time>2024-09-20T15:58:05.833Z</time>
      </trkpt>
      <trkpt lat="43.21014" lon="3.16707">
        <ele>85</ele>
        <time>2024-09-20T15:58:09.833Z</time>
      </trkpt>
      <trkpt lat="43.21014" lon="3.16711">
        <ele>84</ele>
        <time>2024-09-20T15:58:13.833Z</time>
      </trkpt>
      <trkpt lat="43.21013" lon="3.16719">
        <ele>84</ele>
        <time>2024-09-20T15:58:18.833Z</time>
      </trkpt>
      <trkpt lat="43.21013" lon="3.16723">
        <ele>84</ele>
        <time>2024-09-20T15:58:22.833Z</time>
      </trkpt>
      <trkpt lat="43.2101" lon="3.16729">
        <ele>84</ele>
        <time>2024-09-20T15:58:27.833Z</time>
      </trkpt>
      <trkpt lat="43.21006" lon="3.16735">
        <ele>84</ele>
        <time>2024-09-20T15:58:32.833Z</time>
      </trkpt>
      <trkpt lat="43.21007" lon="3.1674">
        <ele>84</ele>
        <time>2024-09-20T15:58:36.833Z</time>
      </trkpt>
      <trkpt lat="43.21005" lon="3.16747">
        <ele>84</ele>
        <time>2024-09-20T15:58:41.833Z</time>
      </trkpt>
      <trkpt lat="43.21001" lon="3.16751">
        <ele>84</ele>
        <time>2024-09-20T15:58:45.833Z</time>
      </trkpt>
      <trkpt lat="43.20998" lon="3.16756">
        <ele>84</ele>
        <time>2024-09-20T15:58:50.833Z</time>
      </trkpt>
      <trkpt lat="43.20999" lon="3.16765">
        <ele>82</ele>
        <time>2024-09-20T15:58:55.833Z</time>
      </trkpt>
      <trkpt lat="43.20998" lon="3.1677">
        <ele>82</ele>
        <time>2024-09-20T15:59:00.833Z</time>
      </trkpt>
      <trkpt lat="43.20995" lon="3.16775">
        <ele>82</ele>
        <time>2024-09-20T15:59:04.833Z</time>
      </trkpt>
      <trkpt lat="43.20991" lon="3.16778">
        <ele>82</ele>
        <time>2024-09-20T15:59:08.833Z</time>
      </trkpt>
      <trkpt lat="43.20988" lon="3.16779">
        <ele>82</ele>
        <time>2024-09-20T15:59:13.833Z</time>
      </trkpt>
      <trkpt lat="43.20983" lon="3.16778">
        <ele>80</ele>
        <time>2024-09-20T15:59:17.833Z</time>
      </trkpt>
      <trkpt lat="43.20979" lon="3.16779">
        <ele>80</ele>
        <time>2024-09-20T15:59:21.833Z</time>
      </trkpt>
      <trkpt lat="43.20973" lon="3.16782">
        <ele>80</ele>
        <time>2024-09-20T15:59:26.833Z</time>
      </trkpt>
      <trkpt lat="43.20967" lon="3.16784">
        <ele>80</ele>
        <time>2024-09-20T15:59:31.833Z</time>
      </trkpt>
      <trkpt lat="43.20964" lon="3.16786">
        <ele>80</ele>
        <time>2024-09-20T15:59:36.833Z</time>
      </trkpt>
      <trkpt lat="43.2096" lon="3.16786">
        <ele>80</ele>
        <time>2024-09-20T15:59:41.833Z</time>
      </trkpt>
      <trkpt lat="43.20956" lon="3.16783">
        <ele>77</ele>
        <time>2024-09-20T15:59:46.833Z</time>
      </trkpt>
      <trkpt lat="43.20951" lon="3.1678">
        <ele>77</ele>
        <time>2024-09-20T15:59:51.833Z</time>
      </trkpt>
      <trkpt lat="43.20948" lon="3.16777">
        <ele>77</ele>
        <time>2024-09-20T15:59:55.833Z</time>
      </trkpt>
      <trkpt lat="43.20946" lon="3.1677">
        <ele>77</ele>
        <time>2024-09-20T16:00:00.833Z</time>
      </trkpt>
      <trkpt lat="43.20944" lon="3.16766">
        <ele>77</ele>
        <time>2024-09-20T16:00:04.833Z</time>
      </trkpt>
      <trkpt lat="43.20941" lon="3.16761">
        <ele>78</ele>
        <time>2024-09-20T16:00:09.833Z</time>
      </trkpt>
      <trkpt lat="43.20938" lon="3.16757">
        <ele>78</ele>
        <time>2024-09-20T16:00:14.833Z</time>
      </trkpt>
      <trkpt lat="43.20934" lon="3.16753">
        <ele>78</ele>
        <time>2024-09-20T16:00:19.833Z</time>
      </trkpt>
      <trkpt lat="43.20929" lon="3.16748">
        <ele>73</ele>
        <time>2024-09-20T16:00:24.833Z</time>
      </trkpt>
      <trkpt lat="43.20926" lon="3.16746">
        <ele>73</ele>
        <time>2024-09-20T16:00:28.833Z</time>
      </trkpt>
      <trkpt lat="43.20921" lon="3.16745">
        <ele>73</ele>
        <time>2024-09-20T16:00:32.833Z</time>
      </trkpt>
      <trkpt lat="43.20918" lon="3.16743">
        <ele>73</ele>
        <time>2024-09-20T16:00:37.833Z</time>
      </trkpt>
      <trkpt lat="43.20913" lon="3.16743">
        <ele>73</ele>
        <time>2024-09-20T16:00:42.833Z</time>
      </trkpt>
      <trkpt lat="43.20905" lon="3.16741">
        <ele>73</ele>
        <time>2024-09-20T16:00:47.833Z</time>
      </trkpt>
      <trkpt lat="43.20901" lon="3.1674">
        <ele>69</ele>
        <time>2024-09-20T16:00:52.833Z</time>
      </trkpt>
      <trkpt lat="43.20896" lon="3.16741">
        <ele>69</ele>
        <time>2024-09-20T16:00:57.833Z</time>
      </trkpt>
      <trkpt lat="43.2089" lon="3.16739">
        <ele>69</ele>
        <time>2024-09-20T16:01:01.833Z</time>
      </trkpt>
      <trkpt lat="43.20886" lon="3.16737">
        <ele>69</ele>
        <time>2024-09-20T16:01:06.833Z</time>
      </trkpt>
      <trkpt lat="43.20881" lon="3.16735">
        <ele>70</ele>
        <time>2024-09-20T16:01:11.833Z</time>
      </trkpt>
      <trkpt lat="43.20875" lon="3.16733">
        <ele>68</ele>
        <time>2024-09-20T16:01:16.833Z</time>
      </trkpt>
      <trkpt lat="43.20872" lon="3.16731">
        <ele>68</ele>
        <time>2024-09-20T16:01:20.833Z</time>
      </trkpt>
      <trkpt lat="43.20865" lon="3.16729">
        <ele>68</ele>
        <time>2024-09-20T16:01:25.833Z</time>
      </trkpt>
      <trkpt lat="43.2086" lon="3.16726">
        <ele>68</ele>
        <time>2024-09-20T16:01:30.833Z</time>
      </trkpt>
      <trkpt lat="43.20856" lon="3.16723">
        <ele>68</ele>
        <time>2024-09-20T16:01:35.833Z</time>
      </trkpt>
      <trkpt lat="43.20851" lon="3.16722">
        <ele>68</ele>
        <time>2024-09-20T16:01:39.833Z</time>
      </trkpt>
      <trkpt lat="43.20847" lon="3.1672">
        <ele>66</ele>
        <time>2024-09-20T16:01:44.833Z</time>
      </trkpt>
      <trkpt lat="43.20841" lon="3.16716">
        <ele>66</ele>
        <time>2024-09-20T16:01:49.833Z</time>
      </trkpt>
      <trkpt lat="43.20838" lon="3.16714">
        <ele>66</ele>
        <time>2024-09-20T16:01:54.833Z</time>
      </trkpt>
      <trkpt lat="43.20832" lon="3.1671">
        <ele>66</ele>
        <time>2024-09-20T16:01:59.833Z</time>
      </trkpt>
      <trkpt lat="43.20827" lon="3.16708">
        <ele>66</ele>
        <time>2024-09-20T16:02:04.833Z</time>
      </trkpt>
      <trkpt lat="43.20824" lon="3.16703">
        <ele>66</ele>
        <time>2024-09-20T16:02:09.833Z</time>
      </trkpt>
      <trkpt lat="43.20819" lon="3.16696">
        <ele>64</ele>
        <time>2024-09-20T16:02:14.833Z</time>
      </trkpt>
      <trkpt lat="43.20816" lon="3.16691">
        <ele>64</ele>
        <time>2024-09-20T16:02:19.833Z</time>
      </trkpt>
      <trkpt lat="43.20812" lon="3.16683">
        <ele>64</ele>
        <time>2024-09-20T16:02:24.833Z</time>
      </trkpt>
      <trkpt lat="43.20811" lon="3.16681">
        <ele>64</ele>
        <time>2024-09-20T16:02:28.833Z</time>
      </trkpt>
      <trkpt lat="43.20806" lon="3.16671">
        <ele>64</ele>
        <time>2024-09-20T16:02:33.833Z</time>
      </trkpt>
      <trkpt lat="43.20804" lon="3.16668">
        <ele>64</ele>
        <time>2024-09-20T16:02:38.833Z</time>
      </trkpt>
      <trkpt lat="43.208" lon="3.16659">
        <ele>64</ele>
        <time>2024-09-20T16:02:43.833Z</time>
      </trkpt>
      <trkpt lat="43.20797" lon="3.16655">
        <ele>64</ele>
        <time>2024-09-20T16:02:48.833Z</time>
      </trkpt>
      <trkpt lat="43.20792" lon="3.16647">
        <ele>65</ele>
        <time>2024-09-20T16:02:53.833Z</time>
      </trkpt>
      <trkpt lat="43.2079" lon="3.16643">
        <ele>64</ele>
        <time>2024-09-20T16:02:58.833Z</time>
      </trkpt>
      <trkpt lat="43.20787" lon="3.16636">
        <ele>64</ele>
        <time>2024-09-20T16:03:02.833Z</time>
      </trkpt>
      <trkpt lat="43.20782" lon="3.16631">
        <ele>64</ele>
        <time>2024-09-20T16:03:07.833Z</time>
      </trkpt>
      <trkpt lat="43.20778" lon="3.16625">
        <ele>65</ele>
        <time>2024-09-20T16:03:12.833Z</time>
      </trkpt>
      <trkpt lat="43.20775" lon="3.16622">
        <ele>65</ele>
        <time>2024-09-20T16:03:16.833Z</time>
      </trkpt>
      <trkpt lat="43.20769" lon="3.16615">
        <ele>65</ele>
        <time>2024-09-20T16:03:21.833Z</time>
      </trkpt>
      <trkpt lat="43.20765" lon="3.16612">
        <ele>65</ele>
        <time>2024-09-20T16:03:26.833Z</time>
      </trkpt>
      <trkpt lat="43.20761" lon="3.16606">
        <ele>64</ele>
        <time>2024-09-20T16:03:31.833Z</time>
      </trkpt>
      <trkpt lat="43.20757" lon="3.16601">
        <ele>64</ele>
        <time>2024-09-20T16:03:36.833Z</time>
      </trkpt>
      <trkpt lat="43.20753" lon="3.16597">
        <ele>64</ele>
        <time>2024-09-20T16:03:41.833Z</time>
      </trkpt>
      <trkpt lat="43.20749" lon="3.16593">
        <ele>64</ele>
        <time>2024-09-20T16:03:46.833Z</time>
      </trkpt>
      <trkpt lat="43.20746" lon="3.16588">
        <ele>64</ele>
        <time>2024-09-20T16:03:50.833Z</time>
      </trkpt>
      <trkpt lat="43.20742" lon="3.16585">
        <ele>64</ele>
        <time>2024-09-20T16:03:55.833Z</time>
      </trkpt>
      <trkpt lat="43.20737" lon="3.16581">
        <ele>64</ele>
        <time>2024-09-20T16:03:59.833Z</time>
      </trkpt>
      <trkpt lat="43.20733" lon="3.16577">
        <ele>61</ele>
        <time>2024-09-20T16:04:04.833Z</time>
      </trkpt>
      <trkpt lat="43.20728" lon="3.16574">
        <ele>61</ele>
        <time>2024-09-20T16:04:09.833Z</time>
      </trkpt>
      <trkpt lat="43.20722" lon="3.1657">
        <ele>61</ele>
        <time>2024-09-20T16:04:14.833Z</time>
      </trkpt>
      <trkpt lat="43.20717" lon="3.16568">
        <ele>61</ele>
        <time>2024-09-20T16:04:19.833Z</time>
      </trkpt>
      <trkpt lat="43.20712" lon="3.16561">
        <ele>61</ele>
        <time>2024-09-20T16:04:24.833Z</time>
      </trkpt>
      <trkpt lat="43.20708" lon="3.16558">
        <ele>59</ele>
        <time>2024-09-20T16:04:29.833Z</time>
      </trkpt>
      <trkpt lat="43.20704" lon="3.1655">
        <ele>59</ele>
        <time>2024-09-20T16:04:34.833Z</time>
      </trkpt>
      <trkpt lat="43.20701" lon="3.16547">
        <ele>59</ele>
        <time>2024-09-20T16:04:38.833Z</time>
      </trkpt>
      <trkpt lat="43.20698" lon="3.16541">
        <ele>60</ele>
        <time>2024-09-20T16:04:42.833Z</time>
      </trkpt>
      <trkpt lat="43.20694" lon="3.16538">
        <ele>60</ele>
        <time>2024-09-20T16:04:47.833Z</time>
      </trkpt>
      <trkpt lat="43.2069" lon="3.16534">
        <ele>60</ele>
        <time>2024-09-20T16:04:51.833Z</time>
      </trkpt>
      <trkpt lat="43.20686" lon="3.1653">
        <ele>60</ele>
        <time>2024-09-20T16:04:56.833Z</time>
      </trkpt>
      <trkpt lat="43.20682" lon="3.16525">
        <ele>60</ele>
        <time>2024-09-20T16:05:00.833Z</time>
      </trkpt>
      <trkpt lat="43.20678" lon="3.16519">
        <ele>58</ele>
        <time>2024-09-20T16:05:05.833Z</time>
      </trkpt>
      <trkpt lat="43.20675" lon="3.16512">
        <ele>58</ele>
        <time>2024-09-20T16:05:10.833Z</time>
      </trkpt>
      <trkpt lat="43.20673" lon="3.16506">
        <ele>58</ele>
        <time>2024-09-20T16:05:15.833Z</time>
      </trkpt>
      <trkpt lat="43.20671" lon="3.165">
        <ele>58</ele>
        <time>2024-09-20T16:05:19.833Z</time>
      </trkpt>
      <trkpt lat="43.20669" lon="3.16493">
        <ele>58</ele>
        <time>2024-09-20T16:05:24.833Z</time>
      </trkpt>
      <trkpt lat="43.20666" lon="3.16484">
        <ele>58</ele>
        <time>2024-09-20T16:05:29.833Z</time>
      </trkpt>
      <trkpt lat="43.20664" lon="3.16477">
        <ele>58</ele>
        <time>2024-09-20T16:05:34.833Z</time>
      </trkpt>
      <trkpt lat="43.20662" lon="3.16472">
        <ele>58</ele>
        <time>2024-09-20T16:05:38.833Z</time>
      </trkpt>
      <trkpt lat="43.2066" lon="3.16464">
        <ele>58</ele>
        <time>2024-09-20T16:05:43.833Z</time>
      </trkpt>
      <trkpt lat="43.20657" lon="3.16457">
        <ele>59</ele>
        <time>2024-09-20T16:05:48.833Z</time>
      </trkpt>
      <trkpt lat="43.20654" lon="3.16451">
        <ele>59</ele>
        <time>2024-09-20T16:05:52.833Z</time>
      </trkpt>
      <trkpt lat="43.20652" lon="3.16446">
        <ele>56</ele>
        <time>2024-09-20T16:05:57.833Z</time>
      </trkpt>
      <trkpt lat="43.20651" lon="3.16436">
        <ele>56</ele>
        <time>2024-09-20T16:06:02.833Z</time>
      </trkpt>
      <trkpt lat="43.20649" lon="3.16432">
        <ele>56</ele>
        <time>2024-09-20T16:06:07.833Z</time>
      </trkpt>
      <trkpt lat="43.20647" lon="3.16423">
        <ele>56</ele>
        <time>2024-09-20T16:06:12.833Z</time>
      </trkpt>
      <trkpt lat="43.20645" lon="3.16418">
        <ele>56</ele>
        <time>2024-09-20T16:06:16.833Z</time>
      </trkpt>
      <trkpt lat="43.20641" lon="3.1641">
        <ele>56</ele>
        <time>2024-09-20T16:06:21.833Z</time>
      </trkpt>
      <trkpt lat="43.20637" lon="3.16406">
        <ele>56</ele>
        <time>2024-09-20T16:06:26.833Z</time>
      </trkpt>
      <trkpt lat="43.20635" lon="3.16403">
        <ele>56</ele>
        <time>2024-09-20T16:06:30.833Z</time>
      </trkpt>
      <trkpt lat="43.20632" lon="3.16395">
        <ele>56</ele>
        <time>2024-09-20T16:06:35.833Z</time>
      </trkpt>
      <trkpt lat="43.20628" lon="3.16392">
        <ele>56</ele>
        <time>2024-09-20T16:06:39.833Z</time>
      </trkpt>
      <trkpt lat="43.20625" lon="3.16386">
        <ele>56</ele>
        <time>2024-09-20T16:06:44.833Z</time>
      </trkpt>
      <trkpt lat="43.20623" lon="3.16379">
        <ele>56</ele>
        <time>2024-09-20T16:06:49.833Z</time>
      </trkpt>
      <trkpt lat="43.20619" lon="3.16372">
        <ele>56</ele>
        <time>2024-09-20T16:06:54.833Z</time>
      </trkpt>
      <trkpt lat="43.20619" lon="3.16365">
        <ele>56</ele>
        <time>2024-09-20T16:06:58.833Z</time>
      </trkpt>
      <trkpt lat="43.20618" lon="3.1636">
        <ele>56</ele>
        <time>2024-09-20T16:07:02.833Z</time>
      </trkpt>
      <trkpt lat="43.20614" lon="3.16354">
        <ele>56</ele>
        <time>2024-09-20T16:07:07.833Z</time>
      </trkpt>
      <trkpt lat="43.20611" lon="3.16347">
        <ele>56</ele>
        <time>2024-09-20T16:07:12.833Z</time>
      </trkpt>
      <trkpt lat="43.20611" lon="3.16339">
        <ele>58</ele>
        <time>2024-09-20T16:07:17.833Z</time>
      </trkpt>
      <trkpt lat="43.20611" lon="3.16332">
        <ele>58</ele>
        <time>2024-09-20T16:07:22.833Z</time>
      </trkpt>
      <trkpt lat="43.2061" lon="3.16325">
        <ele>58</ele>
        <time>2024-09-20T16:07:27.833Z</time>
      </trkpt>
      <trkpt lat="43.20609" lon="3.16321">
        <ele>58</ele>
        <time>2024-09-20T16:07:31.833Z</time>
      </trkpt>
      <trkpt lat="43.20608" lon="3.16314">
        <ele>59</ele>
        <time>2024-09-20T16:07:36.833Z</time>
      </trkpt>
      <trkpt lat="43.20606" lon="3.16305">
        <ele>59</ele>
        <time>2024-09-20T16:07:41.833Z</time>
      </trkpt>
      <trkpt lat="43.20605" lon="3.16299">
        <ele>59</ele>
        <time>2024-09-20T16:07:45.833Z</time>
      </trkpt>
      <trkpt lat="43.20602" lon="3.16291">
        <ele>60</ele>
        <time>2024-09-20T16:07:50.833Z</time>
      </trkpt>
      <trkpt lat="43.20599" lon="3.16287">
        <ele>60</ele>
        <time>2024-09-20T16:07:55.833Z</time>
      </trkpt>
      <trkpt lat="43.20595" lon="3.16282">
        <ele>59</ele>
        <time>2024-09-20T16:07:59.833Z</time>
      </trkpt>
      <trkpt lat="43.20592" lon="3.16279">
        <ele>59</ele>
        <time>2024-09-20T16:08:03.833Z</time>
      </trkpt>
      <trkpt lat="43.20587" lon="3.16274">
        <ele>59</ele>
        <time>2024-09-20T16:08:08.833Z</time>
      </trkpt>
      <trkpt lat="43.20583" lon="3.16271">
        <ele>59</ele>
        <time>2024-09-20T16:08:13.833Z</time>
      </trkpt>
      <trkpt lat="43.20579" lon="3.16267">
        <ele>59</ele>
        <time>2024-09-20T16:08:17.833Z</time>
      </trkpt>
      <trkpt lat="43.20574" lon="3.16264">
        <ele>59</ele>
        <time>2024-09-20T16:08:22.833Z</time>
      </trkpt>
      <trkpt lat="43.2057" lon="3.16262">
        <ele>59</ele>
        <time>2024-09-20T16:08:26.833Z</time>
      </trkpt>
      <trkpt lat="43.20565" lon="3.16258">
        <ele>57</ele>
        <time>2024-09-20T16:08:31.833Z</time>
      </trkpt>
      <trkpt lat="43.20562" lon="3.16254">
        <ele>57</ele>
        <time>2024-09-20T16:08:35.833Z</time>
      </trkpt>
      <trkpt lat="43.20558" lon="3.16249">
        <ele>57</ele>
        <time>2024-09-20T16:08:39.833Z</time>
      </trkpt>
      <trkpt lat="43.20553" lon="3.16246">
        <ele>57</ele>
        <time>2024-09-20T16:08:44.833Z</time>
      </trkpt>
      <trkpt lat="43.20548" lon="3.1624">
        <ele>57</ele>
        <time>2024-09-20T16:08:48.833Z</time>
      </trkpt>
      <trkpt lat="43.20544" lon="3.16237">
        <ele>57</ele>
        <time>2024-09-20T16:08:53.833Z</time>
      </trkpt>
      <trkpt lat="43.20539" lon="3.16231">
        <ele>57</ele>
        <time>2024-09-20T16:08:58.833Z</time>
      </trkpt>
      <trkpt lat="43.20536" lon="3.16229">
        <ele>57</ele>
        <time>2024-09-20T16:09:02.833Z</time>
      </trkpt>
      <trkpt lat="43.2053" lon="3.16223">
        <ele>57</ele>
        <time>2024-09-20T16:09:07.833Z</time>
      </trkpt>
      <trkpt lat="43.20528" lon="3.16221">
        <ele>57</ele>
        <time>2024-09-20T16:09:11.833Z</time>
      </trkpt>
      <trkpt lat="43.20523" lon="3.16215">
        <ele>57</ele>
        <time>2024-09-20T16:09:16.833Z</time>
      </trkpt>
      <trkpt lat="43.2052" lon="3.16211">
        <ele>57</ele>
        <time>2024-09-20T16:09:20.833Z</time>
      </trkpt>
      <trkpt lat="43.20518" lon="3.16202">
        <ele>59</ele>
        <time>2024-09-20T16:09:25.833Z</time>
      </trkpt>
      <trkpt lat="43.20516" lon="3.16196">
        <ele>59</ele>
        <time>2024-09-20T16:09:30.833Z</time>
      </trkpt>
      <trkpt lat="43.2051" lon="3.16191">
        <ele>59</ele>
        <time>2024-09-20T16:09:45.833Z</time>
      </trkpt>
      <trkpt lat="43.20508" lon="3.1619">
        <ele>59</ele>
        <time>2024-09-20T16:09:50.833Z</time>
      </trkpt>
      <trkpt lat="43.20504" lon="3.16187">
        <ele>59</ele>
        <time>2024-09-20T16:09:55.833Z</time>
      </trkpt>
      <trkpt lat="43.20498" lon="3.16185">
        <ele>59</ele>
        <time>2024-09-20T16:10:00.833Z</time>
      </trkpt>
      <trkpt lat="43.20492" lon="3.16183">
        <ele>59</ele>
        <time>2024-09-20T16:10:04.833Z</time>
      </trkpt>
      <trkpt lat="43.20488" lon="3.16182">
        <ele>59</ele>
        <time>2024-09-20T16:10:09.833Z</time>
      </trkpt>
      <trkpt lat="43.20482" lon="3.16181">
        <ele>58</ele>
        <time>2024-09-20T16:10:13.833Z</time>
      </trkpt>
      <trkpt lat="43.20478" lon="3.16179">
        <ele>58</ele>
        <time>2024-09-20T16:10:18.833Z</time>
      </trkpt>
      <trkpt lat="43.20472" lon="3.16177">
        <ele>58</ele>
        <time>2024-09-20T16:10:23.833Z</time>
      </trkpt>
      <trkpt lat="43.20466" lon="3.16176">
        <ele>58</ele>
        <time>2024-09-20T16:10:28.833Z</time>
      </trkpt>
      <trkpt lat="43.20462" lon="3.16176">
        <ele>58</ele>
        <time>2024-09-20T16:10:33.833Z</time>
      </trkpt>
      <trkpt lat="43.20456" lon="3.16173">
        <ele>55</ele>
        <time>2024-09-20T16:10:38.833Z</time>
      </trkpt>
      <trkpt lat="43.20451" lon="3.16172">
        <ele>55</ele>
        <time>2024-09-20T16:10:43.833Z</time>
      </trkpt>
      <trkpt lat="43.20448" lon="3.16171">
        <ele>55</ele>
        <time>2024-09-20T16:10:48.833Z</time>
      </trkpt>
      <trkpt lat="43.2044" lon="3.16171">
        <ele>55</ele>
        <time>2024-09-20T16:10:53.833Z</time>
      </trkpt>
      <trkpt lat="43.20437" lon="3.1617">
        <ele>55</ele>
        <time>2024-09-20T16:10:57.833Z</time>
      </trkpt>
      <trkpt lat="43.20431" lon="3.16167">
        <ele>55</ele>
        <time>2024-09-20T16:11:02.833Z</time>
      </trkpt>
      <trkpt lat="43.20427" lon="3.16166">
        <ele>54</ele>
        <time>2024-09-20T16:11:07.833Z</time>
      </trkpt>
      <trkpt lat="43.20422" lon="3.16164">
        <ele>54</ele>
        <time>2024-09-20T16:11:11.833Z</time>
      </trkpt>
      <trkpt lat="43.20417" lon="3.16162">
        <ele>54</ele>
        <time>2024-09-20T16:11:16.833Z</time>
      </trkpt>
      <trkpt lat="43.2041" lon="3.16159">
        <ele>54</ele>
        <time>2024-09-20T16:11:21.833Z</time>
      </trkpt>
      <trkpt lat="43.20406" lon="3.16158">
        <ele>54</ele>
        <time>2024-09-20T16:11:25.833Z</time>
      </trkpt>
      <trkpt lat="43.20401" lon="3.16157">
        <ele>54</ele>
        <time>2024-09-20T16:11:30.833Z</time>
      </trkpt>
      <trkpt lat="43.20399" lon="3.16156">
        <ele>54</ele>
        <time>2024-09-20T16:11:34.833Z</time>
      </trkpt>
      <trkpt lat="43.20391" lon="3.16151">
        <ele>54</ele>
        <time>2024-09-20T16:11:39.833Z</time>
      </trkpt>
      <trkpt lat="43.20388" lon="3.1615">
        <ele>54</ele>
        <time>2024-09-20T16:11:44.833Z</time>
      </trkpt>
      <trkpt lat="43.20385" lon="3.16158">
        <ele>54</ele>
        <time>2024-09-20T16:11:49.833Z</time>
      </trkpt>
      <trkpt lat="43.20386" lon="3.16168">
        <ele>54</ele>
        <time>2024-09-20T16:11:54.833Z</time>
      </trkpt>
      <trkpt lat="43.20385" lon="3.16175">
        <ele>54</ele>
        <time>2024-09-20T16:11:59.833Z</time>
      </trkpt>
      <trkpt lat="43.20384" lon="3.16183">
        <ele>54</ele>
        <time>2024-09-20T16:12:04.833Z</time>
      </trkpt>
      <trkpt lat="43.20382" lon="3.1619">
        <ele>54</ele>
        <time>2024-09-20T16:12:09.833Z</time>
      </trkpt>
      <trkpt lat="43.20381" lon="3.16198">
        <ele>54</ele>
        <time>2024-09-20T16:12:14.833Z</time>
      </trkpt>
      <trkpt lat="43.20381" lon="3.16206">
        <ele>54</ele>
        <time>2024-09-20T16:12:19.833Z</time>
      </trkpt>
      <trkpt lat="43.20382" lon="3.16213">
        <ele>54</ele>
        <time>2024-09-20T16:12:23.833Z</time>
      </trkpt>
      <trkpt lat="43.20383" lon="3.16219">
        <ele>54</ele>
        <time>2024-09-20T16:12:27.833Z</time>
      </trkpt>
      <trkpt lat="43.20385" lon="3.16225">
        <ele>54</ele>
        <time>2024-09-20T16:12:31.833Z</time>
      </trkpt>
      <trkpt lat="43.20384" lon="3.16233">
        <ele>54</ele>
        <time>2024-09-20T16:12:36.833Z</time>
      </trkpt>
      <trkpt lat="43.20382" lon="3.16241">
        <ele>55</ele>
        <time>2024-09-20T16:12:41.833Z</time>
      </trkpt>
      <trkpt lat="43.20382" lon="3.16246">
        <ele>55</ele>
        <time>2024-09-20T16:12:46.833Z</time>
      </trkpt>
      <trkpt lat="43.20381" lon="3.16256">
        <ele>55</ele>
        <time>2024-09-20T16:12:51.833Z</time>
      </trkpt>
      <trkpt lat="43.20382" lon="3.16263">
        <ele>55</ele>
        <time>2024-09-20T16:12:56.833Z</time>
      </trkpt>
      <trkpt lat="43.20382" lon="3.16273">
        <ele>55</ele>
        <time>2024-09-20T16:13:01.833Z</time>
      </trkpt>
      <trkpt lat="43.20382" lon="3.16278">
        <ele>55</ele>
        <time>2024-09-20T16:13:06.833Z</time>
      </trkpt>
      <trkpt lat="43.20382" lon="3.16289">
        <ele>55</ele>
        <time>2024-09-20T16:13:11.833Z</time>
      </trkpt>
      <trkpt lat="43.20383" lon="3.16293">
        <ele>54</ele>
        <time>2024-09-20T16:13:15.833Z</time>
      </trkpt>
      <trkpt lat="43.20382" lon="3.16301">
        <ele>54</ele>
        <time>2024-09-20T16:13:19.833Z</time>
      </trkpt>
      <trkpt lat="43.20382" lon="3.16308">
        <ele>54</ele>
        <time>2024-09-20T16:13:24.833Z</time>
      </trkpt>
      <trkpt lat="43.20382" lon="3.16315">
        <ele>54</ele>
        <time>2024-09-20T16:13:28.833Z</time>
      </trkpt>
      <trkpt lat="43.20379" lon="3.16322">
        <ele>53</ele>
        <time>2024-09-20T16:13:33.833Z</time>
      </trkpt>
      <trkpt lat="43.20377" lon="3.16329">
        <ele>53</ele>
        <time>2024-09-20T16:13:38.833Z</time>
      </trkpt>
      <trkpt lat="43.20373" lon="3.16333">
        <ele>52</ele>
        <time>2024-09-20T16:13:43.833Z</time>
      </trkpt>
      <trkpt lat="43.2037" lon="3.1634">
        <ele>52</ele>
        <time>2024-09-20T16:13:47.833Z</time>
      </trkpt>
      <trkpt lat="43.20366" lon="3.16348">
        <ele>50</ele>
        <time>2024-09-20T16:13:51.833Z</time>
      </trkpt>
      <trkpt lat="43.20365" lon="3.16354">
        <ele>50</ele>
        <time>2024-09-20T16:13:56.833Z</time>
      </trkpt>
      <trkpt lat="43.20363" lon="3.16364">
        <ele>50</ele>
        <time>2024-09-20T16:14:01.833Z</time>
      </trkpt>
      <trkpt lat="43.20363" lon="3.16369">
        <ele>50</ele>
        <time>2024-09-20T16:14:05.833Z</time>
      </trkpt>
      <trkpt lat="43.20359" lon="3.16376">
        <ele>49</ele>
        <time>2024-09-20T16:14:09.833Z</time>
      </trkpt>
      <trkpt lat="43.20358" lon="3.16381">
        <ele>49</ele>
        <time>2024-09-20T16:14:14.833Z</time>
      </trkpt>
      <trkpt lat="43.20356" lon="3.16391">
        <ele>49</ele>
        <time>2024-09-20T16:14:19.833Z</time>
      </trkpt>
      <trkpt lat="43.20355" lon="3.16397">
        <ele>49</ele>
        <time>2024-09-20T16:14:24.833Z</time>
      </trkpt>
      <trkpt lat="43.20354" lon="3.16405">
        <ele>49</ele>
        <time>2024-09-20T16:14:28.833Z</time>
      </trkpt>
      <trkpt lat="43.20352" lon="3.16412">
        <ele>49</ele>
        <time>2024-09-20T16:14:32.833Z</time>
      </trkpt>
      <trkpt lat="43.20353" lon="3.16418">
        <ele>49</ele>
        <time>2024-09-20T16:14:37.833Z</time>
      </trkpt>
      <trkpt lat="43.20356" lon="3.1643">
        <ele>49</ele>
        <time>2024-09-20T16:14:42.833Z</time>
      </trkpt>
      <trkpt lat="43.20358" lon="3.16433">
        <ele>48</ele>
        <time>2024-09-20T16:14:46.833Z</time>
      </trkpt>
      <trkpt lat="43.20359" lon="3.16441">
        <ele>48</ele>
        <time>2024-09-20T16:14:50.833Z</time>
      </trkpt>
      <trkpt lat="43.2036" lon="3.16449">
        <ele>48</ele>
        <time>2024-09-20T16:14:55.833Z</time>
      </trkpt>
      <trkpt lat="43.20361" lon="3.16453">
        <ele>48</ele>
        <time>2024-09-20T16:14:59.833Z</time>
      </trkpt>
      <trkpt lat="43.20362" lon="3.16465">
        <ele>48</ele>
        <time>2024-09-20T16:15:04.833Z</time>
      </trkpt>
      <trkpt lat="43.20363" lon="3.16468">
        <ele>48</ele>
        <time>2024-09-20T16:15:08.833Z</time>
      </trkpt>
      <trkpt lat="43.20364" lon="3.16476">
        <ele>48</ele>
        <time>2024-09-20T16:15:13.833Z</time>
      </trkpt>
      <trkpt lat="43.20363" lon="3.16486">
        <ele>48</ele>
        <time>2024-09-20T16:15:18.833Z</time>
      </trkpt>
      <trkpt lat="43.20365" lon="3.16492">
        <ele>47</ele>
        <time>2024-09-20T16:15:22.833Z</time>
      </trkpt>
      <trkpt lat="43.20365" lon="3.16501">
        <ele>47</ele>
        <time>2024-09-20T16:15:26.833Z</time>
      </trkpt>
      <trkpt lat="43.20365" lon="3.16508">
        <ele>47</ele>
        <time>2024-09-20T16:15:31.833Z</time>
      </trkpt>
      <trkpt lat="43.20364" lon="3.16515">
        <ele>47</ele>
        <time>2024-09-20T16:15:35.833Z</time>
      </trkpt>
      <trkpt lat="43.20364" lon="3.16522">
        <ele>47</ele>
        <time>2024-09-20T16:15:40.833Z</time>
      </trkpt>
      <trkpt lat="43.20365" lon="3.16532">
        <ele>47</ele>
        <time>2024-09-20T16:15:45.833Z</time>
      </trkpt>
      <trkpt lat="43.20366" lon="3.16539">
        <ele>47</ele>
        <time>2024-09-20T16:15:49.833Z</time>
      </trkpt>
      <trkpt lat="43.20367" lon="3.16545">
        <ele>47</ele>
        <time>2024-09-20T16:15:54.833Z</time>
      </trkpt>
      <trkpt lat="43.20367" lon="3.16554">
        <ele>47</ele>
        <time>2024-09-20T16:15:59.833Z</time>
      </trkpt>
      <trkpt lat="43.20369" lon="3.16562">
        <ele>47</ele>
        <time>2024-09-20T16:16:04.833Z</time>
      </trkpt>
      <trkpt lat="43.20368" lon="3.16571">
        <ele>46</ele>
        <time>2024-09-20T16:16:09.833Z</time>
      </trkpt>
      <trkpt lat="43.20368" lon="3.16579">
        <ele>46</ele>
        <time>2024-09-20T16:16:14.833Z</time>
      </trkpt>
      <trkpt lat="43.20368" lon="3.16586">
        <ele>46</ele>
        <time>2024-09-20T16:16:19.833Z</time>
      </trkpt>
      <trkpt lat="43.20367" lon="3.16595">
        <ele>46</ele>
        <time>2024-09-20T16:16:23.833Z</time>
      </trkpt>
      <trkpt lat="43.20367" lon="3.16601">
        <ele>45</ele>
        <time>2024-09-20T16:16:28.833Z</time>
      </trkpt>
      <trkpt lat="43.20367" lon="3.1661">
        <ele>45</ele>
        <time>2024-09-20T16:16:33.833Z</time>
      </trkpt>
      <trkpt lat="43.20367" lon="3.16619">
        <ele>45</ele>
        <time>2024-09-20T16:16:38.833Z</time>
      </trkpt>
      <trkpt lat="43.20367" lon="3.16626">
        <ele>45</ele>
        <time>2024-09-20T16:16:42.833Z</time>
      </trkpt>
      <trkpt lat="43.20367" lon="3.16634">
        <ele>45</ele>
        <time>2024-09-20T16:16:46.833Z</time>
      </trkpt>
      <trkpt lat="43.20367" lon="3.16638">
        <ele>45</ele>
        <time>2024-09-20T16:16:51.833Z</time>
      </trkpt>
      <trkpt lat="43.20364" lon="3.16646">
        <ele>45</ele>
        <time>2024-09-20T16:16:56.833Z</time>
      </trkpt>
      <trkpt lat="43.20363" lon="3.1665">
        <ele>45</ele>
        <time>2024-09-20T16:17:01.833Z</time>
      </trkpt>
      <trkpt lat="43.2036" lon="3.16653">
        <ele>45</ele>
        <time>2024-09-20T16:17:05.833Z</time>
      </trkpt>
      <trkpt lat="43.20356" lon="3.16657">
        <ele>45</ele>
        <time>2024-09-20T16:17:10.833Z</time>
      </trkpt>
      <trkpt lat="43.20349" lon="3.16663">
        <ele>45</ele>
        <time>2024-09-20T16:17:15.833Z</time>
      </trkpt>
      <trkpt lat="43.20346" lon="3.16668">
        <ele>44</ele>
        <time>2024-09-20T16:17:20.833Z</time>
      </trkpt>
      <trkpt lat="43.20339" lon="3.16676">
        <ele>44</ele>
        <time>2024-09-20T16:17:25.833Z</time>
      </trkpt>
      <trkpt lat="43.20335" lon="3.16679">
        <ele>44</ele>
        <time>2024-09-20T16:17:30.833Z</time>
      </trkpt>
      <trkpt lat="43.20332" lon="3.16682">
        <ele>44</ele>
        <time>2024-09-20T16:17:34.833Z</time>
      </trkpt>
      <trkpt lat="43.20327" lon="3.16688">
        <ele>44</ele>
        <time>2024-09-20T16:17:39.833Z</time>
      </trkpt>
      <trkpt lat="43.20325" lon="3.16692">
        <ele>44</ele>
        <time>2024-09-20T16:17:43.833Z</time>
      </trkpt>
      <trkpt lat="43.20319" lon="3.167">
        <ele>45</ele>
        <time>2024-09-20T16:17:48.833Z</time>
      </trkpt>
      <trkpt lat="43.20315" lon="3.16705">
        <ele>45</ele>
        <time>2024-09-20T16:17:53.833Z</time>
      </trkpt>
      <trkpt lat="43.20312" lon="3.1671">
        <ele>45</ele>
        <time>2024-09-20T16:17:58.833Z</time>
      </trkpt>
      <trkpt lat="43.20305" lon="3.16717">
        <ele>45</ele>
        <time>2024-09-20T16:18:03.833Z</time>
      </trkpt>
      <trkpt lat="43.20303" lon="3.16721">
        <ele>45</ele>
        <time>2024-09-20T16:18:08.833Z</time>
      </trkpt>
      <trkpt lat="43.20297" lon="3.16729">
        <ele>45</ele>
        <time>2024-09-20T16:18:13.833Z</time>
      </trkpt>
      <trkpt lat="43.20293" lon="3.16732">
        <ele>45</ele>
        <time>2024-09-20T16:18:17.833Z</time>
      </trkpt>
      <trkpt lat="43.2029" lon="3.16739">
        <ele>44</ele>
        <time>2024-09-20T16:18:22.833Z</time>
      </trkpt>
      <trkpt lat="43.20285" lon="3.16745">
        <ele>44</ele>
        <time>2024-09-20T16:18:27.833Z</time>
      </trkpt>
      <trkpt lat="43.20282" lon="3.1675">
        <ele>44</ele>
        <time>2024-09-20T16:18:32.833Z</time>
      </trkpt>
      <trkpt lat="43.20278" lon="3.16758">
        <ele>44</ele>
        <time>2024-09-20T16:18:37.833Z</time>
      </trkpt>
      <trkpt lat="43.20275" lon="3.16762">
        <ele>44</ele>
        <time>2024-09-20T16:18:42.833Z</time>
      </trkpt>
      <trkpt lat="43.2027" lon="3.16766">
        <ele>43</ele>
        <time>2024-09-20T16:18:47.833Z</time>
      </trkpt>
      <trkpt lat="43.20265" lon="3.16771">
        <ele>43</ele>
        <time>2024-09-20T16:18:52.833Z</time>
      </trkpt>
      <trkpt lat="43.20259" lon="3.16776">
        <ele>42</ele>
        <time>2024-09-20T16:18:57.833Z</time>
      </trkpt>
      <trkpt lat="43.20256" lon="3.16779">
        <ele>42</ele>
        <time>2024-09-20T16:19:01.833Z</time>
      </trkpt>
      <trkpt lat="43.2025" lon="3.16787">
        <ele>42</ele>
        <time>2024-09-20T16:19:06.833Z</time>
      </trkpt>
      <trkpt lat="43.20246" lon="3.16793">
        <ele>41</ele>
        <time>2024-09-20T16:19:11.833Z</time>
      </trkpt>
      <trkpt lat="43.20243" lon="3.16798">
        <ele>41</ele>
        <time>2024-09-20T16:19:15.833Z</time>
      </trkpt>
      <trkpt lat="43.20236" lon="3.16805">
        <ele>41</ele>
        <time>2024-09-20T16:19:20.833Z</time>
      </trkpt>
      <trkpt lat="43.20234" lon="3.16808">
        <ele>41</ele>
        <time>2024-09-20T16:19:25.833Z</time>
      </trkpt>
      <trkpt lat="43.20232" lon="3.16811">
        <ele>41</ele>
        <time>2024-09-20T16:19:30.833Z</time>
      </trkpt>
      <trkpt lat="43.20229" lon="3.16815">
        <ele>41</ele>
        <time>2024-09-20T16:19:35.833Z</time>
      </trkpt>
      <trkpt lat="43.20224" lon="3.16823">
        <ele>40</ele>
        <time>2024-09-20T16:19:39.833Z</time>
      </trkpt>
      <trkpt lat="43.20221" lon="3.16827">
        <ele>40</ele>
        <time>2024-09-20T16:19:44.833Z</time>
      </trkpt>
      <trkpt lat="43.20217" lon="3.16832">
        <ele>40</ele>
        <time>2024-09-20T16:19:48.833Z</time>
      </trkpt>
      <trkpt lat="43.20214" lon="3.16834">
        <ele>40</ele>
        <time>2024-09-20T16:19:53.833Z</time>
      </trkpt>
      <trkpt lat="43.20209" lon="3.16839">
        <ele>40</ele>
        <time>2024-09-20T16:19:57.833Z</time>
      </trkpt>
      <trkpt lat="43.20205" lon="3.16842">
        <ele>39</ele>
        <time>2024-09-20T16:20:01.833Z</time>
      </trkpt>
      <trkpt lat="43.202" lon="3.16845">
        <ele>39</ele>
        <time>2024-09-20T16:20:06.833Z</time>
      </trkpt>
      <trkpt lat="43.20193" lon="3.16849">
        <ele>39</ele>
        <time>2024-09-20T16:20:11.833Z</time>
      </trkpt>
      <trkpt lat="43.20189" lon="3.16852">
        <ele>39</ele>
        <time>2024-09-20T16:20:16.833Z</time>
      </trkpt>
      <trkpt lat="43.20183" lon="3.16857">
        <ele>39</ele>
        <time>2024-09-20T16:20:21.833Z</time>
      </trkpt>
      <trkpt lat="43.2018" lon="3.1686">
        <ele>40</ele>
        <time>2024-09-20T16:20:25.833Z</time>
      </trkpt>
      <trkpt lat="43.20175" lon="3.16863">
        <ele>40</ele>
        <time>2024-09-20T16:20:29.833Z</time>
      </trkpt>
      <trkpt lat="43.2017" lon="3.16868">
        <ele>40</ele>
        <time>2024-09-20T16:20:34.833Z</time>
      </trkpt>
      <trkpt lat="43.20167" lon="3.1687">
        <ele>40</ele>
        <time>2024-09-20T16:20:38.833Z</time>
      </trkpt>
      <trkpt lat="43.20162" lon="3.16876">
        <ele>41</ele>
        <time>2024-09-20T16:20:43.833Z</time>
      </trkpt>
      <trkpt lat="43.20158" lon="3.1688">
        <ele>41</ele>
        <time>2024-09-20T16:20:48.833Z</time>
      </trkpt>
      <trkpt lat="43.20154" lon="3.16885">
        <ele>41</ele>
        <time>2024-09-20T16:20:52.833Z</time>
      </trkpt>
      <trkpt lat="43.2015" lon="3.16892">
        <ele>43</ele>
        <time>2024-09-20T16:20:57.833Z</time>
      </trkpt>
      <trkpt lat="43.20149" lon="3.16897">
        <ele>43</ele>
        <time>2024-09-20T16:21:01.833Z</time>
      </trkpt>
      <trkpt lat="43.20145" lon="3.16903">
        <ele>44</ele>
        <time>2024-09-20T16:21:06.833Z</time>
      </trkpt>
      <trkpt lat="43.20142" lon="3.1691">
        <ele>44</ele>
        <time>2024-09-20T16:21:11.833Z</time>
      </trkpt>
      <trkpt lat="43.20139" lon="3.16917">
        <ele>44</ele>
        <time>2024-09-20T16:21:16.833Z</time>
      </trkpt>
      <trkpt lat="43.20135" lon="3.16924">
        <ele>44</ele>
        <time>2024-09-20T16:21:21.833Z</time>
      </trkpt>
      <trkpt lat="43.20133" lon="3.16933">
        <ele>43</ele>
        <time>2024-09-20T16:21:26.833Z</time>
      </trkpt>
      <trkpt lat="43.20133" lon="3.16939">
        <ele>43</ele>
        <time>2024-09-20T16:21:31.833Z</time>
      </trkpt>
      <trkpt lat="43.20132" lon="3.16948">
        <ele>43</ele>
        <time>2024-09-20T16:21:36.833Z</time>
      </trkpt>
      <trkpt lat="43.20131" lon="3.16953">
        <ele>43</ele>
        <time>2024-09-20T16:21:40.833Z</time>
      </trkpt>
      <trkpt lat="43.20128" lon="3.16962">
        <ele>42</ele>
        <time>2024-09-20T16:21:45.833Z</time>
      </trkpt>
      <trkpt lat="43.20127" lon="3.16968">
        <ele>42</ele>
        <time>2024-09-20T16:21:50.833Z</time>
      </trkpt>
      <trkpt lat="43.20124" lon="3.16976">
        <ele>46</ele>
        <time>2024-09-20T16:21:55.833Z</time>
      </trkpt>
      <trkpt lat="43.20122" lon="3.16983">
        <ele>46</ele>
        <time>2024-09-20T16:21:59.833Z</time>
      </trkpt>
      <trkpt lat="43.20119" lon="3.16987">
        <ele>44</ele>
        <time>2024-09-20T16:22:04.833Z</time>
      </trkpt>
      <trkpt lat="43.20115" lon="3.16997">
        <ele>44</ele>
        <time>2024-09-20T16:22:09.833Z</time>
      </trkpt>
      <trkpt lat="43.20113" lon="3.17">
        <ele>44</ele>
        <time>2024-09-20T16:22:13.833Z</time>
      </trkpt>
      <trkpt lat="43.20111" lon="3.17008">
        <ele>44</ele>
        <time>2024-09-20T16:22:18.833Z</time>
      </trkpt>
      <trkpt lat="43.20108" lon="3.17014">
        <ele>43</ele>
        <time>2024-09-20T16:22:22.833Z</time>
      </trkpt>
      <trkpt lat="43.20107" lon="3.1702">
        <ele>43</ele>
        <time>2024-09-20T16:22:26.833Z</time>
      </trkpt>
      <trkpt lat="43.20103" lon="3.17026">
        <ele>43</ele>
        <time>2024-09-20T16:22:30.833Z</time>
      </trkpt>
      <trkpt lat="43.20101" lon="3.17032">
        <ele>43</ele>
        <time>2024-09-20T16:22:35.833Z</time>
      </trkpt>
      <trkpt lat="43.20098" lon="3.17039">
        <ele>43</ele>
        <time>2024-09-20T16:22:40.833Z</time>
      </trkpt>
      <trkpt lat="43.20097" lon="3.17047">
        <ele>45</ele>
        <time>2024-09-20T16:22:45.833Z</time>
      </trkpt>
      <trkpt lat="43.20095" lon="3.17053">
        <ele>45</ele>
        <time>2024-09-20T16:22:49.833Z</time>
      </trkpt>
      <trkpt lat="43.20095" lon="3.17061">
        <ele>45</ele>
        <time>2024-09-20T16:22:53.833Z</time>
      </trkpt>
      <trkpt lat="43.20093" lon="3.17068">
        <ele>45</ele>
        <time>2024-09-20T16:22:58.833Z</time>
      </trkpt>
      <trkpt lat="43.20091" lon="3.17075">
        <ele>45</ele>
        <time>2024-09-20T16:23:02.833Z</time>
      </trkpt>
      <trkpt lat="43.2009" lon="3.1708">
        <ele>45</ele>
        <time>2024-09-20T16:23:06.833Z</time>
      </trkpt>
      <trkpt lat="43.20089" lon="3.1709">
        <ele>45</ele>
        <time>2024-09-20T16:23:11.833Z</time>
      </trkpt>
      <trkpt lat="43.20088" lon="3.17096">
        <ele>45</ele>
        <time>2024-09-20T16:23:16.833Z</time>
      </trkpt>
      <trkpt lat="43.20086" lon="3.17104">
        <ele>44</ele>
        <time>2024-09-20T16:23:20.833Z</time>
      </trkpt>
      <trkpt lat="43.20084" lon="3.17111">
        <ele>44</ele>
        <time>2024-09-20T16:23:25.833Z</time>
      </trkpt>
      <trkpt lat="43.20084" lon="3.17119">
        <ele>44</ele>
        <time>2024-09-20T16:23:30.833Z</time>
      </trkpt>
      <trkpt lat="43.20083" lon="3.17129">
        <ele>44</ele>
        <time>2024-09-20T16:23:35.833Z</time>
      </trkpt>
      <trkpt lat="43.20082" lon="3.17134">
        <ele>44</ele>
        <time>2024-09-20T16:23:40.833Z</time>
      </trkpt>
      <trkpt lat="43.2008" lon="3.17143">
        <ele>44</ele>
        <time>2024-09-20T16:23:45.833Z</time>
      </trkpt>
      <trkpt lat="43.20079" lon="3.17149">
        <ele>44</ele>
        <time>2024-09-20T16:23:50.833Z</time>
      </trkpt>
      <trkpt lat="43.20076" lon="3.17158">
        <ele>46</ele>
        <time>2024-09-20T16:23:54.833Z</time>
      </trkpt>
      <trkpt lat="43.20076" lon="3.17164">
        <ele>46</ele>
        <time>2024-09-20T16:23:59.833Z</time>
      </trkpt>
      <trkpt lat="43.20075" lon="3.17174">
        <ele>46</ele>
        <time>2024-09-20T16:24:04.833Z</time>
      </trkpt>
      <trkpt lat="43.20074" lon="3.17179">
        <ele>46</ele>
        <time>2024-09-20T16:24:08.833Z</time>
      </trkpt>
      <trkpt lat="43.20075" lon="3.17188">
        <ele>47</ele>
        <time>2024-09-20T16:24:13.833Z</time>
      </trkpt>
      <trkpt lat="43.20075" lon="3.17196">
        <ele>47</ele>
        <time>2024-09-20T16:24:18.833Z</time>
      </trkpt>
      <trkpt lat="43.20077" lon="3.17201">
        <ele>47</ele>
        <time>2024-09-20T16:24:22.833Z</time>
      </trkpt>
      <trkpt lat="43.20078" lon="3.17211">
        <ele>47</ele>
        <time>2024-09-20T16:24:27.833Z</time>
      </trkpt>
      <trkpt lat="43.20077" lon="3.17216">
        <ele>47</ele>
        <time>2024-09-20T16:24:31.833Z</time>
      </trkpt>
      <trkpt lat="43.20079" lon="3.17223">
        <ele>47</ele>
        <time>2024-09-20T16:24:35.833Z</time>
      </trkpt>
      <trkpt lat="43.2008" lon="3.17229">
        <ele>47</ele>
        <time>2024-09-20T16:24:40.833Z</time>
      </trkpt>
      <trkpt lat="43.20081" lon="3.17235">
        <ele>47</ele>
        <time>2024-09-20T16:24:44.833Z</time>
      </trkpt>
      <trkpt lat="43.20082" lon="3.17243">
        <ele>47</ele>
        <time>2024-09-20T16:24:49.833Z</time>
      </trkpt>
      <trkpt lat="43.20083" lon="3.17248">
        <ele>47</ele>
        <time>2024-09-20T16:24:53.833Z</time>
      </trkpt>
      <trkpt lat="43.20086" lon="3.17259">
        <ele>47</ele>
        <time>2024-09-20T16:24:58.833Z</time>
      </trkpt>
      <trkpt lat="43.20089" lon="3.17264">
        <ele>47</ele>
        <time>2024-09-20T16:25:03.833Z</time>
      </trkpt>
      <trkpt lat="43.20091" lon="3.17271">
        <ele>47</ele>
        <time>2024-09-20T16:25:08.833Z</time>
      </trkpt>
      <trkpt lat="43.20094" lon="3.17276">
        <ele>47</ele>
        <time>2024-09-20T16:25:12.833Z</time>
      </trkpt>
      <trkpt lat="43.20096" lon="3.17284">
        <ele>47</ele>
        <time>2024-09-20T16:25:16.833Z</time>
      </trkpt>
      <trkpt lat="43.20096" lon="3.1729">
        <ele>47</ele>
        <time>2024-09-20T16:25:21.833Z</time>
      </trkpt>
      <trkpt lat="43.20097" lon="3.17301">
        <ele>48</ele>
        <time>2024-09-20T16:25:26.833Z</time>
      </trkpt>
      <trkpt lat="43.20097" lon="3.17307">
        <ele>48</ele>
        <time>2024-09-20T16:25:31.833Z</time>
      </trkpt>
      <trkpt lat="43.20097" lon="3.17316">
        <ele>48</ele>
        <time>2024-09-20T16:25:36.833Z</time>
      </trkpt>
      <trkpt lat="43.20096" lon="3.17323">
        <ele>49</ele>
        <time>2024-09-20T16:25:41.833Z</time>
      </trkpt>
      <trkpt lat="43.20096" lon="3.17329">
        <ele>49</ele>
        <time>2024-09-20T16:25:45.833Z</time>
      </trkpt>
      <trkpt lat="43.20093" lon="3.17339">
        <ele>49</ele>
        <time>2024-09-20T16:25:50.833Z</time>
      </trkpt>
      <trkpt lat="43.20092" lon="3.17344">
        <ele>49</ele>
        <time>2024-09-20T16:25:55.834Z</time>
      </trkpt>
      <trkpt lat="43.20089" lon="3.17355">
        <ele>48</ele>
        <time>2024-09-20T16:26:00.834Z</time>
      </trkpt>
      <trkpt lat="43.20087" lon="3.17359">
        <ele>48</ele>
        <time>2024-09-20T16:26:05.834Z</time>
      </trkpt>
      <trkpt lat="43.20084" lon="3.17369">
        <ele>48</ele>
        <time>2024-09-20T16:26:10.834Z</time>
      </trkpt>
      <trkpt lat="43.20083" lon="3.17375">
        <ele>48</ele>
        <time>2024-09-20T16:26:15.834Z</time>
      </trkpt>
      <trkpt lat="43.20083" lon="3.17385">
        <ele>47</ele>
        <time>2024-09-20T16:26:20.834Z</time>
      </trkpt>
      <trkpt lat="43.20082" lon="3.1739">
        <ele>47</ele>
        <time>2024-09-20T16:26:25.834Z</time>
      </trkpt>
      <trkpt lat="43.20081" lon="3.17398">
        <ele>47</ele>
        <time>2024-09-20T16:26:29.834Z</time>
      </trkpt>
      <trkpt lat="43.2008" lon="3.17405">
        <ele>47</ele>
        <time>2024-09-20T16:26:34.834Z</time>
      </trkpt>
      <trkpt lat="43.20078" lon="3.17411">
        <ele>47</ele>
        <time>2024-09-20T16:26:39.834Z</time>
      </trkpt>
      <trkpt lat="43.20077" lon="3.17417">
        <ele>47</ele>
        <time>2024-09-20T16:26:43.834Z</time>
      </trkpt>
      <trkpt lat="43.20075" lon="3.17425">
        <ele>47</ele>
        <time>2024-09-20T16:26:48.834Z</time>
      </trkpt>
      <trkpt lat="43.20075" lon="3.17431">
        <ele>47</ele>
        <time>2024-09-20T16:26:52.834Z</time>
      </trkpt>
      <trkpt lat="43.20073" lon="3.17437">
        <ele>47</ele>
        <time>2024-09-20T16:26:56.834Z</time>
      </trkpt>
      <trkpt lat="43.20073" lon="3.17444">
        <ele>47</ele>
        <time>2024-09-20T16:27:01.834Z</time>
      </trkpt>
      <trkpt lat="43.20072" lon="3.17453">
        <ele>47</ele>
        <time>2024-09-20T16:27:05.834Z</time>
      </trkpt>
      <trkpt lat="43.20072" lon="3.17458">
        <ele>47</ele>
        <time>2024-09-20T16:27:10.834Z</time>
      </trkpt>
      <trkpt lat="43.20073" lon="3.17468">
        <ele>47</ele>
        <time>2024-09-20T16:27:15.834Z</time>
      </trkpt>
      <trkpt lat="43.20073" lon="3.17474">
        <ele>47</ele>
        <time>2024-09-20T16:27:20.834Z</time>
      </trkpt>
      <trkpt lat="43.20073" lon="3.17485">
        <ele>47</ele>
        <time>2024-09-20T16:27:25.834Z</time>
      </trkpt>
      <trkpt lat="43.20074" lon="3.17491">
        <ele>47</ele>
        <time>2024-09-20T16:27:30.834Z</time>
      </trkpt>
      <trkpt lat="43.20075" lon="3.17498">
        <ele>47</ele>
        <time>2024-09-20T16:27:34.834Z</time>
      </trkpt>
      <trkpt lat="43.20074" lon="3.17507">
        <ele>47</ele>
        <time>2024-09-20T16:27:38.834Z</time>
      </trkpt>
      <trkpt lat="43.20075" lon="3.1751">
        <ele>47</ele>
        <time>2024-09-20T16:27:42.834Z</time>
      </trkpt>
      <trkpt lat="43.20075" lon="3.1752">
        <ele>48</ele>
        <time>2024-09-20T16:27:47.834Z</time>
      </trkpt>
      <trkpt lat="43.20075" lon="3.17527">
        <ele>48</ele>
        <time>2024-09-20T16:27:51.834Z</time>
      </trkpt>
      <trkpt lat="43.20076" lon="3.17531">
        <ele>48</ele>
        <time>2024-09-20T16:27:55.834Z</time>
      </trkpt>
      <trkpt lat="43.20076" lon="3.17543">
        <ele>49</ele>
        <time>2024-09-20T16:28:00.834Z</time>
      </trkpt>
      <trkpt lat="43.20075" lon="3.17549">
        <ele>49</ele>
        <time>2024-09-20T16:28:05.834Z</time>
      </trkpt>
      <trkpt lat="43.20075" lon="3.17556">
        <ele>49</ele>
        <time>2024-09-20T16:28:09.834Z</time>
      </trkpt>
      <trkpt lat="43.20076" lon="3.17564">
        <ele>49</ele>
        <time>2024-09-20T16:28:14.834Z</time>
      </trkpt>
      <trkpt lat="43.20075" lon="3.17571">
        <ele>51</ele>
        <time>2024-09-20T16:28:19.834Z</time>
      </trkpt>
      <trkpt lat="43.20075" lon="3.17582">
        <ele>51</ele>
        <time>2024-09-20T16:28:23.834Z</time>
      </trkpt>
      <trkpt lat="43.20075" lon="3.17587">
        <ele>51</ele>
        <time>2024-09-20T16:28:28.834Z</time>
      </trkpt>
      <trkpt lat="43.20075" lon="3.17596">
        <ele>51</ele>
        <time>2024-09-20T16:28:33.834Z</time>
      </trkpt>
      <trkpt lat="43.20075" lon="3.17602">
        <ele>49</ele>
        <time>2024-09-20T16:28:38.834Z</time>
      </trkpt>
      <trkpt lat="43.20076" lon="3.1761">
        <ele>49</ele>
        <time>2024-09-20T16:28:42.834Z</time>
      </trkpt>
      <trkpt lat="43.20077" lon="3.17618">
        <ele>49</ele>
        <time>2024-09-20T16:28:47.834Z</time>
      </trkpt>
      <trkpt lat="43.20078" lon="3.17623">
        <ele>49</ele>
        <time>2024-09-20T16:28:51.834Z</time>
      </trkpt>
      <trkpt lat="43.20079" lon="3.17633">
        <ele>49</ele>
        <time>2024-09-20T16:28:55.834Z</time>
      </trkpt>
      <trkpt lat="43.20082" lon="3.17638">
        <ele>49</ele>
        <time>2024-09-20T16:29:00.834Z</time>
      </trkpt>
      <trkpt lat="43.20083" lon="3.17648">
        <ele>49</ele>
        <time>2024-09-20T16:29:05.834Z</time>
      </trkpt>
      <trkpt lat="43.20086" lon="3.17654">
        <ele>49</ele>
        <time>2024-09-20T16:29:10.834Z</time>
      </trkpt>
      <trkpt lat="43.20089" lon="3.1766">
        <ele>49</ele>
        <time>2024-09-20T16:29:14.834Z</time>
      </trkpt>
      <trkpt lat="43.20092" lon="3.17669">
        <ele>49</ele>
        <time>2024-09-20T16:29:19.834Z</time>
      </trkpt>
      <trkpt lat="43.20094" lon="3.17671">
        <ele>49</ele>
        <time>2024-09-20T16:29:23.834Z</time>
      </trkpt>
      <trkpt lat="43.20096" lon="3.17679">
        <ele>49</ele>
        <time>2024-09-20T16:29:28.834Z</time>
      </trkpt>
      <trkpt lat="43.20098" lon="3.17683">
        <ele>48</ele>
        <time>2024-09-20T16:29:32.834Z</time>
      </trkpt>
      <trkpt lat="43.201" lon="3.17687">
        <ele>48</ele>
        <time>2024-09-20T16:29:36.834Z</time>
      </trkpt>
      <trkpt lat="43.20102" lon="3.17693">
        <ele>48</ele>
        <time>2024-09-20T16:29:41.834Z</time>
      </trkpt>
      <trkpt lat="43.20103" lon="3.177">
        <ele>48</ele>
        <time>2024-09-20T16:29:46.834Z</time>
      </trkpt>
      <trkpt lat="43.20105" lon="3.17707">
        <ele>48</ele>
        <time>2024-09-20T16:29:51.834Z</time>
      </trkpt>
      <trkpt lat="43.20105" lon="3.17714">
        <ele>48</ele>
        <time>2024-09-20T16:29:55.834Z</time>
      </trkpt>
      <trkpt lat="43.20106" lon="3.17721">
        <ele>48</ele>
        <time>2024-09-20T16:30:00.834Z</time>
      </trkpt>
      <trkpt lat="43.20105" lon="3.17729">
        <ele>48</ele>
        <time>2024-09-20T16:30:05.834Z</time>
      </trkpt>
      <trkpt lat="43.20106" lon="3.17735">
        <ele>48</ele>
        <time>2024-09-20T16:30:10.834Z</time>
      </trkpt>
      <trkpt lat="43.20107" lon="3.17742">
        <ele>47</ele>
        <time>2024-09-20T16:30:15.834Z</time>
      </trkpt>
      <trkpt lat="43.20109" lon="3.17748">
        <ele>47</ele>
        <time>2024-09-20T16:30:19.834Z</time>
      </trkpt>
      <trkpt lat="43.20109" lon="3.17757">
        <ele>47</ele>
        <time>2024-09-20T16:30:24.834Z</time>
      </trkpt>
      <trkpt lat="43.2011" lon="3.17763">
        <ele>47</ele>
        <time>2024-09-20T16:30:29.834Z</time>
      </trkpt>
      <trkpt lat="43.2011" lon="3.17771">
        <ele>45</ele>
        <time>2024-09-20T16:30:34.834Z</time>
      </trkpt>
      <trkpt lat="43.2011" lon="3.17778">
        <ele>45</ele>
        <time>2024-09-20T16:30:39.834Z</time>
      </trkpt>
      <trkpt lat="43.2011" lon="3.17784">
        <ele>45</ele>
        <time>2024-09-20T16:30:44.834Z</time>
      </trkpt>
      <trkpt lat="43.20109" lon="3.17792">
        <ele>43</ele>
        <time>2024-09-20T16:30:48.834Z</time>
      </trkpt>
      <trkpt lat="43.2011" lon="3.17797">
        <ele>43</ele>
        <time>2024-09-20T16:30:52.834Z</time>
      </trkpt>
      <trkpt lat="43.20109" lon="3.17804">
        <ele>43</ele>
        <time>2024-09-20T16:30:57.834Z</time>
      </trkpt>
      <trkpt lat="43.20109" lon="3.17811">
        <ele>43</ele>
        <time>2024-09-20T16:31:02.834Z</time>
      </trkpt>
      <trkpt lat="43.20109" lon="3.17818">
        <ele>43</ele>
        <time>2024-09-20T16:31:07.834Z</time>
      </trkpt>
      <trkpt lat="43.20108" lon="3.17828">
        <ele>42</ele>
        <time>2024-09-20T16:31:12.834Z</time>
      </trkpt>
      <trkpt lat="43.2011" lon="3.17832">
        <ele>42</ele>
        <time>2024-09-20T16:31:16.834Z</time>
      </trkpt>
      <trkpt lat="43.20113" lon="3.17841">
        <ele>42</ele>
        <time>2024-09-20T16:31:21.834Z</time>
      </trkpt>
      <trkpt lat="43.20114" lon="3.17848">
        <ele>42</ele>
        <time>2024-09-20T16:31:25.834Z</time>
      </trkpt>
      <trkpt lat="43.20116" lon="3.17853">
        <ele>42</ele>
        <time>2024-09-20T16:31:30.834Z</time>
      </trkpt>
      <trkpt lat="43.20117" lon="3.17861">
        <ele>42</ele>
        <time>2024-09-20T16:31:34.834Z</time>
      </trkpt>
      <trkpt lat="43.20117" lon="3.17867">
        <ele>42</ele>
        <time>2024-09-20T16:31:58.834Z</time>
      </trkpt>
      <trkpt lat="43.20119" lon="3.17871">
        <ele>42</ele>
        <time>2024-09-20T16:32:02.834Z</time>
      </trkpt>
      <trkpt lat="43.2012" lon="3.17881">
        <ele>40</ele>
        <time>2024-09-20T16:32:07.834Z</time>
      </trkpt>
      <trkpt lat="43.20123" lon="3.17888">
        <ele>40</ele>
        <time>2024-09-20T16:32:12.834Z</time>
      </trkpt>
      <trkpt lat="43.20127" lon="3.17894">
        <ele>36</ele>
        <time>2024-09-20T16:32:16.834Z</time>
      </trkpt>
      <trkpt lat="43.20129" lon="3.17897">
        <ele>36</ele>
        <time>2024-09-20T16:32:20.834Z</time>
      </trkpt>
      <trkpt lat="43.20134" lon="3.17903">
        <ele>35</ele>
        <time>2024-09-20T16:32:25.834Z</time>
      </trkpt>
      <trkpt lat="43.20135" lon="3.17908">
        <ele>35</ele>
        <time>2024-09-20T16:32:30.834Z</time>
      </trkpt>
      <trkpt lat="43.20136" lon="3.17915">
        <ele>35</ele>
        <time>2024-09-20T16:32:35.834Z</time>
      </trkpt>
      <trkpt lat="43.20137" lon="3.17922">
        <ele>35</ele>
        <time>2024-09-20T16:32:40.834Z</time>
      </trkpt>
      <trkpt lat="43.20136" lon="3.17928">
        <ele>35</ele>
        <time>2024-09-20T16:32:45.834Z</time>
      </trkpt>
      <trkpt lat="43.20135" lon="3.17938">
        <ele>34</ele>
        <time>2024-09-20T16:32:50.834Z</time>
      </trkpt>
      <trkpt lat="43.20135" lon="3.17942">
        <ele>34</ele>
        <time>2024-09-20T16:32:54.834Z</time>
      </trkpt>
      <trkpt lat="43.2013" lon="3.17945">
        <ele>34</ele>
        <time>2024-09-20T16:32:58.834Z</time>
      </trkpt>
      <trkpt lat="43.20127" lon="3.17948">
        <ele>34</ele>
        <time>2024-09-20T16:33:03.834Z</time>
      </trkpt>
      <trkpt lat="43.20121" lon="3.1795">
        <ele>33</ele>
        <time>2024-09-20T16:33:08.834Z</time>
      </trkpt>
      <trkpt lat="43.20117" lon="3.17951">
        <ele>33</ele>
        <time>2024-09-20T16:33:13.834Z</time>
      </trkpt>
      <trkpt lat="43.20115" lon="3.17949">
        <ele>33</ele>
        <time>2024-09-20T16:33:17.834Z</time>
      </trkpt>
      <trkpt lat="43.20108" lon="3.17944">
        <ele>33</ele>
        <time>2024-09-20T16:33:22.834Z</time>
      </trkpt>
      <trkpt lat="43.20105" lon="3.17942">
        <ele>33</ele>
        <time>2024-09-20T16:33:27.834Z</time>
      </trkpt>
      <trkpt lat="43.20096" lon="3.17941">
        <ele>30</ele>
        <time>2024-09-20T16:33:32.834Z</time>
      </trkpt>
      <trkpt lat="43.20093" lon="3.1794">
        <ele>30</ele>
        <time>2024-09-20T16:33:37.834Z</time>
      </trkpt>
      <trkpt lat="43.20086" lon="3.17938">
        <ele>30</ele>
        <time>2024-09-20T16:33:41.834Z</time>
      </trkpt>
      <trkpt lat="43.20083" lon="3.1794">
        <ele>30</ele>
        <time>2024-09-20T16:33:46.834Z</time>
      </trkpt>
      <trkpt lat="43.20078" lon="3.17942">
        <ele>30</ele>
        <time>2024-09-20T16:33:50.834Z</time>
      </trkpt>
      <trkpt lat="43.20073" lon="3.17943">
        <ele>30</ele>
        <time>2024-09-20T16:33:55.834Z</time>
      </trkpt>
      <trkpt lat="43.20068" lon="3.17949">
        <ele>29</ele>
        <time>2024-09-20T16:34:00.834Z</time>
      </trkpt>
      <trkpt lat="43.20064" lon="3.17951">
        <ele>29</ele>
        <time>2024-09-20T16:34:04.834Z</time>
      </trkpt>
      <trkpt lat="43.20059" lon="3.17956">
        <ele>29</ele>
        <time>2024-09-20T16:34:09.834Z</time>
      </trkpt>
      <trkpt lat="43.20054" lon="3.17959">
        <ele>25</ele>
        <time>2024-09-20T16:34:14.834Z</time>
      </trkpt>
      <trkpt lat="43.20049" lon="3.17963">
        <ele>25</ele>
        <time>2024-09-20T16:34:19.834Z</time>
      </trkpt>
      <trkpt lat="43.20045" lon="3.17967">
        <ele>25</ele>
        <time>2024-09-20T16:34:24.834Z</time>
      </trkpt>
      <trkpt lat="43.20042" lon="3.17969">
        <ele>26</ele>
        <time>2024-09-20T16:34:28.834Z</time>
      </trkpt>
      <trkpt lat="43.20035" lon="3.17972">
        <ele>26</ele>
        <time>2024-09-20T16:34:33.834Z</time>
      </trkpt>
      <trkpt lat="43.20032" lon="3.17974">
        <ele>26</ele>
        <time>2024-09-20T16:34:38.834Z</time>
      </trkpt>
      <trkpt lat="43.20028" lon="3.17979">
        <ele>26</ele>
        <time>2024-09-20T16:34:42.834Z</time>
      </trkpt>
      <trkpt lat="43.20022" lon="3.17982">
        <ele>26</ele>
        <time>2024-09-20T16:34:47.834Z</time>
      </trkpt>
      <trkpt lat="43.20018" lon="3.17987">
        <ele>24</ele>
        <time>2024-09-20T16:34:52.834Z</time>
      </trkpt>
      <trkpt lat="43.20014" lon="3.17993">
        <ele>23</ele>
        <time>2024-09-20T16:34:57.834Z</time>
      </trkpt>
      <trkpt lat="43.20007" lon="3.17998">
        <ele>23</ele>
        <time>2024-09-20T16:35:02.834Z</time>
      </trkpt>
      <trkpt lat="43.20002" lon="3.18001">
        <ele>23</ele>
        <time>2024-09-20T16:35:07.834Z</time>
      </trkpt>
      <trkpt lat="43.19997" lon="3.18005">
        <ele>23</ele>
        <time>2024-09-20T16:35:11.834Z</time>
      </trkpt>
      <trkpt lat="43.19994" lon="3.18014">
        <ele>20</ele>
        <time>2024-09-20T16:35:16.834Z</time>
      </trkpt>
      <trkpt lat="43.19991" lon="3.18022">
        <ele>20</ele>
        <time>2024-09-20T16:35:21.834Z</time>
      </trkpt>
      <trkpt lat="43.19992" lon="3.18026">
        <ele>20</ele>
        <time>2024-09-20T16:35:25.834Z</time>
      </trkpt>
      <trkpt lat="43.19989" lon="3.18035">
        <ele>20</ele>
        <time>2024-09-20T16:35:30.834Z</time>
      </trkpt>
      <trkpt lat="43.19987" lon="3.18041">
        <ele>20</ele>
        <time>2024-09-20T16:35:34.834Z</time>
      </trkpt>
      <trkpt lat="43.19985" lon="3.18046">
        <ele>18</ele>
        <time>2024-09-20T16:35:39.834Z</time>
      </trkpt>
      <trkpt lat="43.1998" lon="3.18055">
        <ele>18</ele>
        <time>2024-09-20T16:35:44.834Z</time>
      </trkpt>
      <trkpt lat="43.19979" lon="3.18058">
        <ele>18</ele>
        <time>2024-09-20T16:35:48.834Z</time>
      </trkpt>
      <trkpt lat="43.19975" lon="3.18063">
        <ele>18</ele>
        <time>2024-09-20T16:35:52.834Z</time>
      </trkpt>
      <trkpt lat="43.19972" lon="3.18067">
        <ele>18</ele>
        <time>2024-09-20T16:35:57.834Z</time>
      </trkpt>
      <trkpt lat="43.19969" lon="3.1807">
        <ele>17</ele>
        <time>2024-09-20T16:36:01.834Z</time>
      </trkpt>
      <trkpt lat="43.19963" lon="3.18076">
        <ele>17</ele>
        <time>2024-09-20T16:36:06.834Z</time>
      </trkpt>
      <trkpt lat="43.19959" lon="3.18081">
        <ele>17</ele>
        <time>2024-09-20T16:36:11.834Z</time>
      </trkpt>
      <trkpt lat="43.19954" lon="3.18088">
        <ele>16</ele>
        <time>2024-09-20T16:36:16.834Z</time>
      </trkpt>
      <trkpt lat="43.19952" lon="3.18092">
        <ele>16</ele>
        <time>2024-09-20T16:36:21.834Z</time>
      </trkpt>
      <trkpt lat="43.19948" lon="3.181">
        <ele>15</ele>
        <time>2024-09-20T16:36:25.834Z</time>
      </trkpt>
      <trkpt lat="43.19947" lon="3.18105">
        <ele>15</ele>
        <time>2024-09-20T16:36:30.834Z</time>
      </trkpt>
      <trkpt lat="43.19949" lon="3.18115">
        <ele>15</ele>
        <time>2024-09-20T16:36:35.834Z</time>
      </trkpt>
      <trkpt lat="43.19951" lon="3.18119">
        <ele>15</ele>
        <time>2024-09-20T16:36:40.834Z</time>
      </trkpt>
      <trkpt lat="43.19954" lon="3.18131">
        <ele>15</ele>
        <time>2024-09-20T16:36:45.834Z</time>
      </trkpt>
      <trkpt lat="43.19954" lon="3.18137">
        <ele>15</ele>
        <time>2024-09-20T16:36:50.834Z</time>
      </trkpt>
      <trkpt lat="43.19953" lon="3.18143">
        <ele>15</ele>
        <time>2024-09-20T16:36:55.834Z</time>
      </trkpt>
      <trkpt lat="43.19949" lon="3.18152">
        <ele>15</ele>
        <time>2024-09-20T16:37:00.834Z</time>
      </trkpt>
      <trkpt lat="43.19949" lon="3.18154">
        <ele>16</ele>
        <time>2024-09-20T16:37:04.834Z</time>
      </trkpt>
      <trkpt lat="43.19943" lon="3.18163">
        <ele>16</ele>
        <time>2024-09-20T16:37:09.834Z</time>
      </trkpt>
      <trkpt lat="43.19939" lon="3.18167">
        <ele>16</ele>
        <time>2024-09-20T16:37:13.834Z</time>
      </trkpt>
      <trkpt lat="43.19935" lon="3.18168">
        <ele>16</ele>
        <time>2024-09-20T16:37:18.834Z</time>
      </trkpt>
      <trkpt lat="43.19929" lon="3.18176">
        <ele>14</ele>
        <time>2024-09-20T16:37:23.834Z</time>
      </trkpt>
      <trkpt lat="43.19928" lon="3.18182">
        <ele>15</ele>
        <time>2024-09-20T16:37:28.834Z</time>
      </trkpt>
      <trkpt lat="43.19923" lon="3.1819">
        <ele>15</ele>
        <time>2024-09-20T16:37:33.834Z</time>
      </trkpt>
      <trkpt lat="43.19919" lon="3.18193">
        <ele>15</ele>
        <time>2024-09-20T16:37:37.834Z</time>
      </trkpt>
      <trkpt lat="43.19916" lon="3.18197">
        <ele>15</ele>
        <time>2024-09-20T16:37:42.834Z</time>
      </trkpt>
      <trkpt lat="43.19911" lon="3.18203">
        <ele>15</ele>
        <time>2024-09-20T16:37:47.834Z</time>
      </trkpt>
      <trkpt lat="43.19909" lon="3.18209">
        <ele>16</ele>
        <time>2024-09-20T16:37:52.834Z</time>
      </trkpt>
      <trkpt lat="43.19905" lon="3.18216">
        <ele>16</ele>
        <time>2024-09-20T16:37:56.834Z</time>
      </trkpt>
      <trkpt lat="43.199" lon="3.1822">
        <ele>12</ele>
        <time>2024-09-20T16:38:01.834Z</time>
      </trkpt>
      <trkpt lat="43.19898" lon="3.18224">
        <ele>12</ele>
        <time>2024-09-20T16:38:05.834Z</time>
      </trkpt>
      <trkpt lat="43.19894" lon="3.18231">
        <ele>12</ele>
        <time>2024-09-20T16:38:09.834Z</time>
      </trkpt>
      <trkpt lat="43.1989" lon="3.18236">
        <ele>14</ele>
        <time>2024-09-20T16:38:14.834Z</time>
      </trkpt>
      <trkpt lat="43.19886" lon="3.18241">
        <ele>14</ele>
        <time>2024-09-20T16:38:19.834Z</time>
      </trkpt>
      <trkpt lat="43.19879" lon="3.18247">
        <ele>14</ele>
        <time>2024-09-20T16:38:24.834Z</time>
      </trkpt>
      <trkpt lat="43.19877" lon="3.1825">
        <ele>14</ele>
        <time>2024-09-20T16:38:28.834Z</time>
      </trkpt>
      <trkpt lat="43.19872" lon="3.1826">
        <ele>10</ele>
        <time>2024-09-20T16:38:33.834Z</time>
      </trkpt>
      <trkpt lat="43.19871" lon="3.18264">
        <ele>11</ele>
        <time>2024-09-20T16:38:38.834Z</time>
      </trkpt>
      <trkpt lat="43.19866" lon="3.18269">
        <ele>11</ele>
        <time>2024-09-20T16:38:43.834Z</time>
      </trkpt>
      <trkpt lat="43.19862" lon="3.18274">
        <ele>11</ele>
        <time>2024-09-20T16:38:48.834Z</time>
      </trkpt>
      <trkpt lat="43.19858" lon="3.18281">
        <ele>11</ele>
        <time>2024-09-20T16:38:52.834Z</time>
      </trkpt>
      <trkpt lat="43.19854" lon="3.18288">
        <ele>11</ele>
        <time>2024-09-20T16:38:57.834Z</time>
      </trkpt>
      <trkpt lat="43.19852" lon="3.18292">
        <ele>10</ele>
        <time>2024-09-20T16:39:01.834Z</time>
      </trkpt>
      <trkpt lat="43.19848" lon="3.183">
        <ele>10</ele>
        <time>2024-09-20T16:39:06.834Z</time>
      </trkpt>
      <trkpt lat="43.19844" lon="3.18303">
        <ele>10</ele>
        <time>2024-09-20T16:39:10.834Z</time>
      </trkpt>
      <trkpt lat="43.1984" lon="3.18309">
        <ele>10</ele>
        <time>2024-09-20T16:39:15.834Z</time>
      </trkpt>
      <trkpt lat="43.19837" lon="3.18313">
        <ele>10</ele>
        <time>2024-09-20T16:39:19.834Z</time>
      </trkpt>
      <trkpt lat="43.19834" lon="3.18316">
        <ele>10</ele>
        <time>2024-09-20T16:39:24.834Z</time>
      </trkpt>
      <trkpt lat="43.19828" lon="3.18322">
        <ele>9</ele>
        <time>2024-09-20T16:39:29.834Z</time>
      </trkpt>
      <trkpt lat="43.19826" lon="3.18326">
        <ele>9</ele>
        <time>2024-09-20T16:39:34.834Z</time>
      </trkpt>
      <trkpt lat="43.19823" lon="3.18333">
        <ele>9</ele>
        <time>2024-09-20T16:39:38.834Z</time>
      </trkpt>
      <trkpt lat="43.19819" lon="3.18342">
        <ele>11</ele>
        <time>2024-09-20T16:39:43.834Z</time>
      </trkpt>
      <trkpt lat="43.19817" lon="3.18348">
        <ele>12</ele>
        <time>2024-09-20T16:39:47.834Z</time>
      </trkpt>
      <trkpt lat="43.19811" lon="3.18356">
        <ele>12</ele>
        <time>2024-09-20T16:39:52.834Z</time>
      </trkpt>
      <trkpt lat="43.19809" lon="3.1836">
        <ele>12</ele>
        <time>2024-09-20T16:39:57.834Z</time>
      </trkpt>
      <trkpt lat="43.19803" lon="3.18368">
        <ele>12</ele>
        <time>2024-09-20T16:40:02.834Z</time>
      </trkpt>
      <trkpt lat="43.198" lon="3.18372">
        <ele>12</ele>
        <time>2024-09-20T16:40:07.834Z</time>
      </trkpt>
      <trkpt lat="43.19795" lon="3.18379">
        <ele>13</ele>
        <time>2024-09-20T16:40:12.834Z</time>
      </trkpt>
      <trkpt lat="43.19793" lon="3.18385">
        <ele>13</ele>
        <time>2024-09-20T16:40:17.834Z</time>
      </trkpt>
      <trkpt lat="43.19792" lon="3.18392">
        <ele>13</ele>
        <time>2024-09-20T16:40:22.834Z</time>
      </trkpt>
      <trkpt lat="43.19792" lon="3.18401">
        <ele>13</ele>
        <time>2024-09-20T16:40:27.834Z</time>
      </trkpt>
      <trkpt lat="43.19793" lon="3.18408">
        <ele>14</ele>
        <time>2024-09-20T16:40:32.834Z</time>
      </trkpt>
      <trkpt lat="43.19794" lon="3.1842">
        <ele>14</ele>
        <time>2024-09-20T16:40:37.834Z</time>
      </trkpt>
      <trkpt lat="43.19793" lon="3.18426">
        <ele>14</ele>
        <time>2024-09-20T16:40:42.834Z</time>
      </trkpt>
      <trkpt lat="43.19793" lon="3.18433">
        <ele>14</ele>
        <time>2024-09-20T16:40:47.834Z</time>
      </trkpt>
      <trkpt lat="43.19792" lon="3.18439">
        <ele>14</ele>
        <time>2024-09-20T16:40:51.834Z</time>
      </trkpt>
      <trkpt lat="43.19794" lon="3.18446">
        <ele>14</ele>
        <time>2024-09-20T16:40:56.834Z</time>
      </trkpt>
      <trkpt lat="43.19796" lon="3.18456">
        <ele>14</ele>
        <time>2024-09-20T16:41:01.834Z</time>
      </trkpt>
      <trkpt lat="43.19797" lon="3.18465">
        <ele>11</ele>
        <time>2024-09-20T16:41:06.834Z</time>
      </trkpt>
      <trkpt lat="43.19796" lon="3.18474">
        <ele>11</ele>
        <time>2024-09-20T16:41:10.834Z</time>
      </trkpt>
      <trkpt lat="43.19797" lon="3.1848">
        <ele>11</ele>
        <time>2024-09-20T16:41:14.834Z</time>
      </trkpt>
      <trkpt lat="43.19794" lon="3.18487">
        <ele>10</ele>
        <time>2024-09-20T16:41:18.834Z</time>
      </trkpt>
      <trkpt lat="43.19793" lon="3.18493">
        <ele>10</ele>
        <time>2024-09-20T16:41:23.834Z</time>
      </trkpt>
      <trkpt lat="43.19793" lon="3.185">
        <ele>10</ele>
        <time>2024-09-20T16:41:27.834Z</time>
      </trkpt>
      <trkpt lat="43.19791" lon="3.18511">
        <ele>17</ele>
        <time>2024-09-20T16:41:32.834Z</time>
      </trkpt>
      <trkpt lat="43.1979" lon="3.18516">
        <ele>13</ele>
        <time>2024-09-20T16:41:36.834Z</time>
      </trkpt>
      <trkpt lat="43.19788" lon="3.18522">
        <ele>13</ele>
        <time>2024-09-20T16:41:40.834Z</time>
      </trkpt>
      <trkpt lat="43.19783" lon="3.1853">
        <ele>13</ele>
        <time>2024-09-20T16:41:45.834Z</time>
      </trkpt>
      <trkpt lat="43.19783" lon="3.18536">
        <ele>13</ele>
        <time>2024-09-20T16:41:50.834Z</time>
      </trkpt>
      <trkpt lat="43.1978" lon="3.18542">
        <ele>11</ele>
        <time>2024-09-20T16:41:54.834Z</time>
      </trkpt>
      <trkpt lat="43.19777" lon="3.18549">
        <ele>11</ele>
        <time>2024-09-20T16:41:59.834Z</time>
      </trkpt>
      <trkpt lat="43.19775" lon="3.18555">
        <ele>11</ele>
        <time>2024-09-20T16:42:03.834Z</time>
      </trkpt>
      <trkpt lat="43.19771" lon="3.18566">
        <ele>11</ele>
        <time>2024-09-20T16:42:08.834Z</time>
      </trkpt>
      <trkpt lat="43.19771" lon="3.1857">
        <ele>8</ele>
        <time>2024-09-20T16:42:13.834Z</time>
      </trkpt>
      <trkpt lat="43.19769" lon="3.18575">
        <ele>8</ele>
        <time>2024-09-20T16:42:17.834Z</time>
      </trkpt>
      <trkpt lat="43.19765" lon="3.18583">
        <ele>8</ele>
        <time>2024-09-20T16:42:21.834Z</time>
      </trkpt>
      <trkpt lat="43.19763" lon="3.1859">
        <ele>14</ele>
        <time>2024-09-20T16:42:25.834Z</time>
      </trkpt>
      <trkpt lat="43.19764" lon="3.18595">
        <ele>14</ele>
        <time>2024-09-20T16:42:29.834Z</time>
      </trkpt>
      <trkpt lat="43.19761" lon="3.18604">
        <ele>12</ele>
        <time>2024-09-20T16:42:34.834Z</time>
      </trkpt>
      <trkpt lat="43.1976" lon="3.1861">
        <ele>12</ele>
        <time>2024-09-20T16:42:38.834Z</time>
      </trkpt>
      <trkpt lat="43.19761" lon="3.18619">
        <ele>12</ele>
        <time>2024-09-20T16:42:43.834Z</time>
      </trkpt>
      <trkpt lat="43.19759" lon="3.18627">
        <ele>14</ele>
        <time>2024-09-20T16:42:47.834Z</time>
      </trkpt>
      <trkpt lat="43.19761" lon="3.18633">
        <ele>14</ele>
        <time>2024-09-20T16:42:52.834Z</time>
      </trkpt>
      <trkpt lat="43.19761" lon="3.18641">
        <ele>14</ele>
        <time>2024-09-20T16:42:56.834Z</time>
      </trkpt>
      <trkpt lat="43.19762" lon="3.18648">
        <ele>14</ele>
        <time>2024-09-20T16:43:01.834Z</time>
      </trkpt>
      <trkpt lat="43.19763" lon="3.18655">
        <ele>15</ele>
        <time>2024-09-20T16:43:06.834Z</time>
      </trkpt>
      <trkpt lat="43.19762" lon="3.18665">
        <ele>15</ele>
        <time>2024-09-20T16:43:11.834Z</time>
      </trkpt>
      <trkpt lat="43.19763" lon="3.1867">
        <ele>15</ele>
        <time>2024-09-20T16:43:15.834Z</time>
      </trkpt>
      <trkpt lat="43.19767" lon="3.18679">
        <ele>6</ele>
        <time>2024-09-20T16:43:20.834Z</time>
      </trkpt>
      <trkpt lat="43.19768" lon="3.18686">
        <ele>9</ele>
        <time>2024-09-20T16:43:24.834Z</time>
      </trkpt>
      <trkpt lat="43.19771" lon="3.18694">
        <ele>9</ele>
        <time>2024-09-20T16:43:29.834Z</time>
      </trkpt>
      <trkpt lat="43.19774" lon="3.18701">
        <ele>9</ele>
        <time>2024-09-20T16:43:34.834Z</time>
      </trkpt>
      <trkpt lat="43.19777" lon="3.18706">
        <ele>9</ele>
        <time>2024-09-20T16:43:38.834Z</time>
      </trkpt>
      <trkpt lat="43.19781" lon="3.18714">
        <ele>10</ele>
        <time>2024-09-20T16:43:43.834Z</time>
      </trkpt>
      <trkpt lat="43.19784" lon="3.18719">
        <ele>10</ele>
        <time>2024-09-20T16:43:48.834Z</time>
      </trkpt>
      <trkpt lat="43.19789" lon="3.18726">
        <ele>10</ele>
        <time>2024-09-20T16:43:53.834Z</time>
      </trkpt>
      <trkpt lat="43.19789" lon="3.1873">
        <ele>10</ele>
        <time>2024-09-20T16:43:57.834Z</time>
      </trkpt>
      <trkpt lat="43.1979" lon="3.18738">
        <ele>13</ele>
        <time>2024-09-20T16:44:02.834Z</time>
      </trkpt>
      <trkpt lat="43.1979" lon="3.18744">
        <ele>13</ele>
        <time>2024-09-20T16:44:07.834Z</time>
      </trkpt>
      <trkpt lat="43.1979" lon="3.18752">
        <ele>13</ele>
        <time>2024-09-20T16:44:12.834Z</time>
      </trkpt>
      <trkpt lat="43.1979" lon="3.1876">
        <ele>13</ele>
        <time>2024-09-20T16:44:17.834Z</time>
      </trkpt>
      <trkpt lat="43.19789" lon="3.18766">
        <ele>15</ele>
        <time>2024-09-20T16:44:21.835Z</time>
      </trkpt>
      <trkpt lat="43.19789" lon="3.18774">
        <ele>15</ele>
        <time>2024-09-20T16:44:26.835Z</time>
      </trkpt>
      <trkpt lat="43.19788" lon="3.18783">
        <ele>15</ele>
        <time>2024-09-20T16:44:31.835Z</time>
      </trkpt>
      <trkpt lat="43.19788" lon="3.18791">
        <ele>15</ele>
        <time>2024-09-20T16:44:36.835Z</time>
      </trkpt>
      <trkpt lat="43.19787" lon="3.18796">
        <ele>15</ele>
        <time>2024-09-20T16:44:40.835Z</time>
      </trkpt>
      <trkpt lat="43.19786" lon="3.18804">
        <ele>15</ele>
        <time>2024-09-20T16:44:45.835Z</time>
      </trkpt>
      <trkpt lat="43.19784" lon="3.18814">
        <ele>15</ele>
        <time>2024-09-20T16:44:50.835Z</time>
      </trkpt>
      <trkpt lat="43.19785" lon="3.18817">
        <ele>15</ele>
        <time>2024-09-20T16:44:54.835Z</time>
      </trkpt>
      <trkpt lat="43.19783" lon="3.18824">
        <ele>14</ele>
        <time>2024-09-20T16:44:59.835Z</time>
      </trkpt>
      <trkpt lat="43.19783" lon="3.18831">
        <ele>14</ele>
        <time>2024-09-20T16:45:03.835Z</time>
      </trkpt>
      <trkpt lat="43.19783" lon="3.18839">
        <ele>14</ele>
        <time>2024-09-20T16:45:08.835Z</time>
      </trkpt>
      <trkpt lat="43.19781" lon="3.18844">
        <ele>14</ele>
        <time>2024-09-20T16:45:12.835Z</time>
      </trkpt>
      <trkpt lat="43.19777" lon="3.18852">
        <ele>10</ele>
        <time>2024-09-20T16:45:17.835Z</time>
      </trkpt>
      <trkpt lat="43.19775" lon="3.18857">
        <ele>10</ele>
        <time>2024-09-20T16:45:22.835Z</time>
      </trkpt>
      <trkpt lat="43.1977" lon="3.18864">
        <ele>10</ele>
        <time>2024-09-20T16:45:27.835Z</time>
      </trkpt>
      <trkpt lat="43.19766" lon="3.18868">
        <ele>10</ele>
        <time>2024-09-20T16:45:32.835Z</time>
      </trkpt>
      <trkpt lat="43.19762" lon="3.18874">
        <ele>18</ele>
        <time>2024-09-20T16:45:36.835Z</time>
      </trkpt>
      <trkpt lat="43.19758" lon="3.18878">
        <ele>13</ele>
        <time>2024-09-20T16:45:41.835Z</time>
      </trkpt>
      <trkpt lat="43.19752" lon="3.18883">
        <ele>13</ele>
        <time>2024-09-20T16:45:46.835Z</time>
      </trkpt>
      <trkpt lat="43.1975" lon="3.18886">
        <ele>13</ele>
        <time>2024-09-20T16:45:50.835Z</time>
      </trkpt>
      <trkpt lat="43.19748" lon="3.1889">
        <ele>13</ele>
        <time>2024-09-20T16:45:55.835Z</time>
      </trkpt>
      <trkpt lat="43.19744" lon="3.18894">
        <ele>13</ele>
        <time>2024-09-20T16:46:00.835Z</time>
      </trkpt>
      <trkpt lat="43.1974" lon="3.18898">
        <ele>13</ele>
        <time>2024-09-20T16:46:04.835Z</time>
      </trkpt>
      <trkpt lat="43.19734" lon="3.18901">
        <ele>15</ele>
        <time>2024-09-20T16:46:09.835Z</time>
      </trkpt>
      <trkpt lat="43.19729" lon="3.18904">
        <ele>11</ele>
        <time>2024-09-20T16:46:14.835Z</time>
      </trkpt>
      <trkpt lat="43.19725" lon="3.18906">
        <ele>11</ele>
        <time>2024-09-20T16:46:18.835Z</time>
      </trkpt>
      <trkpt lat="43.19722" lon="3.18909">
        <ele>11</ele>
        <time>2024-09-20T16:46:22.835Z</time>
      </trkpt>
      <trkpt lat="43.19716" lon="3.18914">
        <ele>11</ele>
        <time>2024-09-20T16:46:27.835Z</time>
      </trkpt>
      <trkpt lat="43.1971" lon="3.1892">
        <ele>11</ele>
        <time>2024-09-20T16:46:32.835Z</time>
      </trkpt>
      <trkpt lat="43.19705" lon="3.18925">
        <ele>13</ele>
        <time>2024-09-20T16:46:37.835Z</time>
      </trkpt>
      <trkpt lat="43.19704" lon="3.18931">
        <ele>11</ele>
        <time>2024-09-20T16:46:41.835Z</time>
      </trkpt>
      <trkpt lat="43.19703" lon="3.18937">
        <ele>11</ele>
        <time>2024-09-20T16:46:45.835Z</time>
      </trkpt>
      <trkpt lat="43.19703" lon="3.18946">
        <ele>11</ele>
        <time>2024-09-20T16:46:50.835Z</time>
      </trkpt>
      <trkpt lat="43.19704" lon="3.18953">
        <ele>11</ele>
        <time>2024-09-20T16:46:54.835Z</time>
      </trkpt>
      <trkpt lat="43.19704" lon="3.18958">
        <ele>10</ele>
        <time>2024-09-20T16:46:58.835Z</time>
      </trkpt>
      <trkpt lat="43.19704" lon="3.18965">
        <ele>10</ele>
        <time>2024-09-20T16:47:02.835Z</time>
      </trkpt>
      <trkpt lat="43.19701" lon="3.18971">
        <ele>10</ele>
        <time>2024-09-20T16:47:07.835Z</time>
      </trkpt>
      <trkpt lat="43.197" lon="3.18979">
        <ele>10</ele>
        <time>2024-09-20T16:47:12.835Z</time>
      </trkpt>
      <trkpt lat="43.19701" lon="3.1899">
        <ele>10</ele>
        <time>2024-09-20T16:47:17.835Z</time>
      </trkpt>
      <trkpt lat="43.19702" lon="3.18997">
        <ele>10</ele>
        <time>2024-09-20T16:47:22.835Z</time>
      </trkpt>
      <trkpt lat="43.19703" lon="3.19004">
        <ele>10</ele>
        <time>2024-09-20T16:47:27.835Z</time>
      </trkpt>
      <trkpt lat="43.19704" lon="3.19012">
        <ele>10</ele>
        <time>2024-09-20T16:47:32.835Z</time>
      </trkpt>
      <trkpt lat="43.19706" lon="3.19016">
        <ele>11</ele>
        <time>2024-09-20T16:47:37.835Z</time>
      </trkpt>
      <trkpt lat="43.19708" lon="3.19025">
        <ele>6</ele>
        <time>2024-09-20T16:47:42.835Z</time>
      </trkpt>
      <trkpt lat="43.19713" lon="3.19032">
        <ele>6</ele>
        <time>2024-09-20T16:47:46.835Z</time>
      </trkpt>
      <trkpt lat="43.19716" lon="3.19036">
        <ele>6</ele>
        <time>2024-09-20T16:47:51.835Z</time>
      </trkpt>
      <trkpt lat="43.19722" lon="3.19041">
        <ele>6</ele>
        <time>2024-09-20T16:47:55.835Z</time>
      </trkpt>
      <trkpt lat="43.19727" lon="3.19044">
        <ele>5</ele>
        <time>2024-09-20T16:47:59.835Z</time>
      </trkpt>
      <trkpt lat="43.19733" lon="3.19045">
        <ele>5</ele>
        <time>2024-09-20T16:48:04.835Z</time>
      </trkpt>
      <trkpt lat="43.19739" lon="3.19046">
        <ele>2</ele>
        <time>2024-09-20T16:48:08.835Z</time>
      </trkpt>
      <trkpt lat="43.19746" lon="3.19047">
        <ele>2</ele>
        <time>2024-09-20T16:48:13.835Z</time>
      </trkpt>
      <trkpt lat="43.19752" lon="3.19049">
        <ele>2</ele>
        <time>2024-09-20T16:48:18.835Z</time>
      </trkpt>
      <trkpt lat="43.19757" lon="3.19049">
        <ele>2</ele>
        <time>2024-09-20T16:48:23.835Z</time>
      </trkpt>
      <trkpt lat="43.1976" lon="3.19052">
        <ele>2</ele>
        <time>2024-09-20T16:48:27.835Z</time>
      </trkpt>
    </trkseg>
  </trk>
</gpx>